<?xml version="1.0" encoding="UTF-8" standalone="no" ?>
<gpx xmlns="http://www.topografix.com/GPX/1/1" xmlns:xsi="http://www.w3.org/2001/XMLSchema-instance" xsi:schemaLocation="http://www.topografix.com/GPX/1/1 http://www.topografix.com/GPX/1/1/gpx.xsd" version="1.1" creator="VisuGPX - https://www.visugpx.com">
  <metadata>
    <name>St Rivoal - lac du Drennec</name>
    <desc><![CDATA[boucle entre St Rivoal et le lac du Drennec avec un retour par la route des crêtes et la chapelle St Michel de Braspart - paysages et panorama MAGNIFIQUES]]></desc>
  </metadata>
  <trk>
    <name><![CDATA[OR-5689526--Saint-Rivoal:J1 - St Rivoal - lac du Drennec]]></name>
    <trkseg>
      <trkpt lat="48.34982" lon="-3.9992">
        <ele>163</ele>
        <time>2017-01-13T22:21:43Z</time>
      </trkpt>
      <trkpt lat="48.34983" lon="-3.99923">
        <ele>163</ele>
        <time>2017-01-13T22:23:43Z</time>
      </trkpt>
      <trkpt lat="48.34988" lon="-3.99944">
        <ele>162</ele>
        <time>2017-01-13T22:25:43Z</time>
      </trkpt>
      <trkpt lat="48.35003" lon="-3.99982">
        <ele>161</ele>
        <time>2017-01-13T22:27:43Z</time>
      </trkpt>
      <trkpt lat="48.35013" lon="-4.00007">
        <ele>159</ele>
        <time>2017-01-13T22:29:43Z</time>
      </trkpt>
      <trkpt lat="48.35049" lon="-4.00045">
        <ele>156</ele>
        <time>2017-01-13T22:31:43Z</time>
      </trkpt>
      <trkpt lat="48.35069" lon="-4.00068">
        <ele>155</ele>
        <time>2017-01-13T22:33:43Z</time>
      </trkpt>
      <trkpt lat="48.35087" lon="-4.00096">
        <ele>154</ele>
        <time>2017-01-13T22:35:43Z</time>
      </trkpt>
      <trkpt lat="48.35095" lon="-4.00116">
        <ele>155</ele>
        <time>2017-01-13T22:37:43Z</time>
      </trkpt>
      <trkpt lat="48.35097" lon="-4.00121">
        <ele>155</ele>
        <time>2017-01-13T22:39:43Z</time>
      </trkpt>
      <trkpt lat="48.35097" lon="-4.00125">
        <ele>155</ele>
        <time>2017-01-13T22:41:43Z</time>
      </trkpt>
      <trkpt lat="48.35097" lon="-4.00127">
        <ele>155</ele>
        <time>2017-01-13T22:43:43Z</time>
      </trkpt>
      <trkpt lat="48.35096" lon="-4.00149">
        <ele>155</ele>
        <time>2017-01-13T22:45:43Z</time>
      </trkpt>
      <trkpt lat="48.35093" lon="-4.00182">
        <ele>155</ele>
        <time>2017-01-13T22:47:43Z</time>
      </trkpt>
      <trkpt lat="48.35083" lon="-4.00214">
        <ele>156</ele>
        <time>2017-01-13T22:49:43Z</time>
      </trkpt>
      <trkpt lat="48.35068" lon="-4.0024">
        <ele>156</ele>
        <time>2017-01-13T22:51:43Z</time>
      </trkpt>
      <trkpt lat="48.35053" lon="-4.00263">
        <ele>157</ele>
        <time>2017-01-13T22:53:43Z</time>
      </trkpt>
      <trkpt lat="48.35039" lon="-4.00298">
        <ele>158</ele>
        <time>2017-01-13T22:55:43Z</time>
      </trkpt>
      <trkpt lat="48.35023" lon="-4.00325">
        <ele>159</ele>
        <time>2017-01-13T22:57:43Z</time>
      </trkpt>
      <trkpt lat="48.3501" lon="-4.00347">
        <ele>160</ele>
        <time>2017-01-13T22:59:43Z</time>
      </trkpt>
      <trkpt lat="48.35003" lon="-4.00355">
        <ele>160</ele>
        <time>2017-01-13T23:01:43Z</time>
      </trkpt>
      <trkpt lat="48.34988" lon="-4.00368">
        <ele>161</ele>
        <time>2017-01-13T23:03:43Z</time>
      </trkpt>
      <trkpt lat="48.34972" lon="-4.00383">
        <ele>162</ele>
        <time>2017-01-13T23:05:43Z</time>
      </trkpt>
      <trkpt lat="48.34967" lon="-4.00387">
        <ele>162</ele>
        <time>2017-01-13T23:07:43Z</time>
      </trkpt>
      <trkpt lat="48.34969" lon="-4.00385">
        <ele>162</ele>
        <time>2017-01-13T23:09:43Z</time>
      </trkpt>
      <trkpt lat="48.34969" lon="-4.00382">
        <ele>162</ele>
        <time>2017-01-13T23:11:43Z</time>
      </trkpt>
      <trkpt lat="48.3497" lon="-4.00383">
        <ele>162</ele>
        <time>2017-01-13T23:13:43Z</time>
      </trkpt>
      <trkpt lat="48.34972" lon="-4.00386">
        <ele>162</ele>
        <time>2017-01-13T23:15:43Z</time>
      </trkpt>
      <trkpt lat="48.34968" lon="-4.00382">
        <ele>162</ele>
        <time>2017-01-13T23:17:43Z</time>
      </trkpt>
      <trkpt lat="48.34945" lon="-4.00384">
        <ele>162</ele>
        <time>2017-01-13T23:19:43Z</time>
      </trkpt>
      <trkpt lat="48.3492" lon="-4.00384">
        <ele>162</ele>
        <time>2017-01-13T23:21:43Z</time>
      </trkpt>
      <trkpt lat="48.34899" lon="-4.00386">
        <ele>161</ele>
        <time>2017-01-13T23:23:43Z</time>
      </trkpt>
      <trkpt lat="48.34889" lon="-4.00387">
        <ele>160</ele>
        <time>2017-01-13T23:25:43Z</time>
      </trkpt>
      <trkpt lat="48.34859" lon="-4.0039">
        <ele>159</ele>
        <time>2017-01-13T23:27:43Z</time>
      </trkpt>
      <trkpt lat="48.34826" lon="-4.00405">
        <ele>159</ele>
        <time>2017-01-13T23:29:43Z</time>
      </trkpt>
      <trkpt lat="48.3479" lon="-4.00417">
        <ele>160</ele>
        <time>2017-01-13T23:31:43Z</time>
      </trkpt>
      <trkpt lat="48.34769" lon="-4.00428">
        <ele>161</ele>
        <time>2017-01-13T23:33:43Z</time>
      </trkpt>
      <trkpt lat="48.34746" lon="-4.00441">
        <ele>164</ele>
        <time>2017-01-13T23:35:43Z</time>
      </trkpt>
      <trkpt lat="48.3471" lon="-4.0044">
        <ele>163</ele>
        <time>2017-01-13T23:37:43Z</time>
      </trkpt>
      <trkpt lat="48.34674" lon="-4.00435">
        <ele>161</ele>
        <time>2017-01-13T23:39:43Z</time>
      </trkpt>
      <trkpt lat="48.34648" lon="-4.00428">
        <ele>158</ele>
        <time>2017-01-13T23:41:43Z</time>
      </trkpt>
      <trkpt lat="48.34623" lon="-4.00438">
        <ele>158</ele>
        <time>2017-01-13T23:43:43Z</time>
      </trkpt>
      <trkpt lat="48.34622" lon="-4.00439">
        <ele>158</ele>
        <time>2017-01-13T23:45:43Z</time>
      </trkpt>
      <trkpt lat="48.34622" lon="-4.00445">
        <ele>160</ele>
        <time>2017-01-13T23:47:43Z</time>
      </trkpt>
      <trkpt lat="48.34623" lon="-4.00454">
        <ele>162</ele>
        <time>2017-01-13T23:49:43Z</time>
      </trkpt>
      <trkpt lat="48.34617" lon="-4.00451">
        <ele>161</ele>
        <time>2017-01-13T23:51:43Z</time>
      </trkpt>
      <trkpt lat="48.34585" lon="-4.00451">
        <ele>159</ele>
        <time>2017-01-13T23:53:43Z</time>
      </trkpt>
      <trkpt lat="48.34564" lon="-4.00455">
        <ele>158</ele>
        <time>2017-01-13T23:55:43Z</time>
      </trkpt>
      <trkpt lat="48.3455" lon="-4.00463">
        <ele>159</ele>
        <time>2017-01-13T23:57:43Z</time>
      </trkpt>
      <trkpt lat="48.34549" lon="-4.00463">
        <ele>159</ele>
        <time>2017-01-13T23:59:43Z</time>
      </trkpt>
      <trkpt lat="48.34547" lon="-4.00462">
        <ele>158</ele>
        <time>2017-01-14T00:01:43Z</time>
      </trkpt>
      <trkpt lat="48.34543" lon="-4.00452">
        <ele>156</ele>
        <time>2017-01-14T00:03:43Z</time>
      </trkpt>
      <trkpt lat="48.34536" lon="-4.00455">
        <ele>156</ele>
        <time>2017-01-14T00:05:43Z</time>
      </trkpt>
      <trkpt lat="48.34521" lon="-4.00459">
        <ele>155</ele>
        <time>2017-01-14T00:07:43Z</time>
      </trkpt>
      <trkpt lat="48.34517" lon="-4.00459">
        <ele>155</ele>
        <time>2017-01-14T00:09:43Z</time>
      </trkpt>
      <trkpt lat="48.34516" lon="-4.00458">
        <ele>155</ele>
        <time>2017-01-14T00:11:43Z</time>
      </trkpt>
      <trkpt lat="48.34502" lon="-4.00465">
        <ele>155</ele>
        <time>2017-01-14T00:13:43Z</time>
      </trkpt>
      <trkpt lat="48.34491" lon="-4.00478">
        <ele>155</ele>
        <time>2017-01-14T00:15:43Z</time>
      </trkpt>
      <trkpt lat="48.34469" lon="-4.00512">
        <ele>156</ele>
        <time>2017-01-14T00:17:43Z</time>
      </trkpt>
      <trkpt lat="48.34443" lon="-4.00539">
        <ele>153</ele>
        <time>2017-01-14T00:19:43Z</time>
      </trkpt>
      <trkpt lat="48.34424" lon="-4.0056">
        <ele>151</ele>
        <time>2017-01-14T00:21:43Z</time>
      </trkpt>
      <trkpt lat="48.34407" lon="-4.00592">
        <ele>152</ele>
        <time>2017-01-14T00:23:43Z</time>
      </trkpt>
      <trkpt lat="48.34383" lon="-4.00626">
        <ele>154</ele>
        <time>2017-01-14T00:25:43Z</time>
      </trkpt>
      <trkpt lat="48.34355" lon="-4.00648">
        <ele>152</ele>
        <time>2017-01-14T00:27:43Z</time>
      </trkpt>
      <trkpt lat="48.34323" lon="-4.0067">
        <ele>151</ele>
        <time>2017-01-14T00:29:43Z</time>
      </trkpt>
      <trkpt lat="48.34315" lon="-4.00684">
        <ele>152</ele>
        <time>2017-01-14T00:31:43Z</time>
      </trkpt>
      <trkpt lat="48.34312" lon="-4.00692">
        <ele>153</ele>
        <time>2017-01-14T00:33:43Z</time>
      </trkpt>
      <trkpt lat="48.343" lon="-4.00736">
        <ele>155</ele>
        <time>2017-01-14T00:35:43Z</time>
      </trkpt>
      <trkpt lat="48.34297" lon="-4.00754">
        <ele>155</ele>
        <time>2017-01-14T00:37:43Z</time>
      </trkpt>
      <trkpt lat="48.34284" lon="-4.00797">
        <ele>156</ele>
        <time>2017-01-14T00:39:43Z</time>
      </trkpt>
      <trkpt lat="48.34283" lon="-4.00804">
        <ele>156</ele>
        <time>2017-01-14T00:41:43Z</time>
      </trkpt>
      <trkpt lat="48.34282" lon="-4.00809">
        <ele>156</ele>
        <time>2017-01-14T00:43:43Z</time>
      </trkpt>
      <trkpt lat="48.3428" lon="-4.00813">
        <ele>156</ele>
        <time>2017-01-14T00:45:43Z</time>
      </trkpt>
      <trkpt lat="48.34269" lon="-4.00854">
        <ele>157</ele>
        <time>2017-01-14T00:47:43Z</time>
      </trkpt>
      <trkpt lat="48.34255" lon="-4.00887">
        <ele>157</ele>
        <time>2017-01-14T00:49:43Z</time>
      </trkpt>
      <trkpt lat="48.34232" lon="-4.00924">
        <ele>156</ele>
        <time>2017-01-14T00:51:43Z</time>
      </trkpt>
      <trkpt lat="48.34219" lon="-4.00952">
        <ele>156</ele>
        <time>2017-01-14T00:53:43Z</time>
      </trkpt>
      <trkpt lat="48.34209" lon="-4.00978">
        <ele>156</ele>
        <time>2017-01-14T00:55:43Z</time>
      </trkpt>
      <trkpt lat="48.34212" lon="-4.00997">
        <ele>159</ele>
        <time>2017-01-14T00:57:43Z</time>
      </trkpt>
      <trkpt lat="48.34205" lon="-4.01006">
        <ele>158</ele>
        <time>2017-01-14T00:59:43Z</time>
      </trkpt>
      <trkpt lat="48.34184" lon="-4.01056">
        <ele>159</ele>
        <time>2017-01-14T01:01:43Z</time>
      </trkpt>
      <trkpt lat="48.34186" lon="-4.01124">
        <ele>165</ele>
        <time>2017-01-14T01:03:43Z</time>
      </trkpt>
      <trkpt lat="48.34176" lon="-4.01151">
        <ele>165</ele>
        <time>2017-01-14T01:05:43Z</time>
      </trkpt>
      <trkpt lat="48.34168" lon="-4.01171">
        <ele>166</ele>
        <time>2017-01-14T01:07:43Z</time>
      </trkpt>
      <trkpt lat="48.34155" lon="-4.012">
        <ele>167</ele>
        <time>2017-01-14T01:09:43Z</time>
      </trkpt>
      <trkpt lat="48.34148" lon="-4.01205">
        <ele>167</ele>
        <time>2017-01-14T01:11:43Z</time>
      </trkpt>
      <trkpt lat="48.34132" lon="-4.01234">
        <ele>168</ele>
        <time>2017-01-14T01:13:43Z</time>
      </trkpt>
      <trkpt lat="48.34144" lon="-4.01255">
        <ele>171</ele>
        <time>2017-01-14T01:15:43Z</time>
      </trkpt>
      <trkpt lat="48.34148" lon="-4.01259">
        <ele>172</ele>
        <time>2017-01-14T01:17:43Z</time>
      </trkpt>
      <trkpt lat="48.34172" lon="-4.01273">
        <ele>174</ele>
        <time>2017-01-14T01:19:43Z</time>
      </trkpt>
      <trkpt lat="48.3418" lon="-4.01271">
        <ele>175</ele>
        <time>2017-01-14T01:21:43Z</time>
      </trkpt>
      <trkpt lat="48.34186" lon="-4.01271">
        <ele>175</ele>
        <time>2017-01-14T01:23:43Z</time>
      </trkpt>
      <trkpt lat="48.34192" lon="-4.01269">
        <ele>176</ele>
        <time>2017-01-14T01:25:43Z</time>
      </trkpt>
      <trkpt lat="48.34218" lon="-4.01272">
        <ele>178</ele>
        <time>2017-01-14T01:27:43Z</time>
      </trkpt>
      <trkpt lat="48.3424" lon="-4.01246">
        <ele>181</ele>
        <time>2017-01-14T01:29:43Z</time>
      </trkpt>
      <trkpt lat="48.34266" lon="-4.01247">
        <ele>183</ele>
        <time>2017-01-14T01:31:43Z</time>
      </trkpt>
      <trkpt lat="48.34296" lon="-4.0126">
        <ele>185</ele>
        <time>2017-01-14T01:33:43Z</time>
      </trkpt>
      <trkpt lat="48.34321" lon="-4.01276">
        <ele>186</ele>
        <time>2017-01-14T01:35:43Z</time>
      </trkpt>
      <trkpt lat="48.34347" lon="-4.01285">
        <ele>189</ele>
        <time>2017-01-14T01:37:43Z</time>
      </trkpt>
      <trkpt lat="48.34379" lon="-4.01308">
        <ele>192</ele>
        <time>2017-01-14T01:39:43Z</time>
      </trkpt>
      <trkpt lat="48.34401" lon="-4.01321">
        <ele>194</ele>
        <time>2017-01-14T01:41:43Z</time>
      </trkpt>
      <trkpt lat="48.34415" lon="-4.01334">
        <ele>196</ele>
        <time>2017-01-14T01:43:43Z</time>
      </trkpt>
      <trkpt lat="48.34437" lon="-4.01356">
        <ele>196</ele>
        <time>2017-01-14T01:45:43Z</time>
      </trkpt>
      <trkpt lat="48.34456" lon="-4.01335">
        <ele>198</ele>
        <time>2017-01-14T01:47:43Z</time>
      </trkpt>
      <trkpt lat="48.34475" lon="-4.01306">
        <ele>199</ele>
        <time>2017-01-14T01:49:43Z</time>
      </trkpt>
      <trkpt lat="48.34492" lon="-4.01277">
        <ele>200</ele>
        <time>2017-01-14T01:51:43Z</time>
      </trkpt>
      <trkpt lat="48.3451" lon="-4.01246">
        <ele>202</ele>
        <time>2017-01-14T01:53:43Z</time>
      </trkpt>
      <trkpt lat="48.34522" lon="-4.01216">
        <ele>203</ele>
        <time>2017-01-14T01:55:43Z</time>
      </trkpt>
      <trkpt lat="48.34529" lon="-4.01176">
        <ele>205</ele>
        <time>2017-01-14T01:57:43Z</time>
      </trkpt>
      <trkpt lat="48.3453" lon="-4.01168">
        <ele>205</ele>
        <time>2017-01-14T01:59:43Z</time>
      </trkpt>
      <trkpt lat="48.34536" lon="-4.01131">
        <ele>208</ele>
        <time>2017-01-14T02:01:43Z</time>
      </trkpt>
      <trkpt lat="48.34542" lon="-4.01103">
        <ele>210</ele>
        <time>2017-01-14T02:03:43Z</time>
      </trkpt>
      <trkpt lat="48.3455" lon="-4.01064">
        <ele>213</ele>
        <time>2017-01-14T02:05:43Z</time>
      </trkpt>
      <trkpt lat="48.34562" lon="-4.01019">
        <ele>217</ele>
        <time>2017-01-14T02:07:43Z</time>
      </trkpt>
      <trkpt lat="48.34572" lon="-4.00978">
        <ele>220</ele>
        <time>2017-01-14T02:09:43Z</time>
      </trkpt>
      <trkpt lat="48.34584" lon="-4.00942">
        <ele>222</ele>
        <time>2017-01-14T02:11:43Z</time>
      </trkpt>
      <trkpt lat="48.34615" lon="-4.00945">
        <ele>223</ele>
        <time>2017-01-14T02:13:43Z</time>
      </trkpt>
      <trkpt lat="48.34649" lon="-4.00944">
        <ele>224</ele>
        <time>2017-01-14T02:15:43Z</time>
      </trkpt>
      <trkpt lat="48.34678" lon="-4.00949">
        <ele>224</ele>
        <time>2017-01-14T02:17:43Z</time>
      </trkpt>
      <trkpt lat="48.34716" lon="-4.00955">
        <ele>224</ele>
        <time>2017-01-14T02:19:43Z</time>
      </trkpt>
      <trkpt lat="48.3473" lon="-4.00937">
        <ele>224</ele>
        <time>2017-01-14T02:21:43Z</time>
      </trkpt>
      <trkpt lat="48.34739" lon="-4.00902">
        <ele>224</ele>
        <time>2017-01-14T02:23:43Z</time>
      </trkpt>
      <trkpt lat="48.34758" lon="-4.00862">
        <ele>222</ele>
        <time>2017-01-14T02:25:43Z</time>
      </trkpt>
      <trkpt lat="48.34791" lon="-4.00872">
        <ele>222</ele>
        <time>2017-01-14T02:27:43Z</time>
      </trkpt>
      <trkpt lat="48.34821" lon="-4.00877">
        <ele>223</ele>
        <time>2017-01-14T02:29:43Z</time>
      </trkpt>
      <trkpt lat="48.34844" lon="-4.00877">
        <ele>223</ele>
        <time>2017-01-14T02:31:43Z</time>
      </trkpt>
      <trkpt lat="48.34866" lon="-4.00888">
        <ele>224</ele>
        <time>2017-01-14T02:33:43Z</time>
      </trkpt>
      <trkpt lat="48.3488" lon="-4.00891">
        <ele>225</ele>
        <time>2017-01-14T02:35:43Z</time>
      </trkpt>
      <trkpt lat="48.34924" lon="-4.00874">
        <ele>223</ele>
        <time>2017-01-14T02:37:43Z</time>
      </trkpt>
      <trkpt lat="48.34966" lon="-4.00866">
        <ele>223</ele>
        <time>2017-01-14T02:39:43Z</time>
      </trkpt>
      <trkpt lat="48.35001" lon="-4.00854">
        <ele>223</ele>
        <time>2017-01-14T02:41:43Z</time>
      </trkpt>
      <trkpt lat="48.35028" lon="-4.00841">
        <ele>223</ele>
        <time>2017-01-14T02:43:43Z</time>
      </trkpt>
      <trkpt lat="48.35061" lon="-4.00822">
        <ele>223</ele>
        <time>2017-01-14T02:45:43Z</time>
      </trkpt>
      <trkpt lat="48.35064" lon="-4.00819">
        <ele>223</ele>
        <time>2017-01-14T02:47:43Z</time>
      </trkpt>
      <trkpt lat="48.35068" lon="-4.0081">
        <ele>223</ele>
        <time>2017-01-14T02:49:43Z</time>
      </trkpt>
      <trkpt lat="48.35074" lon="-4.00767">
        <ele>221</ele>
        <time>2017-01-14T02:51:43Z</time>
      </trkpt>
      <trkpt lat="48.35086" lon="-4.00762">
        <ele>222</ele>
        <time>2017-01-14T02:53:43Z</time>
      </trkpt>
      <trkpt lat="48.35122" lon="-4.00757">
        <ele>223</ele>
        <time>2017-01-14T02:55:43Z</time>
      </trkpt>
      <trkpt lat="48.35137" lon="-4.00753">
        <ele>223</ele>
        <time>2017-01-14T02:57:43Z</time>
      </trkpt>
      <trkpt lat="48.35163" lon="-4.00744">
        <ele>224</ele>
        <time>2017-01-14T02:59:43Z</time>
      </trkpt>
      <trkpt lat="48.35191" lon="-4.00732">
        <ele>225</ele>
        <time>2017-01-14T03:01:43Z</time>
      </trkpt>
      <trkpt lat="48.35209" lon="-4.00734">
        <ele>226</ele>
        <time>2017-01-14T03:03:43Z</time>
      </trkpt>
      <trkpt lat="48.35259" lon="-4.00715">
        <ele>228</ele>
        <time>2017-01-14T03:05:43Z</time>
      </trkpt>
      <trkpt lat="48.35292" lon="-4.00708">
        <ele>229</ele>
        <time>2017-01-14T03:07:43Z</time>
      </trkpt>
      <trkpt lat="48.35311" lon="-4.00705">
        <ele>229</ele>
        <time>2017-01-14T03:09:43Z</time>
      </trkpt>
      <trkpt lat="48.35378" lon="-4.00709">
        <ele>230</ele>
        <time>2017-01-14T03:11:43Z</time>
      </trkpt>
      <trkpt lat="48.35409" lon="-4.007">
        <ele>232</ele>
        <time>2017-01-14T03:13:43Z</time>
      </trkpt>
      <trkpt lat="48.35438" lon="-4.0069">
        <ele>234</ele>
        <time>2017-01-14T03:15:43Z</time>
      </trkpt>
      <trkpt lat="48.35465" lon="-4.0068">
        <ele>235</ele>
        <time>2017-01-14T03:17:43Z</time>
      </trkpt>
      <trkpt lat="48.35497" lon="-4.00663">
        <ele>237</ele>
        <time>2017-01-14T03:19:43Z</time>
      </trkpt>
      <trkpt lat="48.35519" lon="-4.00654">
        <ele>238</ele>
        <time>2017-01-14T03:21:43Z</time>
      </trkpt>
      <trkpt lat="48.35546" lon="-4.00649">
        <ele>239</ele>
        <time>2017-01-14T03:23:43Z</time>
      </trkpt>
      <trkpt lat="48.35569" lon="-4.00642">
        <ele>240</ele>
        <time>2017-01-14T03:25:43Z</time>
      </trkpt>
      <trkpt lat="48.35599" lon="-4.00647">
        <ele>240</ele>
        <time>2017-01-14T03:27:43Z</time>
      </trkpt>
      <trkpt lat="48.35618" lon="-4.00653">
        <ele>240</ele>
        <time>2017-01-14T03:29:43Z</time>
      </trkpt>
      <trkpt lat="48.35644" lon="-4.00664">
        <ele>240</ele>
        <time>2017-01-14T03:31:43Z</time>
      </trkpt>
      <trkpt lat="48.35661" lon="-4.00691">
        <ele>239</ele>
        <time>2017-01-14T03:33:43Z</time>
      </trkpt>
      <trkpt lat="48.35665" lon="-4.00716">
        <ele>239</ele>
        <time>2017-01-14T03:35:43Z</time>
      </trkpt>
      <trkpt lat="48.35673" lon="-4.00715">
        <ele>239</ele>
        <time>2017-01-14T03:37:43Z</time>
      </trkpt>
      <trkpt lat="48.35697" lon="-4.00723">
        <ele>239</ele>
        <time>2017-01-14T03:39:43Z</time>
      </trkpt>
      <trkpt lat="48.35728" lon="-4.00731">
        <ele>240</ele>
        <time>2017-01-14T03:41:43Z</time>
      </trkpt>
      <trkpt lat="48.35758" lon="-4.00744">
        <ele>241</ele>
        <time>2017-01-14T03:43:43Z</time>
      </trkpt>
      <trkpt lat="48.35786" lon="-4.0075">
        <ele>243</ele>
        <time>2017-01-14T03:45:43Z</time>
      </trkpt>
      <trkpt lat="48.35818" lon="-4.00755">
        <ele>244</ele>
        <time>2017-01-14T03:47:43Z</time>
      </trkpt>
      <trkpt lat="48.35843" lon="-4.00764">
        <ele>246</ele>
        <time>2017-01-14T03:49:43Z</time>
      </trkpt>
      <trkpt lat="48.35861" lon="-4.0078">
        <ele>246</ele>
        <time>2017-01-14T03:51:43Z</time>
      </trkpt>
      <trkpt lat="48.35883" lon="-4.00793">
        <ele>247</ele>
        <time>2017-01-14T03:53:43Z</time>
      </trkpt>
      <trkpt lat="48.35922" lon="-4.00813">
        <ele>248</ele>
        <time>2017-01-14T03:55:43Z</time>
      </trkpt>
      <trkpt lat="48.35951" lon="-4.00826">
        <ele>249</ele>
        <time>2017-01-14T03:57:43Z</time>
      </trkpt>
      <trkpt lat="48.35984" lon="-4.00836">
        <ele>251</ele>
        <time>2017-01-14T03:59:43Z</time>
      </trkpt>
      <trkpt lat="48.36013" lon="-4.00857">
        <ele>251</ele>
        <time>2017-01-14T04:01:43Z</time>
      </trkpt>
      <trkpt lat="48.36038" lon="-4.00865">
        <ele>251</ele>
        <time>2017-01-14T04:03:43Z</time>
      </trkpt>
      <trkpt lat="48.36071" lon="-4.00853">
        <ele>251</ele>
        <time>2017-01-14T04:05:43Z</time>
      </trkpt>
      <trkpt lat="48.36101" lon="-4.00836">
        <ele>250</ele>
        <time>2017-01-14T04:07:43Z</time>
      </trkpt>
      <trkpt lat="48.36122" lon="-4.00809">
        <ele>249</ele>
        <time>2017-01-14T04:09:43Z</time>
      </trkpt>
      <trkpt lat="48.36147" lon="-4.00782">
        <ele>249</ele>
        <time>2017-01-14T04:11:43Z</time>
      </trkpt>
      <trkpt lat="48.36165" lon="-4.00771">
        <ele>248</ele>
        <time>2017-01-14T04:13:43Z</time>
      </trkpt>
      <trkpt lat="48.36188" lon="-4.00775">
        <ele>249</ele>
        <time>2017-01-14T04:15:43Z</time>
      </trkpt>
      <trkpt lat="48.36207" lon="-4.00785">
        <ele>250</ele>
        <time>2017-01-14T04:17:43Z</time>
      </trkpt>
      <trkpt lat="48.36231" lon="-4.00795">
        <ele>250</ele>
        <time>2017-01-14T04:19:43Z</time>
      </trkpt>
      <trkpt lat="48.36257" lon="-4.0082">
        <ele>250</ele>
        <time>2017-01-14T04:21:43Z</time>
      </trkpt>
      <trkpt lat="48.36277" lon="-4.00855">
        <ele>249</ele>
        <time>2017-01-14T04:23:43Z</time>
      </trkpt>
      <trkpt lat="48.36302" lon="-4.00881">
        <ele>246</ele>
        <time>2017-01-14T04:25:43Z</time>
      </trkpt>
      <trkpt lat="48.36314" lon="-4.00892">
        <ele>245</ele>
        <time>2017-01-14T04:27:43Z</time>
      </trkpt>
      <trkpt lat="48.36318" lon="-4.00895">
        <ele>245</ele>
        <time>2017-01-14T04:29:43Z</time>
      </trkpt>
      <trkpt lat="48.36335" lon="-4.00901">
        <ele>244</ele>
        <time>2017-01-14T04:31:43Z</time>
      </trkpt>
      <trkpt lat="48.36343" lon="-4.00903">
        <ele>244</ele>
        <time>2017-01-14T04:33:43Z</time>
      </trkpt>
      <trkpt lat="48.36363" lon="-4.00905">
        <ele>243</ele>
        <time>2017-01-14T04:35:43Z</time>
      </trkpt>
      <trkpt lat="48.36389" lon="-4.00905">
        <ele>243</ele>
        <time>2017-01-14T04:37:43Z</time>
      </trkpt>
      <trkpt lat="48.36413" lon="-4.00909">
        <ele>242</ele>
        <time>2017-01-14T04:39:43Z</time>
      </trkpt>
      <trkpt lat="48.36442" lon="-4.0091">
        <ele>244</ele>
        <time>2017-01-14T04:41:43Z</time>
      </trkpt>
      <trkpt lat="48.36476" lon="-4.00916">
        <ele>246</ele>
        <time>2017-01-14T04:43:43Z</time>
      </trkpt>
      <trkpt lat="48.36475" lon="-4.00936">
        <ele>245</ele>
        <time>2017-01-14T04:45:43Z</time>
      </trkpt>
      <trkpt lat="48.36466" lon="-4.00979">
        <ele>244</ele>
        <time>2017-01-14T04:47:43Z</time>
      </trkpt>
      <trkpt lat="48.36465" lon="-4.01019">
        <ele>243</ele>
        <time>2017-01-14T04:49:43Z</time>
      </trkpt>
      <trkpt lat="48.36458" lon="-4.01052">
        <ele>242</ele>
        <time>2017-01-14T04:51:43Z</time>
      </trkpt>
      <trkpt lat="48.36456" lon="-4.01072">
        <ele>242</ele>
        <time>2017-01-14T04:53:43Z</time>
      </trkpt>
      <trkpt lat="48.36441" lon="-4.01122">
        <ele>240</ele>
        <time>2017-01-14T04:55:43Z</time>
      </trkpt>
      <trkpt lat="48.36438" lon="-4.01157">
        <ele>239</ele>
        <time>2017-01-14T04:57:43Z</time>
      </trkpt>
      <trkpt lat="48.36425" lon="-4.01202">
        <ele>238</ele>
        <time>2017-01-14T04:59:43Z</time>
      </trkpt>
      <trkpt lat="48.3642" lon="-4.01237">
        <ele>237</ele>
        <time>2017-01-14T05:01:43Z</time>
      </trkpt>
      <trkpt lat="48.36419" lon="-4.01248">
        <ele>237</ele>
        <time>2017-01-14T05:03:43Z</time>
      </trkpt>
      <trkpt lat="48.36419" lon="-4.01268">
        <ele>237</ele>
        <time>2017-01-14T05:05:43Z</time>
      </trkpt>
      <trkpt lat="48.36418" lon="-4.01278">
        <ele>237</ele>
        <time>2017-01-14T05:07:43Z</time>
      </trkpt>
      <trkpt lat="48.36417" lon="-4.01282">
        <ele>237</ele>
        <time>2017-01-14T05:09:43Z</time>
      </trkpt>
      <trkpt lat="48.36417" lon="-4.01285">
        <ele>237</ele>
        <time>2017-01-14T05:11:43Z</time>
      </trkpt>
      <trkpt lat="48.36403" lon="-4.01373">
        <ele>236</ele>
        <time>2017-01-14T05:13:43Z</time>
      </trkpt>
      <trkpt lat="48.36391" lon="-4.01417">
        <ele>236</ele>
        <time>2017-01-14T05:15:43Z</time>
      </trkpt>
      <trkpt lat="48.36375" lon="-4.01495">
        <ele>235</ele>
        <time>2017-01-14T05:17:43Z</time>
      </trkpt>
      <trkpt lat="48.36369" lon="-4.01537">
        <ele>235</ele>
        <time>2017-01-14T05:19:43Z</time>
      </trkpt>
      <trkpt lat="48.36366" lon="-4.01551">
        <ele>235</ele>
        <time>2017-01-14T05:21:43Z</time>
      </trkpt>
      <trkpt lat="48.36358" lon="-4.01592">
        <ele>235</ele>
        <time>2017-01-14T05:23:43Z</time>
      </trkpt>
      <trkpt lat="48.36351" lon="-4.01637">
        <ele>235</ele>
        <time>2017-01-14T05:25:43Z</time>
      </trkpt>
      <trkpt lat="48.36345" lon="-4.01684">
        <ele>235</ele>
        <time>2017-01-14T05:27:43Z</time>
      </trkpt>
      <trkpt lat="48.36335" lon="-4.01729">
        <ele>234</ele>
        <time>2017-01-14T05:29:43Z</time>
      </trkpt>
      <trkpt lat="48.36317" lon="-4.01759">
        <ele>232</ele>
        <time>2017-01-14T05:31:43Z</time>
      </trkpt>
      <trkpt lat="48.36303" lon="-4.01794">
        <ele>231</ele>
        <time>2017-01-14T05:33:43Z</time>
      </trkpt>
      <trkpt lat="48.36289" lon="-4.0183">
        <ele>230</ele>
        <time>2017-01-14T05:35:43Z</time>
      </trkpt>
      <trkpt lat="48.36278" lon="-4.01874">
        <ele>230</ele>
        <time>2017-01-14T05:37:43Z</time>
      </trkpt>
      <trkpt lat="48.36271" lon="-4.01905">
        <ele>231</ele>
        <time>2017-01-14T05:39:43Z</time>
      </trkpt>
      <trkpt lat="48.36264" lon="-4.01946">
        <ele>232</ele>
        <time>2017-01-14T05:41:43Z</time>
      </trkpt>
      <trkpt lat="48.36263" lon="-4.01951">
        <ele>232</ele>
        <time>2017-01-14T05:43:43Z</time>
      </trkpt>
      <trkpt lat="48.36257" lon="-4.01973">
        <ele>232</ele>
        <time>2017-01-14T05:45:43Z</time>
      </trkpt>
      <trkpt lat="48.36253" lon="-4.01992">
        <ele>232</ele>
        <time>2017-01-14T05:47:43Z</time>
      </trkpt>
      <trkpt lat="48.36252" lon="-4.02009">
        <ele>233</ele>
        <time>2017-01-14T05:49:43Z</time>
      </trkpt>
      <trkpt lat="48.36241" lon="-4.02043">
        <ele>232</ele>
        <time>2017-01-14T05:51:43Z</time>
      </trkpt>
      <trkpt lat="48.36236" lon="-4.02077">
        <ele>232</ele>
        <time>2017-01-14T05:53:43Z</time>
      </trkpt>
      <trkpt lat="48.36232" lon="-4.02093">
        <ele>233</ele>
        <time>2017-01-14T05:55:43Z</time>
      </trkpt>
      <trkpt lat="48.36228" lon="-4.02107">
        <ele>233</ele>
        <time>2017-01-14T05:57:43Z</time>
      </trkpt>
      <trkpt lat="48.3622" lon="-4.02136">
        <ele>233</ele>
        <time>2017-01-14T05:59:43Z</time>
      </trkpt>
      <trkpt lat="48.36208" lon="-4.02171">
        <ele>234</ele>
        <time>2017-01-14T06:01:43Z</time>
      </trkpt>
      <trkpt lat="48.36206" lon="-4.02175">
        <ele>234</ele>
        <time>2017-01-14T06:03:43Z</time>
      </trkpt>
      <trkpt lat="48.36202" lon="-4.02197">
        <ele>235</ele>
        <time>2017-01-14T06:05:43Z</time>
      </trkpt>
      <trkpt lat="48.36194" lon="-4.02228">
        <ele>236</ele>
        <time>2017-01-14T06:07:43Z</time>
      </trkpt>
      <trkpt lat="48.36192" lon="-4.02237">
        <ele>236</ele>
        <time>2017-01-14T06:09:43Z</time>
      </trkpt>
      <trkpt lat="48.36188" lon="-4.0227">
        <ele>237</ele>
        <time>2017-01-14T06:11:43Z</time>
      </trkpt>
      <trkpt lat="48.36187" lon="-4.02287">
        <ele>237</ele>
        <time>2017-01-14T06:13:43Z</time>
      </trkpt>
      <trkpt lat="48.36186" lon="-4.02323">
        <ele>237</ele>
        <time>2017-01-14T06:15:43Z</time>
      </trkpt>
      <trkpt lat="48.36181" lon="-4.02344">
        <ele>236</ele>
        <time>2017-01-14T06:17:43Z</time>
      </trkpt>
      <trkpt lat="48.3618" lon="-4.02356">
        <ele>236</ele>
        <time>2017-01-14T06:19:43Z</time>
      </trkpt>
      <trkpt lat="48.36178" lon="-4.02373">
        <ele>236</ele>
        <time>2017-01-14T06:21:43Z</time>
      </trkpt>
      <trkpt lat="48.36178" lon="-4.02408">
        <ele>235</ele>
        <time>2017-01-14T06:23:43Z</time>
      </trkpt>
      <trkpt lat="48.36177" lon="-4.02436">
        <ele>236</ele>
        <time>2017-01-14T06:25:43Z</time>
      </trkpt>
      <trkpt lat="48.36177" lon="-4.0247">
        <ele>237</ele>
        <time>2017-01-14T06:27:43Z</time>
      </trkpt>
      <trkpt lat="48.36175" lon="-4.02488">
        <ele>237</ele>
        <time>2017-01-14T06:29:43Z</time>
      </trkpt>
      <trkpt lat="48.36173" lon="-4.02502">
        <ele>237</ele>
        <time>2017-01-14T06:31:43Z</time>
      </trkpt>
      <trkpt lat="48.36167" lon="-4.02541">
        <ele>237</ele>
        <time>2017-01-14T06:33:43Z</time>
      </trkpt>
      <trkpt lat="48.36161" lon="-4.02572">
        <ele>236</ele>
        <time>2017-01-14T06:35:43Z</time>
      </trkpt>
      <trkpt lat="48.36155" lon="-4.02612">
        <ele>237</ele>
        <time>2017-01-14T06:37:43Z</time>
      </trkpt>
      <trkpt lat="48.36154" lon="-4.02634">
        <ele>237</ele>
        <time>2017-01-14T06:39:43Z</time>
      </trkpt>
      <trkpt lat="48.36151" lon="-4.02646">
        <ele>237</ele>
        <time>2017-01-14T06:41:43Z</time>
      </trkpt>
      <trkpt lat="48.36144" lon="-4.02692">
        <ele>237</ele>
        <time>2017-01-14T06:43:43Z</time>
      </trkpt>
      <trkpt lat="48.36144" lon="-4.02695">
        <ele>237</ele>
        <time>2017-01-14T06:45:43Z</time>
      </trkpt>
      <trkpt lat="48.36143" lon="-4.02705">
        <ele>237</ele>
        <time>2017-01-14T06:47:43Z</time>
      </trkpt>
      <trkpt lat="48.36141" lon="-4.02728">
        <ele>237</ele>
        <time>2017-01-14T06:49:43Z</time>
      </trkpt>
      <trkpt lat="48.36141" lon="-4.02735">
        <ele>237</ele>
        <time>2017-01-14T06:51:43Z</time>
      </trkpt>
      <trkpt lat="48.36142" lon="-4.02767">
        <ele>237</ele>
        <time>2017-01-14T06:53:43Z</time>
      </trkpt>
      <trkpt lat="48.3614" lon="-4.02788">
        <ele>236</ele>
        <time>2017-01-14T06:55:43Z</time>
      </trkpt>
      <trkpt lat="48.36135" lon="-4.02815">
        <ele>236</ele>
        <time>2017-01-14T06:57:43Z</time>
      </trkpt>
      <trkpt lat="48.36134" lon="-4.02824">
        <ele>236</ele>
        <time>2017-01-14T06:59:43Z</time>
      </trkpt>
      <trkpt lat="48.36127" lon="-4.02872">
        <ele>236</ele>
        <time>2017-01-14T07:01:43Z</time>
      </trkpt>
      <trkpt lat="48.36126" lon="-4.02876">
        <ele>236</ele>
        <time>2017-01-14T07:03:43Z</time>
      </trkpt>
      <trkpt lat="48.36122" lon="-4.02903">
        <ele>236</ele>
        <time>2017-01-14T07:05:43Z</time>
      </trkpt>
      <trkpt lat="48.36117" lon="-4.02939">
        <ele>236</ele>
        <time>2017-01-14T07:07:43Z</time>
      </trkpt>
      <trkpt lat="48.36107" lon="-4.02986">
        <ele>236</ele>
        <time>2017-01-14T07:09:43Z</time>
      </trkpt>
      <trkpt lat="48.36097" lon="-4.03028">
        <ele>235</ele>
        <time>2017-01-14T07:11:43Z</time>
      </trkpt>
      <trkpt lat="48.36092" lon="-4.03064">
        <ele>236</ele>
        <time>2017-01-14T07:13:43Z</time>
      </trkpt>
      <trkpt lat="48.3609" lon="-4.03075">
        <ele>236</ele>
        <time>2017-01-14T07:15:43Z</time>
      </trkpt>
      <trkpt lat="48.36084" lon="-4.03093">
        <ele>235</ele>
        <time>2017-01-14T07:17:43Z</time>
      </trkpt>
      <trkpt lat="48.36074" lon="-4.03138">
        <ele>236</ele>
        <time>2017-01-14T07:19:43Z</time>
      </trkpt>
      <trkpt lat="48.36066" lon="-4.03175">
        <ele>236</ele>
        <time>2017-01-14T07:21:43Z</time>
      </trkpt>
      <trkpt lat="48.36064" lon="-4.03189">
        <ele>237</ele>
        <time>2017-01-14T07:23:43Z</time>
      </trkpt>
      <trkpt lat="48.36093" lon="-4.03166">
        <ele>239</ele>
        <time>2017-01-14T07:25:43Z</time>
      </trkpt>
      <trkpt lat="48.36121" lon="-4.03143">
        <ele>242</ele>
        <time>2017-01-14T07:27:43Z</time>
      </trkpt>
      <trkpt lat="48.36124" lon="-4.0314">
        <ele>242</ele>
        <time>2017-01-14T07:29:43Z</time>
      </trkpt>
      <trkpt lat="48.3616" lon="-4.03112">
        <ele>246</ele>
        <time>2017-01-14T07:31:43Z</time>
      </trkpt>
      <trkpt lat="48.36203" lon="-4.0308">
        <ele>251</ele>
        <time>2017-01-14T07:33:43Z</time>
      </trkpt>
      <trkpt lat="48.36213" lon="-4.03074">
        <ele>252</ele>
        <time>2017-01-14T07:35:43Z</time>
      </trkpt>
      <trkpt lat="48.3624" lon="-4.03052">
        <ele>255</ele>
        <time>2017-01-14T07:37:43Z</time>
      </trkpt>
      <trkpt lat="48.36275" lon="-4.03023">
        <ele>258</ele>
        <time>2017-01-14T07:39:43Z</time>
      </trkpt>
      <trkpt lat="48.36288" lon="-4.03012">
        <ele>259</ele>
        <time>2017-01-14T07:41:43Z</time>
      </trkpt>
      <trkpt lat="48.3629" lon="-4.03011">
        <ele>260</ele>
        <time>2017-01-14T07:43:43Z</time>
      </trkpt>
      <trkpt lat="48.36305" lon="-4.02997">
        <ele>261</ele>
        <time>2017-01-14T07:45:43Z</time>
      </trkpt>
      <trkpt lat="48.36331" lon="-4.02975">
        <ele>263</ele>
        <time>2017-01-14T07:47:43Z</time>
      </trkpt>
      <trkpt lat="48.36381" lon="-4.02936">
        <ele>267</ele>
        <time>2017-01-14T07:49:43Z</time>
      </trkpt>
      <trkpt lat="48.36406" lon="-4.02915">
        <ele>269</ele>
        <time>2017-01-14T07:51:43Z</time>
      </trkpt>
      <trkpt lat="48.36433" lon="-4.02891">
        <ele>271</ele>
        <time>2017-01-14T07:53:43Z</time>
      </trkpt>
      <trkpt lat="48.36456" lon="-4.0287">
        <ele>273</ele>
        <time>2017-01-14T07:55:43Z</time>
      </trkpt>
      <trkpt lat="48.36477" lon="-4.02854">
        <ele>274</ele>
        <time>2017-01-14T07:57:43Z</time>
      </trkpt>
      <trkpt lat="48.36499" lon="-4.02833">
        <ele>275</ele>
        <time>2017-01-14T07:59:43Z</time>
      </trkpt>
      <trkpt lat="48.365" lon="-4.02831">
        <ele>275</ele>
        <time>2017-01-14T08:01:43Z</time>
      </trkpt>
      <trkpt lat="48.36503" lon="-4.02828">
        <ele>275</ele>
        <time>2017-01-14T08:03:43Z</time>
      </trkpt>
      <trkpt lat="48.36505" lon="-4.02827">
        <ele>275</ele>
        <time>2017-01-14T08:05:43Z</time>
      </trkpt>
      <trkpt lat="48.36518" lon="-4.02817">
        <ele>275</ele>
        <time>2017-01-14T08:07:43Z</time>
      </trkpt>
      <trkpt lat="48.36546" lon="-4.02788">
        <ele>276</ele>
        <time>2017-01-14T08:09:43Z</time>
      </trkpt>
      <trkpt lat="48.36557" lon="-4.02774">
        <ele>277</ele>
        <time>2017-01-14T08:11:43Z</time>
      </trkpt>
      <trkpt lat="48.3656" lon="-4.02773">
        <ele>277</ele>
        <time>2017-01-14T08:13:43Z</time>
      </trkpt>
      <trkpt lat="48.36582" lon="-4.02735">
        <ele>279</ele>
        <time>2017-01-14T08:15:43Z</time>
      </trkpt>
      <trkpt lat="48.36596" lon="-4.02703">
        <ele>278</ele>
        <time>2017-01-14T08:17:43Z</time>
      </trkpt>
      <trkpt lat="48.36614" lon="-4.02667">
        <ele>275</ele>
        <time>2017-01-14T08:19:43Z</time>
      </trkpt>
      <trkpt lat="48.36631" lon="-4.02635">
        <ele>271</ele>
        <time>2017-01-14T08:21:43Z</time>
      </trkpt>
      <trkpt lat="48.36648" lon="-4.02606">
        <ele>267</ele>
        <time>2017-01-14T08:23:43Z</time>
      </trkpt>
      <trkpt lat="48.36657" lon="-4.02572">
        <ele>265</ele>
        <time>2017-01-14T08:25:43Z</time>
      </trkpt>
      <trkpt lat="48.36674" lon="-4.02536">
        <ele>260</ele>
        <time>2017-01-14T08:27:43Z</time>
      </trkpt>
      <trkpt lat="48.36711" lon="-4.02488">
        <ele>254</ele>
        <time>2017-01-14T08:29:43Z</time>
      </trkpt>
      <trkpt lat="48.36731" lon="-4.02463">
        <ele>252</ele>
        <time>2017-01-14T08:31:43Z</time>
      </trkpt>
      <trkpt lat="48.36762" lon="-4.02421">
        <ele>248</ele>
        <time>2017-01-14T08:33:43Z</time>
      </trkpt>
      <trkpt lat="48.36782" lon="-4.02391">
        <ele>246</ele>
        <time>2017-01-14T08:35:43Z</time>
      </trkpt>
      <trkpt lat="48.36783" lon="-4.02388">
        <ele>246</ele>
        <time>2017-01-14T08:37:43Z</time>
      </trkpt>
      <trkpt lat="48.36802" lon="-4.02367">
        <ele>244</ele>
        <time>2017-01-14T08:39:43Z</time>
      </trkpt>
      <trkpt lat="48.36824" lon="-4.02347">
        <ele>241</ele>
        <time>2017-01-14T08:41:43Z</time>
      </trkpt>
      <trkpt lat="48.36841" lon="-4.02325">
        <ele>240</ele>
        <time>2017-01-14T08:43:43Z</time>
      </trkpt>
      <trkpt lat="48.36858" lon="-4.02306">
        <ele>238</ele>
        <time>2017-01-14T08:45:43Z</time>
      </trkpt>
      <trkpt lat="48.36878" lon="-4.02286">
        <ele>236</ele>
        <time>2017-01-14T08:47:43Z</time>
      </trkpt>
      <trkpt lat="48.36909" lon="-4.02266">
        <ele>231</ele>
        <time>2017-01-14T08:49:43Z</time>
      </trkpt>
      <trkpt lat="48.36931" lon="-4.02253">
        <ele>228</ele>
        <time>2017-01-14T08:51:43Z</time>
      </trkpt>
      <trkpt lat="48.36965" lon="-4.02227">
        <ele>226</ele>
        <time>2017-01-14T08:53:43Z</time>
      </trkpt>
      <trkpt lat="48.36998" lon="-4.02212">
        <ele>222</ele>
        <time>2017-01-14T08:55:43Z</time>
      </trkpt>
      <trkpt lat="48.37024" lon="-4.02194">
        <ele>221</ele>
        <time>2017-01-14T08:57:43Z</time>
      </trkpt>
      <trkpt lat="48.37048" lon="-4.02171">
        <ele>219</ele>
        <time>2017-01-14T08:59:43Z</time>
      </trkpt>
      <trkpt lat="48.37069" lon="-4.02156">
        <ele>217</ele>
        <time>2017-01-14T09:01:43Z</time>
      </trkpt>
      <trkpt lat="48.37094" lon="-4.02134">
        <ele>215</ele>
        <time>2017-01-14T09:03:43Z</time>
      </trkpt>
      <trkpt lat="48.3712" lon="-4.021">
        <ele>215</ele>
        <time>2017-01-14T09:05:43Z</time>
      </trkpt>
      <trkpt lat="48.37145" lon="-4.02068">
        <ele>213</ele>
        <time>2017-01-14T09:07:43Z</time>
      </trkpt>
      <trkpt lat="48.37165" lon="-4.02037">
        <ele>212</ele>
        <time>2017-01-14T09:09:43Z</time>
      </trkpt>
      <trkpt lat="48.3717" lon="-4.02032">
        <ele>212</ele>
        <time>2017-01-14T09:11:43Z</time>
      </trkpt>
      <trkpt lat="48.37172" lon="-4.0203">
        <ele>212</ele>
        <time>2017-01-14T09:13:43Z</time>
      </trkpt>
      <trkpt lat="48.37172" lon="-4.0203">
        <ele>212</ele>
        <time>2017-01-14T09:15:43Z</time>
      </trkpt>
      <trkpt lat="48.37179" lon="-4.02019">
        <ele>212</ele>
        <time>2017-01-14T09:17:43Z</time>
      </trkpt>
      <trkpt lat="48.37199" lon="-4.01987">
        <ele>211</ele>
        <time>2017-01-14T09:19:43Z</time>
      </trkpt>
      <trkpt lat="48.37224" lon="-4.01944">
        <ele>210</ele>
        <time>2017-01-14T09:21:43Z</time>
      </trkpt>
      <trkpt lat="48.37237" lon="-4.01916">
        <ele>210</ele>
        <time>2017-01-14T09:23:43Z</time>
      </trkpt>
      <trkpt lat="48.37249" lon="-4.01918">
        <ele>209</ele>
        <time>2017-01-14T09:25:43Z</time>
      </trkpt>
      <trkpt lat="48.37256" lon="-4.01925">
        <ele>209</ele>
        <time>2017-01-14T09:27:43Z</time>
      </trkpt>
      <trkpt lat="48.37267" lon="-4.01902">
        <ele>209</ele>
        <time>2017-01-14T09:29:43Z</time>
      </trkpt>
      <trkpt lat="48.37276" lon="-4.01869">
        <ele>210</ele>
        <time>2017-01-14T09:31:43Z</time>
      </trkpt>
      <trkpt lat="48.37291" lon="-4.01837">
        <ele>211</ele>
        <time>2017-01-14T09:33:43Z</time>
      </trkpt>
      <trkpt lat="48.37294" lon="-4.01832">
        <ele>211</ele>
        <time>2017-01-14T09:35:43Z</time>
      </trkpt>
      <trkpt lat="48.37299" lon="-4.01832">
        <ele>211</ele>
        <time>2017-01-14T09:37:43Z</time>
      </trkpt>
      <trkpt lat="48.37327" lon="-4.01828">
        <ele>209</ele>
        <time>2017-01-14T09:39:43Z</time>
      </trkpt>
      <trkpt lat="48.3738" lon="-4.01819">
        <ele>209</ele>
        <time>2017-01-14T09:41:43Z</time>
      </trkpt>
      <trkpt lat="48.37403" lon="-4.01803">
        <ele>208</ele>
        <time>2017-01-14T09:43:43Z</time>
      </trkpt>
      <trkpt lat="48.37445" lon="-4.01759">
        <ele>207</ele>
        <time>2017-01-14T09:45:43Z</time>
      </trkpt>
      <trkpt lat="48.37451" lon="-4.01754">
        <ele>207</ele>
        <time>2017-01-14T09:47:43Z</time>
      </trkpt>
      <trkpt lat="48.37476" lon="-4.01745">
        <ele>207</ele>
        <time>2017-01-14T09:49:43Z</time>
      </trkpt>
      <trkpt lat="48.3748" lon="-4.01743">
        <ele>206</ele>
        <time>2017-01-14T09:51:43Z</time>
      </trkpt>
      <trkpt lat="48.37505" lon="-4.01734">
        <ele>206</ele>
        <time>2017-01-14T09:53:43Z</time>
      </trkpt>
      <trkpt lat="48.37529" lon="-4.01707">
        <ele>204</ele>
        <time>2017-01-14T09:55:43Z</time>
      </trkpt>
      <trkpt lat="48.37555" lon="-4.01668">
        <ele>203</ele>
        <time>2017-01-14T09:57:43Z</time>
      </trkpt>
      <trkpt lat="48.37578" lon="-4.01637">
        <ele>202</ele>
        <time>2017-01-14T09:59:43Z</time>
      </trkpt>
      <trkpt lat="48.37598" lon="-4.01595">
        <ele>202</ele>
        <time>2017-01-14T10:01:43Z</time>
      </trkpt>
      <trkpt lat="48.37624" lon="-4.01606">
        <ele>202</ele>
        <time>2017-01-14T10:03:43Z</time>
      </trkpt>
      <trkpt lat="48.37642" lon="-4.01626">
        <ele>202</ele>
        <time>2017-01-14T10:05:43Z</time>
      </trkpt>
      <trkpt lat="48.37687" lon="-4.01692">
        <ele>204</ele>
        <time>2017-01-14T10:07:43Z</time>
      </trkpt>
      <trkpt lat="48.37717" lon="-4.01723">
        <ele>205</ele>
        <time>2017-01-14T10:09:43Z</time>
      </trkpt>
      <trkpt lat="48.37745" lon="-4.01756">
        <ele>207</ele>
        <time>2017-01-14T10:11:43Z</time>
      </trkpt>
      <trkpt lat="48.37759" lon="-4.0177">
        <ele>208</ele>
        <time>2017-01-14T10:13:43Z</time>
      </trkpt>
      <trkpt lat="48.37792" lon="-4.01809">
        <ele>209</ele>
        <time>2017-01-14T10:15:43Z</time>
      </trkpt>
      <trkpt lat="48.37813" lon="-4.01834">
        <ele>210</ele>
        <time>2017-01-14T10:17:43Z</time>
      </trkpt>
      <trkpt lat="48.37843" lon="-4.01867">
        <ele>213</ele>
        <time>2017-01-14T10:19:43Z</time>
      </trkpt>
      <trkpt lat="48.37873" lon="-4.01902">
        <ele>216</ele>
        <time>2017-01-14T10:21:43Z</time>
      </trkpt>
      <trkpt lat="48.37886" lon="-4.01921">
        <ele>217</ele>
        <time>2017-01-14T10:23:43Z</time>
      </trkpt>
      <trkpt lat="48.37916" lon="-4.01938">
        <ele>219</ele>
        <time>2017-01-14T10:25:43Z</time>
      </trkpt>
      <trkpt lat="48.37961" lon="-4.01945">
        <ele>222</ele>
        <time>2017-01-14T10:27:43Z</time>
      </trkpt>
      <trkpt lat="48.37984" lon="-4.01956">
        <ele>224</ele>
        <time>2017-01-14T10:29:43Z</time>
      </trkpt>
      <trkpt lat="48.38015" lon="-4.01955">
        <ele>225</ele>
        <time>2017-01-14T10:31:43Z</time>
      </trkpt>
      <trkpt lat="48.38053" lon="-4.01957">
        <ele>226</ele>
        <time>2017-01-14T10:33:43Z</time>
      </trkpt>
      <trkpt lat="48.38056" lon="-4.01956">
        <ele>227</ele>
        <time>2017-01-14T10:35:43Z</time>
      </trkpt>
      <trkpt lat="48.38068" lon="-4.01956">
        <ele>227</ele>
        <time>2017-01-14T10:37:43Z</time>
      </trkpt>
      <trkpt lat="48.38078" lon="-4.0196">
        <ele>227</ele>
        <time>2017-01-14T10:39:43Z</time>
      </trkpt>
      <trkpt lat="48.38106" lon="-4.01963">
        <ele>228</ele>
        <time>2017-01-14T10:41:43Z</time>
      </trkpt>
      <trkpt lat="48.38134" lon="-4.01962">
        <ele>229</ele>
        <time>2017-01-14T10:43:43Z</time>
      </trkpt>
      <trkpt lat="48.3816" lon="-4.0197">
        <ele>229</ele>
        <time>2017-01-14T10:45:43Z</time>
      </trkpt>
      <trkpt lat="48.38169" lon="-4.0197">
        <ele>229</ele>
        <time>2017-01-14T10:47:43Z</time>
      </trkpt>
      <trkpt lat="48.38198" lon="-4.01983">
        <ele>228</ele>
        <time>2017-01-14T10:49:43Z</time>
      </trkpt>
      <trkpt lat="48.38227" lon="-4.01985">
        <ele>227</ele>
        <time>2017-01-14T10:51:43Z</time>
      </trkpt>
      <trkpt lat="48.38262" lon="-4.01988">
        <ele>226</ele>
        <time>2017-01-14T10:53:43Z</time>
      </trkpt>
      <trkpt lat="48.38295" lon="-4.02">
        <ele>224</ele>
        <time>2017-01-14T10:55:43Z</time>
      </trkpt>
      <trkpt lat="48.38318" lon="-4.02007">
        <ele>224</ele>
        <time>2017-01-14T10:57:43Z</time>
      </trkpt>
      <trkpt lat="48.38355" lon="-4.02017">
        <ele>222</ele>
        <time>2017-01-14T10:59:43Z</time>
      </trkpt>
      <trkpt lat="48.38374" lon="-4.02023">
        <ele>222</ele>
        <time>2017-01-14T11:01:43Z</time>
      </trkpt>
      <trkpt lat="48.38401" lon="-4.02022">
        <ele>221</ele>
        <time>2017-01-14T11:03:43Z</time>
      </trkpt>
      <trkpt lat="48.38431" lon="-4.02022">
        <ele>220</ele>
        <time>2017-01-14T11:05:43Z</time>
      </trkpt>
      <trkpt lat="48.38449" lon="-4.02023">
        <ele>219</ele>
        <time>2017-01-14T11:07:43Z</time>
      </trkpt>
      <trkpt lat="48.38452" lon="-4.02025">
        <ele>219</ele>
        <time>2017-01-14T11:09:43Z</time>
      </trkpt>
      <trkpt lat="48.38453" lon="-4.02026">
        <ele>219</ele>
        <time>2017-01-14T11:11:43Z</time>
      </trkpt>
      <trkpt lat="48.38473" lon="-4.02032">
        <ele>218</ele>
        <time>2017-01-14T11:13:43Z</time>
      </trkpt>
      <trkpt lat="48.38496" lon="-4.02036">
        <ele>217</ele>
        <time>2017-01-14T11:15:43Z</time>
      </trkpt>
      <trkpt lat="48.38525" lon="-4.02048">
        <ele>215</ele>
        <time>2017-01-14T11:17:43Z</time>
      </trkpt>
      <trkpt lat="48.38544" lon="-4.02062">
        <ele>213</ele>
        <time>2017-01-14T11:19:43Z</time>
      </trkpt>
      <trkpt lat="48.38555" lon="-4.0206">
        <ele>212</ele>
        <time>2017-01-14T11:21:43Z</time>
      </trkpt>
      <trkpt lat="48.38571" lon="-4.02055">
        <ele>211</ele>
        <time>2017-01-14T11:23:43Z</time>
      </trkpt>
      <trkpt lat="48.38605" lon="-4.02035">
        <ele>211</ele>
        <time>2017-01-14T11:25:43Z</time>
      </trkpt>
      <trkpt lat="48.38638" lon="-4.02022">
        <ele>209</ele>
        <time>2017-01-14T11:27:43Z</time>
      </trkpt>
      <trkpt lat="48.38659" lon="-4.02009">
        <ele>208</ele>
        <time>2017-01-14T11:29:43Z</time>
      </trkpt>
      <trkpt lat="48.38682" lon="-4.01992">
        <ele>205</ele>
        <time>2017-01-14T11:31:43Z</time>
      </trkpt>
      <trkpt lat="48.38686" lon="-4.01988">
        <ele>204</ele>
        <time>2017-01-14T11:33:43Z</time>
      </trkpt>
      <trkpt lat="48.38704" lon="-4.01949">
        <ele>200</ele>
        <time>2017-01-14T11:35:43Z</time>
      </trkpt>
      <trkpt lat="48.38707" lon="-4.0194">
        <ele>200</ele>
        <time>2017-01-14T11:37:43Z</time>
      </trkpt>
      <trkpt lat="48.38706" lon="-4.01907">
        <ele>200</ele>
        <time>2017-01-14T11:39:43Z</time>
      </trkpt>
      <trkpt lat="48.38705" lon="-4.01906">
        <ele>200</ele>
        <time>2017-01-14T11:41:43Z</time>
      </trkpt>
      <trkpt lat="48.38709" lon="-4.01871">
        <ele>198</ele>
        <time>2017-01-14T11:43:43Z</time>
      </trkpt>
      <trkpt lat="48.38709" lon="-4.01835">
        <ele>197</ele>
        <time>2017-01-14T11:45:43Z</time>
      </trkpt>
      <trkpt lat="48.38711" lon="-4.01787">
        <ele>195</ele>
        <time>2017-01-14T11:47:43Z</time>
      </trkpt>
      <trkpt lat="48.38716" lon="-4.01762">
        <ele>192</ele>
        <time>2017-01-14T11:49:43Z</time>
      </trkpt>
      <trkpt lat="48.38728" lon="-4.01742">
        <ele>188</ele>
        <time>2017-01-14T11:51:43Z</time>
      </trkpt>
      <trkpt lat="48.38731" lon="-4.01732">
        <ele>187</ele>
        <time>2017-01-14T11:53:43Z</time>
      </trkpt>
      <trkpt lat="48.38739" lon="-4.01726">
        <ele>185</ele>
        <time>2017-01-14T11:55:43Z</time>
      </trkpt>
      <trkpt lat="48.38758" lon="-4.01714">
        <ele>182</ele>
        <time>2017-01-14T11:57:43Z</time>
      </trkpt>
      <trkpt lat="48.3878" lon="-4.01709">
        <ele>180</ele>
        <time>2017-01-14T11:59:43Z</time>
      </trkpt>
      <trkpt lat="48.38796" lon="-4.01699">
        <ele>178</ele>
        <time>2017-01-14T12:01:43Z</time>
      </trkpt>
      <trkpt lat="48.38799" lon="-4.01696">
        <ele>178</ele>
        <time>2017-01-14T12:03:43Z</time>
      </trkpt>
      <trkpt lat="48.38802" lon="-4.01699">
        <ele>177</ele>
        <time>2017-01-14T12:05:43Z</time>
      </trkpt>
      <trkpt lat="48.38809" lon="-4.017">
        <ele>177</ele>
        <time>2017-01-14T12:07:43Z</time>
      </trkpt>
      <trkpt lat="48.38808" lon="-4.01697">
        <ele>177</ele>
        <time>2017-01-14T12:09:43Z</time>
      </trkpt>
      <trkpt lat="48.38812" lon="-4.01696">
        <ele>176</ele>
        <time>2017-01-14T12:11:43Z</time>
      </trkpt>
      <trkpt lat="48.38824" lon="-4.01679">
        <ele>175</ele>
        <time>2017-01-14T12:13:43Z</time>
      </trkpt>
      <trkpt lat="48.38822" lon="-4.01658">
        <ele>175</ele>
        <time>2017-01-14T12:15:43Z</time>
      </trkpt>
      <trkpt lat="48.3882" lon="-4.01626">
        <ele>175</ele>
        <time>2017-01-14T12:17:43Z</time>
      </trkpt>
      <trkpt lat="48.38835" lon="-4.01578">
        <ele>173</ele>
        <time>2017-01-14T12:19:43Z</time>
      </trkpt>
      <trkpt lat="48.38836" lon="-4.01571">
        <ele>173</ele>
        <time>2017-01-14T12:21:43Z</time>
      </trkpt>
      <trkpt lat="48.3884" lon="-4.01546">
        <ele>173</ele>
        <time>2017-01-14T12:23:43Z</time>
      </trkpt>
      <trkpt lat="48.38848" lon="-4.01482">
        <ele>172</ele>
        <time>2017-01-14T12:25:43Z</time>
      </trkpt>
      <trkpt lat="48.38849" lon="-4.01454">
        <ele>172</ele>
        <time>2017-01-14T12:27:43Z</time>
      </trkpt>
      <trkpt lat="48.3885" lon="-4.01398">
        <ele>172</ele>
        <time>2017-01-14T12:29:43Z</time>
      </trkpt>
      <trkpt lat="48.38854" lon="-4.01385">
        <ele>171</ele>
        <time>2017-01-14T12:31:43Z</time>
      </trkpt>
      <trkpt lat="48.3885" lon="-4.0134">
        <ele>171</ele>
        <time>2017-01-14T12:33:43Z</time>
      </trkpt>
      <trkpt lat="48.38855" lon="-4.01294">
        <ele>170</ele>
        <time>2017-01-14T12:35:43Z</time>
      </trkpt>
      <trkpt lat="48.38853" lon="-4.01264">
        <ele>170</ele>
        <time>2017-01-14T12:37:43Z</time>
      </trkpt>
      <trkpt lat="48.38856" lon="-4.01251">
        <ele>170</ele>
        <time>2017-01-14T12:39:43Z</time>
      </trkpt>
      <trkpt lat="48.38856" lon="-4.01249">
        <ele>170</ele>
        <time>2017-01-14T12:41:43Z</time>
      </trkpt>
      <trkpt lat="48.38856" lon="-4.01246">
        <ele>170</ele>
        <time>2017-01-14T12:43:43Z</time>
      </trkpt>
      <trkpt lat="48.38848" lon="-4.0121">
        <ele>171</ele>
        <time>2017-01-14T12:45:43Z</time>
      </trkpt>
      <trkpt lat="48.38837" lon="-4.01206">
        <ele>173</ele>
        <time>2017-01-14T12:47:43Z</time>
      </trkpt>
      <trkpt lat="48.38835" lon="-4.0121">
        <ele>173</ele>
        <time>2017-01-14T12:49:43Z</time>
      </trkpt>
      <trkpt lat="48.38834" lon="-4.01216">
        <ele>173</ele>
        <time>2017-01-14T12:51:43Z</time>
      </trkpt>
      <trkpt lat="48.38824" lon="-4.01216">
        <ele>174</ele>
        <time>2017-01-14T12:53:43Z</time>
      </trkpt>
      <trkpt lat="48.38791" lon="-4.01208">
        <ele>177</ele>
        <time>2017-01-14T12:55:43Z</time>
      </trkpt>
      <trkpt lat="48.38767" lon="-4.01213">
        <ele>179</ele>
        <time>2017-01-14T12:57:43Z</time>
      </trkpt>
      <trkpt lat="48.38764" lon="-4.01203">
        <ele>179</ele>
        <time>2017-01-14T12:59:43Z</time>
      </trkpt>
      <trkpt lat="48.38757" lon="-4.01186">
        <ele>178</ele>
        <time>2017-01-14T13:01:43Z</time>
      </trkpt>
      <trkpt lat="48.38756" lon="-4.01169">
        <ele>178</ele>
        <time>2017-01-14T13:03:43Z</time>
      </trkpt>
      <trkpt lat="48.38759" lon="-4.01166">
        <ele>177</ele>
        <time>2017-01-14T13:05:43Z</time>
      </trkpt>
      <trkpt lat="48.38761" lon="-4.01165">
        <ele>177</ele>
        <time>2017-01-14T13:07:43Z</time>
      </trkpt>
      <trkpt lat="48.38758" lon="-4.01164">
        <ele>177</ele>
        <time>2017-01-14T13:09:43Z</time>
      </trkpt>
      <trkpt lat="48.38757" lon="-4.01162">
        <ele>177</ele>
        <time>2017-01-14T13:11:43Z</time>
      </trkpt>
      <trkpt lat="48.3875" lon="-4.01155">
        <ele>177</ele>
        <time>2017-01-14T13:13:43Z</time>
      </trkpt>
      <trkpt lat="48.3875" lon="-4.01154">
        <ele>177</ele>
        <time>2017-01-14T13:15:43Z</time>
      </trkpt>
      <trkpt lat="48.38751" lon="-4.01159">
        <ele>177</ele>
        <time>2017-01-14T13:17:43Z</time>
      </trkpt>
      <trkpt lat="48.38747" lon="-4.01158">
        <ele>178</ele>
        <time>2017-01-14T13:19:43Z</time>
      </trkpt>
      <trkpt lat="48.38745" lon="-4.0116">
        <ele>179</ele>
        <time>2017-01-14T13:21:43Z</time>
      </trkpt>
      <trkpt lat="48.38746" lon="-4.01157">
        <ele>178</ele>
        <time>2017-01-14T13:23:43Z</time>
      </trkpt>
      <trkpt lat="48.3875" lon="-4.01144">
        <ele>177</ele>
        <time>2017-01-14T13:25:43Z</time>
      </trkpt>
      <trkpt lat="48.38751" lon="-4.01158">
        <ele>177</ele>
        <time>2017-01-14T13:27:43Z</time>
      </trkpt>
      <trkpt lat="48.38751" lon="-4.0116">
        <ele>178</ele>
        <time>2017-01-14T13:29:43Z</time>
      </trkpt>
      <trkpt lat="48.38755" lon="-4.01166">
        <ele>178</ele>
        <time>2017-01-14T13:31:43Z</time>
      </trkpt>
      <trkpt lat="48.38763" lon="-4.01173">
        <ele>177</ele>
        <time>2017-01-14T13:33:43Z</time>
      </trkpt>
      <trkpt lat="48.38762" lon="-4.01173">
        <ele>178</ele>
        <time>2017-01-14T13:35:43Z</time>
      </trkpt>
      <trkpt lat="48.38766" lon="-4.01174">
        <ele>177</ele>
        <time>2017-01-14T13:37:43Z</time>
      </trkpt>
      <trkpt lat="48.38766" lon="-4.01172">
        <ele>177</ele>
        <time>2017-01-14T13:39:43Z</time>
      </trkpt>
      <trkpt lat="48.38763" lon="-4.01173">
        <ele>177</ele>
        <time>2017-01-14T13:41:43Z</time>
      </trkpt>
      <trkpt lat="48.38761" lon="-4.01171">
        <ele>178</ele>
        <time>2017-01-14T13:43:43Z</time>
      </trkpt>
      <trkpt lat="48.38761" lon="-4.01173">
        <ele>178</ele>
        <time>2017-01-14T13:45:43Z</time>
      </trkpt>
      <trkpt lat="48.38761" lon="-4.01173">
        <ele>178</ele>
        <time>2017-01-14T13:47:43Z</time>
      </trkpt>
      <trkpt lat="48.38762" lon="-4.01172">
        <ele>177</ele>
        <time>2017-01-14T13:49:43Z</time>
      </trkpt>
      <trkpt lat="48.38762" lon="-4.01172">
        <ele>177</ele>
        <time>2017-01-14T13:51:43Z</time>
      </trkpt>
      <trkpt lat="48.38761" lon="-4.01171">
        <ele>178</ele>
        <time>2017-01-14T13:53:43Z</time>
      </trkpt>
      <trkpt lat="48.38763" lon="-4.0117">
        <ele>177</ele>
        <time>2017-01-14T13:55:43Z</time>
      </trkpt>
      <trkpt lat="48.3876" lon="-4.01172">
        <ele>178</ele>
        <time>2017-01-14T13:57:43Z</time>
      </trkpt>
      <trkpt lat="48.38762" lon="-4.01168">
        <ele>177</ele>
        <time>2017-01-14T13:59:43Z</time>
      </trkpt>
      <trkpt lat="48.38758" lon="-4.01174">
        <ele>178</ele>
        <time>2017-01-14T14:01:43Z</time>
      </trkpt>
      <trkpt lat="48.38756" lon="-4.01176">
        <ele>178</ele>
        <time>2017-01-14T14:03:43Z</time>
      </trkpt>
      <trkpt lat="48.38754" lon="-4.01167">
        <ele>178</ele>
        <time>2017-01-14T14:05:43Z</time>
      </trkpt>
      <trkpt lat="48.38753" lon="-4.01158">
        <ele>177</ele>
        <time>2017-01-14T14:07:43Z</time>
      </trkpt>
      <trkpt lat="48.38751" lon="-4.01153">
        <ele>177</ele>
        <time>2017-01-14T14:09:43Z</time>
      </trkpt>
      <trkpt lat="48.38753" lon="-4.01161">
        <ele>177</ele>
        <time>2017-01-14T14:11:43Z</time>
      </trkpt>
      <trkpt lat="48.38753" lon="-4.01162">
        <ele>178</ele>
        <time>2017-01-14T14:13:43Z</time>
      </trkpt>
      <trkpt lat="48.38755" lon="-4.01159">
        <ele>177</ele>
        <time>2017-01-14T14:15:43Z</time>
      </trkpt>
      <trkpt lat="48.38753" lon="-4.01153">
        <ele>177</ele>
        <time>2017-01-14T14:17:43Z</time>
      </trkpt>
      <trkpt lat="48.38753" lon="-4.01157">
        <ele>177</ele>
        <time>2017-01-14T14:19:43Z</time>
      </trkpt>
      <trkpt lat="48.38759" lon="-4.01167">
        <ele>177</ele>
        <time>2017-01-14T14:21:43Z</time>
      </trkpt>
      <trkpt lat="48.38764" lon="-4.01172">
        <ele>177</ele>
        <time>2017-01-14T14:23:43Z</time>
      </trkpt>
      <trkpt lat="48.38765" lon="-4.01172">
        <ele>177</ele>
        <time>2017-01-14T14:25:43Z</time>
      </trkpt>
      <trkpt lat="48.38763" lon="-4.01172">
        <ele>177</ele>
        <time>2017-01-14T14:27:43Z</time>
      </trkpt>
      <trkpt lat="48.38762" lon="-4.01172">
        <ele>177</ele>
        <time>2017-01-14T14:29:43Z</time>
      </trkpt>
      <trkpt lat="48.38763" lon="-4.01171">
        <ele>177</ele>
        <time>2017-01-14T14:31:43Z</time>
      </trkpt>
      <trkpt lat="48.38763" lon="-4.01172">
        <ele>177</ele>
        <time>2017-01-14T14:33:43Z</time>
      </trkpt>
      <trkpt lat="48.38764" lon="-4.01172">
        <ele>177</ele>
        <time>2017-01-14T14:35:43Z</time>
      </trkpt>
      <trkpt lat="48.38763" lon="-4.01172">
        <ele>177</ele>
        <time>2017-01-14T14:37:43Z</time>
      </trkpt>
      <trkpt lat="48.38763" lon="-4.01173">
        <ele>177</ele>
        <time>2017-01-14T14:39:43Z</time>
      </trkpt>
      <trkpt lat="48.38763" lon="-4.01173">
        <ele>177</ele>
        <time>2017-01-14T14:41:43Z</time>
      </trkpt>
      <trkpt lat="48.38762" lon="-4.01173">
        <ele>178</ele>
        <time>2017-01-14T14:43:43Z</time>
      </trkpt>
      <trkpt lat="48.38762" lon="-4.01174">
        <ele>178</ele>
        <time>2017-01-14T14:45:43Z</time>
      </trkpt>
      <trkpt lat="48.38762" lon="-4.01175">
        <ele>178</ele>
        <time>2017-01-14T14:47:43Z</time>
      </trkpt>
      <trkpt lat="48.38763" lon="-4.01175">
        <ele>178</ele>
        <time>2017-01-14T14:49:43Z</time>
      </trkpt>
      <trkpt lat="48.38763" lon="-4.01175">
        <ele>178</ele>
        <time>2017-01-14T14:51:43Z</time>
      </trkpt>
      <trkpt lat="48.38763" lon="-4.01175">
        <ele>178</ele>
        <time>2017-01-14T14:53:43Z</time>
      </trkpt>
      <trkpt lat="48.38763" lon="-4.01175">
        <ele>178</ele>
        <time>2017-01-14T14:55:43Z</time>
      </trkpt>
      <trkpt lat="48.38763" lon="-4.01176">
        <ele>178</ele>
        <time>2017-01-14T14:57:43Z</time>
      </trkpt>
      <trkpt lat="48.38764" lon="-4.01175">
        <ele>177</ele>
        <time>2017-01-14T14:59:43Z</time>
      </trkpt>
      <trkpt lat="48.38751" lon="-4.0116">
        <ele>178</ele>
        <time>2017-01-14T15:01:43Z</time>
      </trkpt>
      <trkpt lat="48.38751" lon="-4.01159">
        <ele>177</ele>
        <time>2017-01-14T15:03:43Z</time>
      </trkpt>
      <trkpt lat="48.3875" lon="-4.0116">
        <ele>178</ele>
        <time>2017-01-14T15:05:43Z</time>
      </trkpt>
      <trkpt lat="48.3875" lon="-4.0116">
        <ele>178</ele>
        <time>2017-01-14T15:07:43Z</time>
      </trkpt>
      <trkpt lat="48.38755" lon="-4.01164">
        <ele>178</ele>
        <time>2017-01-14T15:09:43Z</time>
      </trkpt>
      <trkpt lat="48.38757" lon="-4.01167">
        <ele>178</ele>
        <time>2017-01-14T15:11:43Z</time>
      </trkpt>
      <trkpt lat="48.38766" lon="-4.01175">
        <ele>177</ele>
        <time>2017-01-14T15:13:43Z</time>
      </trkpt>
      <trkpt lat="48.38766" lon="-4.01176">
        <ele>177</ele>
        <time>2017-01-14T15:15:43Z</time>
      </trkpt>
      <trkpt lat="48.38766" lon="-4.01177">
        <ele>177</ele>
        <time>2017-01-14T15:17:43Z</time>
      </trkpt>
      <trkpt lat="48.38766" lon="-4.01178">
        <ele>177</ele>
        <time>2017-01-14T15:19:43Z</time>
      </trkpt>
      <trkpt lat="48.38767" lon="-4.01178">
        <ele>177</ele>
        <time>2017-01-14T15:21:43Z</time>
      </trkpt>
      <trkpt lat="48.38767" lon="-4.01178">
        <ele>177</ele>
        <time>2017-01-14T15:23:43Z</time>
      </trkpt>
      <trkpt lat="48.38767" lon="-4.01179">
        <ele>177</ele>
        <time>2017-01-14T15:25:43Z</time>
      </trkpt>
      <trkpt lat="48.38768" lon="-4.01178">
        <ele>177</ele>
        <time>2017-01-14T15:27:43Z</time>
      </trkpt>
      <trkpt lat="48.38767" lon="-4.01177">
        <ele>177</ele>
        <time>2017-01-14T15:29:43Z</time>
      </trkpt>
      <trkpt lat="48.38766" lon="-4.01178">
        <ele>177</ele>
        <time>2017-01-14T15:31:43Z</time>
      </trkpt>
      <trkpt lat="48.38766" lon="-4.01177">
        <ele>177</ele>
        <time>2017-01-14T15:33:43Z</time>
      </trkpt>
      <trkpt lat="48.38766" lon="-4.01178">
        <ele>177</ele>
        <time>2017-01-14T15:35:43Z</time>
      </trkpt>
      <trkpt lat="48.38767" lon="-4.01177">
        <ele>177</ele>
        <time>2017-01-14T15:37:43Z</time>
      </trkpt>
      <trkpt lat="48.38766" lon="-4.01178">
        <ele>177</ele>
        <time>2017-01-14T15:39:43Z</time>
      </trkpt>
      <trkpt lat="48.38765" lon="-4.01179">
        <ele>178</ele>
        <time>2017-01-14T15:41:43Z</time>
      </trkpt>
      <trkpt lat="48.38765" lon="-4.01179">
        <ele>178</ele>
        <time>2017-01-14T15:43:43Z</time>
      </trkpt>
      <trkpt lat="48.38764" lon="-4.01179">
        <ele>178</ele>
        <time>2017-01-14T15:45:43Z</time>
      </trkpt>
      <trkpt lat="48.38765" lon="-4.01179">
        <ele>178</ele>
        <time>2017-01-14T15:47:43Z</time>
      </trkpt>
      <trkpt lat="48.38765" lon="-4.01179">
        <ele>178</ele>
        <time>2017-01-14T15:49:43Z</time>
      </trkpt>
      <trkpt lat="48.38767" lon="-4.01179">
        <ele>177</ele>
        <time>2017-01-14T15:51:43Z</time>
      </trkpt>
      <trkpt lat="48.38768" lon="-4.01177">
        <ele>177</ele>
        <time>2017-01-14T15:53:43Z</time>
      </trkpt>
      <trkpt lat="48.38768" lon="-4.01177">
        <ele>177</ele>
        <time>2017-01-14T15:55:43Z</time>
      </trkpt>
      <trkpt lat="48.38768" lon="-4.01177">
        <ele>177</ele>
        <time>2017-01-14T15:57:43Z</time>
      </trkpt>
      <trkpt lat="48.38768" lon="-4.01176">
        <ele>177</ele>
        <time>2017-01-14T15:59:43Z</time>
      </trkpt>
      <trkpt lat="48.38768" lon="-4.01176">
        <ele>177</ele>
        <time>2017-01-14T16:01:43Z</time>
      </trkpt>
      <trkpt lat="48.38768" lon="-4.01177">
        <ele>177</ele>
        <time>2017-01-14T16:03:43Z</time>
      </trkpt>
      <trkpt lat="48.38769" lon="-4.01177">
        <ele>177</ele>
        <time>2017-01-14T16:05:43Z</time>
      </trkpt>
      <trkpt lat="48.38768" lon="-4.01177">
        <ele>177</ele>
        <time>2017-01-14T16:07:43Z</time>
      </trkpt>
      <trkpt lat="48.38769" lon="-4.01176">
        <ele>177</ele>
        <time>2017-01-14T16:09:43Z</time>
      </trkpt>
      <trkpt lat="48.38769" lon="-4.01177">
        <ele>177</ele>
        <time>2017-01-14T16:11:43Z</time>
      </trkpt>
      <trkpt lat="48.3877" lon="-4.01178">
        <ele>177</ele>
        <time>2017-01-14T16:13:43Z</time>
      </trkpt>
      <trkpt lat="48.38769" lon="-4.01178">
        <ele>177</ele>
        <time>2017-01-14T16:15:43Z</time>
      </trkpt>
      <trkpt lat="48.38768" lon="-4.01179">
        <ele>177</ele>
        <time>2017-01-14T16:17:43Z</time>
      </trkpt>
      <trkpt lat="48.38767" lon="-4.0118">
        <ele>177</ele>
        <time>2017-01-14T16:19:43Z</time>
      </trkpt>
      <trkpt lat="48.38767" lon="-4.01178">
        <ele>177</ele>
        <time>2017-01-14T16:21:43Z</time>
      </trkpt>
      <trkpt lat="48.38768" lon="-4.01178">
        <ele>177</ele>
        <time>2017-01-14T16:23:43Z</time>
      </trkpt>
      <trkpt lat="48.38769" lon="-4.01176">
        <ele>177</ele>
        <time>2017-01-14T16:25:43Z</time>
      </trkpt>
      <trkpt lat="48.38769" lon="-4.01175">
        <ele>177</ele>
        <time>2017-01-14T16:27:43Z</time>
      </trkpt>
      <trkpt lat="48.38769" lon="-4.01175">
        <ele>177</ele>
        <time>2017-01-14T16:29:43Z</time>
      </trkpt>
      <trkpt lat="48.38769" lon="-4.01177">
        <ele>177</ele>
        <time>2017-01-14T16:31:43Z</time>
      </trkpt>
      <trkpt lat="48.38769" lon="-4.01176">
        <ele>177</ele>
        <time>2017-01-14T16:33:43Z</time>
      </trkpt>
      <trkpt lat="48.38769" lon="-4.01176">
        <ele>177</ele>
        <time>2017-01-14T16:35:43Z</time>
      </trkpt>
      <trkpt lat="48.38768" lon="-4.01176">
        <ele>177</ele>
        <time>2017-01-14T16:37:43Z</time>
      </trkpt>
      <trkpt lat="48.38768" lon="-4.01176">
        <ele>177</ele>
        <time>2017-01-14T16:39:43Z</time>
      </trkpt>
      <trkpt lat="48.38768" lon="-4.01176">
        <ele>177</ele>
        <time>2017-01-14T16:41:43Z</time>
      </trkpt>
      <trkpt lat="48.38768" lon="-4.01178">
        <ele>177</ele>
        <time>2017-01-14T16:43:43Z</time>
      </trkpt>
      <trkpt lat="48.38768" lon="-4.01177">
        <ele>177</ele>
        <time>2017-01-14T16:45:43Z</time>
      </trkpt>
      <trkpt lat="48.38768" lon="-4.01176">
        <ele>177</ele>
        <time>2017-01-14T16:47:43Z</time>
      </trkpt>
      <trkpt lat="48.38769" lon="-4.01176">
        <ele>177</ele>
        <time>2017-01-14T16:49:43Z</time>
      </trkpt>
      <trkpt lat="48.38768" lon="-4.01176">
        <ele>177</ele>
        <time>2017-01-14T16:51:43Z</time>
      </trkpt>
      <trkpt lat="48.38769" lon="-4.01176">
        <ele>177</ele>
        <time>2017-01-14T16:53:43Z</time>
      </trkpt>
      <trkpt lat="48.38769" lon="-4.01176">
        <ele>177</ele>
        <time>2017-01-14T16:55:43Z</time>
      </trkpt>
      <trkpt lat="48.38769" lon="-4.01176">
        <ele>177</ele>
        <time>2017-01-14T16:57:43Z</time>
      </trkpt>
      <trkpt lat="48.38768" lon="-4.01176">
        <ele>177</ele>
        <time>2017-01-14T16:59:43Z</time>
      </trkpt>
      <trkpt lat="48.38768" lon="-4.01177">
        <ele>177</ele>
        <time>2017-01-14T17:01:43Z</time>
      </trkpt>
      <trkpt lat="48.38767" lon="-4.01178">
        <ele>177</ele>
        <time>2017-01-14T17:03:43Z</time>
      </trkpt>
      <trkpt lat="48.38767" lon="-4.01177">
        <ele>177</ele>
        <time>2017-01-14T17:05:43Z</time>
      </trkpt>
      <trkpt lat="48.38766" lon="-4.01177">
        <ele>177</ele>
        <time>2017-01-14T17:07:43Z</time>
      </trkpt>
      <trkpt lat="48.38766" lon="-4.01179">
        <ele>178</ele>
        <time>2017-01-14T17:09:43Z</time>
      </trkpt>
      <trkpt lat="48.38766" lon="-4.01178">
        <ele>177</ele>
        <time>2017-01-14T17:11:43Z</time>
      </trkpt>
      <trkpt lat="48.38766" lon="-4.01179">
        <ele>178</ele>
        <time>2017-01-14T17:13:43Z</time>
      </trkpt>
      <trkpt lat="48.38767" lon="-4.01177">
        <ele>177</ele>
        <time>2017-01-14T17:15:43Z</time>
      </trkpt>
      <trkpt lat="48.38767" lon="-4.01178">
        <ele>177</ele>
        <time>2017-01-14T17:17:43Z</time>
      </trkpt>
      <trkpt lat="48.38763" lon="-4.01164">
        <ele>177</ele>
        <time>2017-01-14T17:19:43Z</time>
      </trkpt>
      <trkpt lat="48.38759" lon="-4.01152">
        <ele>177</ele>
        <time>2017-01-14T17:21:43Z</time>
      </trkpt>
      <trkpt lat="48.38757" lon="-4.01156">
        <ele>177</ele>
        <time>2017-01-14T17:23:43Z</time>
      </trkpt>
      <trkpt lat="48.38758" lon="-4.01157">
        <ele>177</ele>
        <time>2017-01-14T17:25:43Z</time>
      </trkpt>
      <trkpt lat="48.38758" lon="-4.01156">
        <ele>177</ele>
        <time>2017-01-14T17:27:43Z</time>
      </trkpt>
      <trkpt lat="48.38758" lon="-4.01153">
        <ele>177</ele>
        <time>2017-01-14T17:29:43Z</time>
      </trkpt>
      <trkpt lat="48.38756" lon="-4.01153">
        <ele>177</ele>
        <time>2017-01-14T17:31:43Z</time>
      </trkpt>
      <trkpt lat="48.38757" lon="-4.01157">
        <ele>177</ele>
        <time>2017-01-14T17:33:43Z</time>
      </trkpt>
      <trkpt lat="48.38757" lon="-4.01159">
        <ele>177</ele>
        <time>2017-01-14T17:35:43Z</time>
      </trkpt>
      <trkpt lat="48.38757" lon="-4.0116">
        <ele>177</ele>
        <time>2017-01-14T17:37:43Z</time>
      </trkpt>
      <trkpt lat="48.38758" lon="-4.0116">
        <ele>177</ele>
        <time>2017-01-14T17:39:43Z</time>
      </trkpt>
      <trkpt lat="48.38758" lon="-4.01164">
        <ele>177</ele>
        <time>2017-01-14T17:41:43Z</time>
      </trkpt>
      <trkpt lat="48.38763" lon="-4.01172">
        <ele>177</ele>
        <time>2017-01-14T17:43:43Z</time>
      </trkpt>
      <trkpt lat="48.38764" lon="-4.0118">
        <ele>178</ele>
        <time>2017-01-14T17:45:43Z</time>
      </trkpt>
      <trkpt lat="48.38764" lon="-4.0119">
        <ele>178</ele>
        <time>2017-01-14T17:47:43Z</time>
      </trkpt>
      <trkpt lat="48.38772" lon="-4.01167">
        <ele>177</ele>
        <time>2017-01-14T17:49:43Z</time>
      </trkpt>
      <trkpt lat="48.38774" lon="-4.01144">
        <ele>175</ele>
        <time>2017-01-14T17:51:43Z</time>
      </trkpt>
      <trkpt lat="48.3878" lon="-4.01109">
        <ele>173</ele>
        <time>2017-01-14T17:53:43Z</time>
      </trkpt>
      <trkpt lat="48.38772" lon="-4.01065">
        <ele>170</ele>
        <time>2017-01-14T17:55:43Z</time>
      </trkpt>
      <trkpt lat="48.38769" lon="-4.01049">
        <ele>169</ele>
        <time>2017-01-14T17:57:43Z</time>
      </trkpt>
      <trkpt lat="48.38764" lon="-4.01041">
        <ele>168</ele>
        <time>2017-01-14T17:59:43Z</time>
      </trkpt>
      <trkpt lat="48.38752" lon="-4.01013">
        <ele>165</ele>
        <time>2017-01-14T18:01:43Z</time>
      </trkpt>
      <trkpt lat="48.38756" lon="-4.00996">
        <ele>163</ele>
        <time>2017-01-14T18:03:43Z</time>
      </trkpt>
      <trkpt lat="48.38753" lon="-4.00977">
        <ele>160</ele>
        <time>2017-01-14T18:05:43Z</time>
      </trkpt>
      <trkpt lat="48.38754" lon="-4.00973">
        <ele>160</ele>
        <time>2017-01-14T18:07:43Z</time>
      </trkpt>
      <trkpt lat="48.38755" lon="-4.00973">
        <ele>160</ele>
        <time>2017-01-14T18:09:43Z</time>
      </trkpt>
      <trkpt lat="48.38756" lon="-4.00976">
        <ele>160</ele>
        <time>2017-01-14T18:11:43Z</time>
      </trkpt>
      <trkpt lat="48.38751" lon="-4.00976">
        <ele>160</ele>
        <time>2017-01-14T18:13:43Z</time>
      </trkpt>
      <trkpt lat="48.38746" lon="-4.00974">
        <ele>160</ele>
        <time>2017-01-14T18:15:43Z</time>
      </trkpt>
      <trkpt lat="48.38733" lon="-4.00982">
        <ele>163</ele>
        <time>2017-01-14T18:17:43Z</time>
      </trkpt>
      <trkpt lat="48.38713" lon="-4.00977">
        <ele>165</ele>
        <time>2017-01-14T18:19:43Z</time>
      </trkpt>
      <trkpt lat="48.38701" lon="-4.00965">
        <ele>165</ele>
        <time>2017-01-14T18:21:43Z</time>
      </trkpt>
      <trkpt lat="48.38684" lon="-4.00961">
        <ele>166</ele>
        <time>2017-01-14T18:23:43Z</time>
      </trkpt>
      <trkpt lat="48.38694" lon="-4.00975">
        <ele>168</ele>
        <time>2017-01-14T18:25:43Z</time>
      </trkpt>
      <trkpt lat="48.38689" lon="-4.00969">
        <ele>167</ele>
        <time>2017-01-14T18:27:43Z</time>
      </trkpt>
      <trkpt lat="48.38687" lon="-4.00965">
        <ele>167</ele>
        <time>2017-01-14T18:29:43Z</time>
      </trkpt>
      <trkpt lat="48.38684" lon="-4.00964">
        <ele>167</ele>
        <time>2017-01-14T18:31:43Z</time>
      </trkpt>
      <trkpt lat="48.38682" lon="-4.00963">
        <ele>167</ele>
        <time>2017-01-14T18:33:43Z</time>
      </trkpt>
      <trkpt lat="48.3865" lon="-4.00948">
        <ele>168</ele>
        <time>2017-01-14T18:35:43Z</time>
      </trkpt>
      <trkpt lat="48.38624" lon="-4.00942">
        <ele>169</ele>
        <time>2017-01-14T18:37:43Z</time>
      </trkpt>
      <trkpt lat="48.38605" lon="-4.00935">
        <ele>170</ele>
        <time>2017-01-14T18:39:43Z</time>
      </trkpt>
      <trkpt lat="48.38583" lon="-4.00921">
        <ele>170</ele>
        <time>2017-01-14T18:41:43Z</time>
      </trkpt>
      <trkpt lat="48.38544" lon="-4.00909">
        <ele>171</ele>
        <time>2017-01-14T18:43:43Z</time>
      </trkpt>
      <trkpt lat="48.38543" lon="-4.0091">
        <ele>172</ele>
        <time>2017-01-14T18:45:43Z</time>
      </trkpt>
      <trkpt lat="48.38519" lon="-4.00903">
        <ele>173</ele>
        <time>2017-01-14T18:47:43Z</time>
      </trkpt>
      <trkpt lat="48.38497" lon="-4.00899">
        <ele>174</ele>
        <time>2017-01-14T18:49:43Z</time>
      </trkpt>
      <trkpt lat="48.38478" lon="-4.00893">
        <ele>174</ele>
        <time>2017-01-14T18:51:43Z</time>
      </trkpt>
      <trkpt lat="48.38461" lon="-4.00892">
        <ele>175</ele>
        <time>2017-01-14T18:53:43Z</time>
      </trkpt>
      <trkpt lat="48.3844" lon="-4.00894">
        <ele>176</ele>
        <time>2017-01-14T18:55:43Z</time>
      </trkpt>
      <trkpt lat="48.38414" lon="-4.00898">
        <ele>177</ele>
        <time>2017-01-14T18:57:43Z</time>
      </trkpt>
      <trkpt lat="48.38386" lon="-4.00909">
        <ele>177</ele>
        <time>2017-01-14T18:59:43Z</time>
      </trkpt>
      <trkpt lat="48.38358" lon="-4.00924">
        <ele>176</ele>
        <time>2017-01-14T19:01:43Z</time>
      </trkpt>
      <trkpt lat="48.38333" lon="-4.00939">
        <ele>177</ele>
        <time>2017-01-14T19:03:43Z</time>
      </trkpt>
      <trkpt lat="48.3831" lon="-4.00952">
        <ele>178</ele>
        <time>2017-01-14T19:05:43Z</time>
      </trkpt>
      <trkpt lat="48.38284" lon="-4.00967">
        <ele>179</ele>
        <time>2017-01-14T19:07:43Z</time>
      </trkpt>
      <trkpt lat="48.38263" lon="-4.0098">
        <ele>179</ele>
        <time>2017-01-14T19:09:43Z</time>
      </trkpt>
      <trkpt lat="48.38242" lon="-4.00988">
        <ele>179</ele>
        <time>2017-01-14T19:11:43Z</time>
      </trkpt>
      <trkpt lat="48.38218" lon="-4.00987">
        <ele>179</ele>
        <time>2017-01-14T19:13:43Z</time>
      </trkpt>
      <trkpt lat="48.38194" lon="-4.00987">
        <ele>178</ele>
        <time>2017-01-14T19:15:43Z</time>
      </trkpt>
      <trkpt lat="48.38173" lon="-4.00988">
        <ele>178</ele>
        <time>2017-01-14T19:17:43Z</time>
      </trkpt>
      <trkpt lat="48.38148" lon="-4.00986">
        <ele>177</ele>
        <time>2017-01-14T19:19:43Z</time>
      </trkpt>
      <trkpt lat="48.38115" lon="-4.00983">
        <ele>177</ele>
        <time>2017-01-14T19:21:43Z</time>
      </trkpt>
      <trkpt lat="48.38095" lon="-4.00972">
        <ele>176</ele>
        <time>2017-01-14T19:23:43Z</time>
      </trkpt>
      <trkpt lat="48.38095" lon="-4.0097">
        <ele>176</ele>
        <time>2017-01-14T19:25:43Z</time>
      </trkpt>
      <trkpt lat="48.38094" lon="-4.00949">
        <ele>175</ele>
        <time>2017-01-14T19:27:43Z</time>
      </trkpt>
      <trkpt lat="48.38112" lon="-4.00927">
        <ele>175</ele>
        <time>2017-01-14T19:29:43Z</time>
      </trkpt>
      <trkpt lat="48.38139" lon="-4.00897">
        <ele>174</ele>
        <time>2017-01-14T19:31:43Z</time>
      </trkpt>
      <trkpt lat="48.38154" lon="-4.00875">
        <ele>173</ele>
        <time>2017-01-14T19:33:43Z</time>
      </trkpt>
      <trkpt lat="48.38174" lon="-4.00843">
        <ele>171</ele>
        <time>2017-01-14T19:35:43Z</time>
      </trkpt>
      <trkpt lat="48.38197" lon="-4.00809">
        <ele>170</ele>
        <time>2017-01-14T19:37:43Z</time>
      </trkpt>
      <trkpt lat="48.38214" lon="-4.00778">
        <ele>168</ele>
        <time>2017-01-14T19:39:43Z</time>
      </trkpt>
      <trkpt lat="48.38234" lon="-4.00735">
        <ele>166</ele>
        <time>2017-01-14T19:41:43Z</time>
      </trkpt>
      <trkpt lat="48.38247" lon="-4.00709">
        <ele>166</ele>
        <time>2017-01-14T19:43:43Z</time>
      </trkpt>
      <trkpt lat="48.38263" lon="-4.00672">
        <ele>165</ele>
        <time>2017-01-14T19:45:43Z</time>
      </trkpt>
      <trkpt lat="48.38277" lon="-4.00627">
        <ele>164</ele>
        <time>2017-01-14T19:47:43Z</time>
      </trkpt>
      <trkpt lat="48.38287" lon="-4.0059">
        <ele>163</ele>
        <time>2017-01-14T19:49:43Z</time>
      </trkpt>
      <trkpt lat="48.38293" lon="-4.00555">
        <ele>162</ele>
        <time>2017-01-14T19:51:43Z</time>
      </trkpt>
      <trkpt lat="48.38302" lon="-4.00512">
        <ele>163</ele>
        <time>2017-01-14T19:53:43Z</time>
      </trkpt>
      <trkpt lat="48.38307" lon="-4.00479">
        <ele>163</ele>
        <time>2017-01-14T19:55:43Z</time>
      </trkpt>
      <trkpt lat="48.38314" lon="-4.00451">
        <ele>163</ele>
        <time>2017-01-14T19:57:43Z</time>
      </trkpt>
      <trkpt lat="48.38321" lon="-4.00417">
        <ele>163</ele>
        <time>2017-01-14T19:59:43Z</time>
      </trkpt>
      <trkpt lat="48.38323" lon="-4.00381">
        <ele>163</ele>
        <time>2017-01-14T20:01:43Z</time>
      </trkpt>
      <trkpt lat="48.38331" lon="-4.00341">
        <ele>163</ele>
        <time>2017-01-14T20:03:43Z</time>
      </trkpt>
      <trkpt lat="48.38335" lon="-4.00329">
        <ele>163</ele>
        <time>2017-01-14T20:05:43Z</time>
      </trkpt>
      <trkpt lat="48.38336" lon="-4.00326">
        <ele>163</ele>
        <time>2017-01-14T20:07:43Z</time>
      </trkpt>
      <trkpt lat="48.38338" lon="-4.00319">
        <ele>163</ele>
        <time>2017-01-14T20:09:43Z</time>
      </trkpt>
      <trkpt lat="48.38339" lon="-4.00312">
        <ele>163</ele>
        <time>2017-01-14T20:11:43Z</time>
      </trkpt>
      <trkpt lat="48.38346" lon="-4.00268">
        <ele>162</ele>
        <time>2017-01-14T20:13:43Z</time>
      </trkpt>
      <trkpt lat="48.38353" lon="-4.00235">
        <ele>162</ele>
        <time>2017-01-14T20:15:43Z</time>
      </trkpt>
      <trkpt lat="48.38354" lon="-4.00224">
        <ele>162</ele>
        <time>2017-01-14T20:17:43Z</time>
      </trkpt>
      <trkpt lat="48.38367" lon="-4.00183">
        <ele>163</ele>
        <time>2017-01-14T20:19:43Z</time>
      </trkpt>
      <trkpt lat="48.3838" lon="-4.00139">
        <ele>164</ele>
        <time>2017-01-14T20:21:43Z</time>
      </trkpt>
      <trkpt lat="48.38399" lon="-4.00099">
        <ele>164</ele>
        <time>2017-01-14T20:23:43Z</time>
      </trkpt>
      <trkpt lat="48.38417" lon="-4.00065">
        <ele>163</ele>
        <time>2017-01-14T20:25:43Z</time>
      </trkpt>
      <trkpt lat="48.38439" lon="-4.00039">
        <ele>163</ele>
        <time>2017-01-14T20:27:43Z</time>
      </trkpt>
      <trkpt lat="48.38458" lon="-4.00017">
        <ele>164</ele>
        <time>2017-01-14T20:29:43Z</time>
      </trkpt>
      <trkpt lat="48.38485" lon="-3.99995">
        <ele>165</ele>
        <time>2017-01-14T20:31:43Z</time>
      </trkpt>
      <trkpt lat="48.38501" lon="-3.9998">
        <ele>165</ele>
        <time>2017-01-14T20:33:43Z</time>
      </trkpt>
      <trkpt lat="48.38527" lon="-3.99961">
        <ele>167</ele>
        <time>2017-01-14T20:35:43Z</time>
      </trkpt>
      <trkpt lat="48.38554" lon="-3.99945">
        <ele>168</ele>
        <time>2017-01-14T20:37:43Z</time>
      </trkpt>
      <trkpt lat="48.38602" lon="-3.9993">
        <ele>173</ele>
        <time>2017-01-14T20:39:43Z</time>
      </trkpt>
      <trkpt lat="48.38605" lon="-3.99929">
        <ele>173</ele>
        <time>2017-01-14T20:41:43Z</time>
      </trkpt>
      <trkpt lat="48.38631" lon="-3.99921">
        <ele>176</ele>
        <time>2017-01-14T20:43:43Z</time>
      </trkpt>
      <trkpt lat="48.38649" lon="-3.99908">
        <ele>179</ele>
        <time>2017-01-14T20:45:43Z</time>
      </trkpt>
      <trkpt lat="48.3865" lon="-3.9991">
        <ele>179</ele>
        <time>2017-01-14T20:47:43Z</time>
      </trkpt>
      <trkpt lat="48.3865" lon="-3.99911">
        <ele>179</ele>
        <time>2017-01-14T20:49:43Z</time>
      </trkpt>
      <trkpt lat="48.38649" lon="-3.9992">
        <ele>179</ele>
        <time>2017-01-14T20:51:43Z</time>
      </trkpt>
      <trkpt lat="48.38637" lon="-3.99973">
        <ele>178</ele>
        <time>2017-01-14T20:53:43Z</time>
      </trkpt>
      <trkpt lat="48.38639" lon="-4.00015">
        <ele>179</ele>
        <time>2017-01-14T20:55:43Z</time>
      </trkpt>
      <trkpt lat="48.38643" lon="-4.00034">
        <ele>180</ele>
        <time>2017-01-14T20:57:43Z</time>
      </trkpt>
      <trkpt lat="48.38639" lon="-4.00073">
        <ele>180</ele>
        <time>2017-01-14T20:59:43Z</time>
      </trkpt>
      <trkpt lat="48.38641" lon="-4.00097">
        <ele>180</ele>
        <time>2017-01-14T21:01:43Z</time>
      </trkpt>
      <trkpt lat="48.38642" lon="-4.00142">
        <ele>180</ele>
        <time>2017-01-14T21:03:43Z</time>
      </trkpt>
      <trkpt lat="48.38641" lon="-4.00147">
        <ele>180</ele>
        <time>2017-01-14T21:05:43Z</time>
      </trkpt>
      <trkpt lat="48.38648" lon="-4.00179">
        <ele>180</ele>
        <time>2017-01-14T21:07:43Z</time>
      </trkpt>
      <trkpt lat="48.38654" lon="-4.00228">
        <ele>179</ele>
        <time>2017-01-14T21:09:43Z</time>
      </trkpt>
      <trkpt lat="48.3866" lon="-4.00269">
        <ele>178</ele>
        <time>2017-01-14T21:11:43Z</time>
      </trkpt>
      <trkpt lat="48.38663" lon="-4.003">
        <ele>176</ele>
        <time>2017-01-14T21:13:43Z</time>
      </trkpt>
      <trkpt lat="48.38674" lon="-4.00341">
        <ele>174</ele>
        <time>2017-01-14T21:15:43Z</time>
      </trkpt>
      <trkpt lat="48.38683" lon="-4.00374">
        <ele>171</ele>
        <time>2017-01-14T21:17:43Z</time>
      </trkpt>
      <trkpt lat="48.387" lon="-4.00411">
        <ele>169</ele>
        <time>2017-01-14T21:19:43Z</time>
      </trkpt>
      <trkpt lat="48.38713" lon="-4.00445">
        <ele>168</ele>
        <time>2017-01-14T21:21:43Z</time>
      </trkpt>
      <trkpt lat="48.3873" lon="-4.00476">
        <ele>166</ele>
        <time>2017-01-14T21:23:43Z</time>
      </trkpt>
      <trkpt lat="48.38749" lon="-4.00503">
        <ele>164</ele>
        <time>2017-01-14T21:25:43Z</time>
      </trkpt>
      <trkpt lat="48.38764" lon="-4.00518">
        <ele>163</ele>
        <time>2017-01-14T21:27:43Z</time>
      </trkpt>
      <trkpt lat="48.38783" lon="-4.0053">
        <ele>162</ele>
        <time>2017-01-14T21:29:43Z</time>
      </trkpt>
      <trkpt lat="48.38799" lon="-4.00546">
        <ele>161</ele>
        <time>2017-01-14T21:31:43Z</time>
      </trkpt>
      <trkpt lat="48.38813" lon="-4.00564">
        <ele>159</ele>
        <time>2017-01-14T21:33:43Z</time>
      </trkpt>
      <trkpt lat="48.38818" lon="-4.0058">
        <ele>158</ele>
        <time>2017-01-14T21:35:43Z</time>
      </trkpt>
      <trkpt lat="48.3882" lon="-4.00591">
        <ele>158</ele>
        <time>2017-01-14T21:37:43Z</time>
      </trkpt>
      <trkpt lat="48.3882" lon="-4.00595">
        <ele>157</ele>
        <time>2017-01-14T21:39:43Z</time>
      </trkpt>
      <trkpt lat="48.38822" lon="-4.0059">
        <ele>158</ele>
        <time>2017-01-14T21:41:43Z</time>
      </trkpt>
      <trkpt lat="48.3882" lon="-4.00583">
        <ele>158</ele>
        <time>2017-01-14T21:43:43Z</time>
      </trkpt>
      <trkpt lat="48.38811" lon="-4.00567">
        <ele>159</ele>
        <time>2017-01-14T21:45:43Z</time>
      </trkpt>
      <trkpt lat="48.3881" lon="-4.00567">
        <ele>159</ele>
        <time>2017-01-14T21:47:43Z</time>
      </trkpt>
      <trkpt lat="48.3881" lon="-4.00567">
        <ele>159</ele>
        <time>2017-01-14T21:49:43Z</time>
      </trkpt>
      <trkpt lat="48.38809" lon="-4.00567">
        <ele>159</ele>
        <time>2017-01-14T21:51:43Z</time>
      </trkpt>
      <trkpt lat="48.3881" lon="-4.00567">
        <ele>159</ele>
        <time>2017-01-14T21:53:43Z</time>
      </trkpt>
      <trkpt lat="48.38811" lon="-4.00567">
        <ele>159</ele>
        <time>2017-01-14T21:55:43Z</time>
      </trkpt>
      <trkpt lat="48.38813" lon="-4.00565">
        <ele>159</ele>
        <time>2017-01-14T21:57:43Z</time>
      </trkpt>
      <trkpt lat="48.3883" lon="-4.00532">
        <ele>160</ele>
        <time>2017-01-14T21:59:43Z</time>
      </trkpt>
      <trkpt lat="48.38837" lon="-4.00503">
        <ele>161</ele>
        <time>2017-01-14T22:01:43Z</time>
      </trkpt>
      <trkpt lat="48.3888" lon="-4.0049">
        <ele>157</ele>
        <time>2017-01-14T22:03:43Z</time>
      </trkpt>
      <trkpt lat="48.3889" lon="-4.0047">
        <ele>158</ele>
        <time>2017-01-14T22:05:43Z</time>
      </trkpt>
      <trkpt lat="48.3889" lon="-4.00457">
        <ele>159</ele>
        <time>2017-01-14T22:07:43Z</time>
      </trkpt>
      <trkpt lat="48.38887" lon="-4.00437">
        <ele>161</ele>
        <time>2017-01-14T22:09:43Z</time>
      </trkpt>
      <trkpt lat="48.38887" lon="-4.00436">
        <ele>161</ele>
        <time>2017-01-14T22:11:43Z</time>
      </trkpt>
      <trkpt lat="48.38895" lon="-4.00422">
        <ele>162</ele>
        <time>2017-01-14T22:13:43Z</time>
      </trkpt>
      <trkpt lat="48.38907" lon="-4.00409">
        <ele>162</ele>
        <time>2017-01-14T22:15:43Z</time>
      </trkpt>
      <trkpt lat="48.38933" lon="-4.00389">
        <ele>161</ele>
        <time>2017-01-14T22:17:43Z</time>
      </trkpt>
      <trkpt lat="48.38939" lon="-4.00366">
        <ele>161</ele>
        <time>2017-01-14T22:19:43Z</time>
      </trkpt>
      <trkpt lat="48.38957" lon="-4.00324">
        <ele>160</ele>
        <time>2017-01-14T22:21:43Z</time>
      </trkpt>
      <trkpt lat="48.38957" lon="-4.00321">
        <ele>160</ele>
        <time>2017-01-14T22:23:43Z</time>
      </trkpt>
      <trkpt lat="48.38956" lon="-4.00317">
        <ele>160</ele>
        <time>2017-01-14T22:25:43Z</time>
      </trkpt>
      <trkpt lat="48.38954" lon="-4.00307">
        <ele>160</ele>
        <time>2017-01-14T22:27:43Z</time>
      </trkpt>
      <trkpt lat="48.38954" lon="-4.00304">
        <ele>160</ele>
        <time>2017-01-14T22:29:43Z</time>
      </trkpt>
      <trkpt lat="48.38953" lon="-4.00297">
        <ele>161</ele>
        <time>2017-01-14T22:31:43Z</time>
      </trkpt>
      <trkpt lat="48.38951" lon="-4.00273">
        <ele>161</ele>
        <time>2017-01-14T22:33:43Z</time>
      </trkpt>
      <trkpt lat="48.38942" lon="-4.00226">
        <ele>164</ele>
        <time>2017-01-14T22:35:43Z</time>
      </trkpt>
      <trkpt lat="48.38937" lon="-4.00184">
        <ele>168</ele>
        <time>2017-01-14T22:37:43Z</time>
      </trkpt>
      <trkpt lat="48.38949" lon="-4.00169">
        <ele>167</ele>
        <time>2017-01-14T22:39:43Z</time>
      </trkpt>
      <trkpt lat="48.38957" lon="-4.00148">
        <ele>168</ele>
        <time>2017-01-14T22:41:43Z</time>
      </trkpt>
      <trkpt lat="48.38968" lon="-4.00132">
        <ele>169</ele>
        <time>2017-01-14T22:43:43Z</time>
      </trkpt>
      <trkpt lat="48.38987" lon="-4.00095">
        <ele>170</ele>
        <time>2017-01-14T22:45:43Z</time>
      </trkpt>
      <trkpt lat="48.39016" lon="-4.00063">
        <ele>170</ele>
        <time>2017-01-14T22:47:43Z</time>
      </trkpt>
      <trkpt lat="48.39018" lon="-4.0004">
        <ele>172</ele>
        <time>2017-01-14T22:49:43Z</time>
      </trkpt>
      <trkpt lat="48.38999" lon="-4.00006">
        <ele>178</ele>
        <time>2017-01-14T22:51:43Z</time>
      </trkpt>
      <trkpt lat="48.38988" lon="-3.99975">
        <ele>181</ele>
        <time>2017-01-14T22:53:43Z</time>
      </trkpt>
      <trkpt lat="48.38988" lon="-3.99972">
        <ele>182</ele>
        <time>2017-01-14T22:55:43Z</time>
      </trkpt>
      <trkpt lat="48.38978" lon="-3.99937">
        <ele>184</ele>
        <time>2017-01-14T22:57:43Z</time>
      </trkpt>
      <trkpt lat="48.38967" lon="-3.99899">
        <ele>188</ele>
        <time>2017-01-14T22:59:43Z</time>
      </trkpt>
      <trkpt lat="48.38963" lon="-3.99892">
        <ele>189</ele>
        <time>2017-01-14T23:01:43Z</time>
      </trkpt>
      <trkpt lat="48.38953" lon="-3.99859">
        <ele>193</ele>
        <time>2017-01-14T23:03:43Z</time>
      </trkpt>
      <trkpt lat="48.38946" lon="-3.99831">
        <ele>196</ele>
        <time>2017-01-14T23:05:43Z</time>
      </trkpt>
      <trkpt lat="48.38942" lon="-3.99804">
        <ele>198</ele>
        <time>2017-01-14T23:07:43Z</time>
      </trkpt>
      <trkpt lat="48.38942" lon="-3.99802">
        <ele>198</ele>
        <time>2017-01-14T23:09:43Z</time>
      </trkpt>
      <trkpt lat="48.38935" lon="-3.99774">
        <ele>200</ele>
        <time>2017-01-14T23:11:43Z</time>
      </trkpt>
      <trkpt lat="48.38905" lon="-3.99752">
        <ele>202</ele>
        <time>2017-01-14T23:13:43Z</time>
      </trkpt>
      <trkpt lat="48.38893" lon="-3.99742">
        <ele>202</ele>
        <time>2017-01-14T23:15:43Z</time>
      </trkpt>
      <trkpt lat="48.38891" lon="-3.99741">
        <ele>202</ele>
        <time>2017-01-14T23:17:43Z</time>
      </trkpt>
      <trkpt lat="48.38892" lon="-3.99738">
        <ele>202</ele>
        <time>2017-01-14T23:19:43Z</time>
      </trkpt>
      <trkpt lat="48.38901" lon="-3.99759">
        <ele>201</ele>
        <time>2017-01-14T23:21:43Z</time>
      </trkpt>
      <trkpt lat="48.38882" lon="-3.99787">
        <ele>200</ele>
        <time>2017-01-14T23:23:43Z</time>
      </trkpt>
      <trkpt lat="48.38859" lon="-3.99807">
        <ele>199</ele>
        <time>2017-01-14T23:25:43Z</time>
      </trkpt>
      <trkpt lat="48.38838" lon="-3.99822">
        <ele>199</ele>
        <time>2017-01-14T23:27:43Z</time>
      </trkpt>
      <trkpt lat="48.38804" lon="-3.99849">
        <ele>196</ele>
        <time>2017-01-14T23:29:43Z</time>
      </trkpt>
      <trkpt lat="48.38775" lon="-3.99866">
        <ele>193</ele>
        <time>2017-01-14T23:31:43Z</time>
      </trkpt>
      <trkpt lat="48.38752" lon="-3.9988">
        <ele>191</ele>
        <time>2017-01-14T23:33:43Z</time>
      </trkpt>
      <trkpt lat="48.38737" lon="-3.99883">
        <ele>189</ele>
        <time>2017-01-14T23:35:43Z</time>
      </trkpt>
      <trkpt lat="48.3871" lon="-3.99883">
        <ele>186</ele>
        <time>2017-01-14T23:37:43Z</time>
      </trkpt>
      <trkpt lat="48.38689" lon="-3.99856">
        <ele>183</ele>
        <time>2017-01-14T23:39:43Z</time>
      </trkpt>
      <trkpt lat="48.38681" lon="-3.99838">
        <ele>182</ele>
        <time>2017-01-14T23:41:43Z</time>
      </trkpt>
      <trkpt lat="48.3868" lon="-3.99837">
        <ele>182</ele>
        <time>2017-01-14T23:43:43Z</time>
      </trkpt>
      <trkpt lat="48.38678" lon="-3.99835">
        <ele>182</ele>
        <time>2017-01-14T23:45:43Z</time>
      </trkpt>
      <trkpt lat="48.38678" lon="-3.9983">
        <ele>182</ele>
        <time>2017-01-14T23:47:43Z</time>
      </trkpt>
      <trkpt lat="48.38686" lon="-3.99789">
        <ele>183</ele>
        <time>2017-01-14T23:49:43Z</time>
      </trkpt>
      <trkpt lat="48.38686" lon="-3.9975">
        <ele>183</ele>
        <time>2017-01-14T23:51:43Z</time>
      </trkpt>
      <trkpt lat="48.38686" lon="-3.9971">
        <ele>186</ele>
        <time>2017-01-14T23:53:43Z</time>
      </trkpt>
      <trkpt lat="48.38674" lon="-3.99674">
        <ele>187</ele>
        <time>2017-01-14T23:55:43Z</time>
      </trkpt>
      <trkpt lat="48.38663" lon="-3.99622">
        <ele>189</ele>
        <time>2017-01-14T23:57:43Z</time>
      </trkpt>
      <trkpt lat="48.38645" lon="-3.99583">
        <ele>189</ele>
        <time>2017-01-14T23:59:43Z</time>
      </trkpt>
      <trkpt lat="48.38629" lon="-3.99547">
        <ele>190</ele>
        <time>2017-01-15T00:01:43Z</time>
      </trkpt>
      <trkpt lat="48.38609" lon="-3.99508">
        <ele>190</ele>
        <time>2017-01-15T00:03:43Z</time>
      </trkpt>
      <trkpt lat="48.38596" lon="-3.99463">
        <ele>190</ele>
        <time>2017-01-15T00:05:43Z</time>
      </trkpt>
      <trkpt lat="48.38576" lon="-3.9943">
        <ele>189</ele>
        <time>2017-01-15T00:07:43Z</time>
      </trkpt>
      <trkpt lat="48.38567" lon="-3.99402">
        <ele>190</ele>
        <time>2017-01-15T00:09:43Z</time>
      </trkpt>
      <trkpt lat="48.38565" lon="-3.99374">
        <ele>192</ele>
        <time>2017-01-15T00:11:43Z</time>
      </trkpt>
      <trkpt lat="48.38537" lon="-3.99329">
        <ele>193</ele>
        <time>2017-01-15T00:13:43Z</time>
      </trkpt>
      <trkpt lat="48.38527" lon="-3.99314">
        <ele>193</ele>
        <time>2017-01-15T00:15:43Z</time>
      </trkpt>
      <trkpt lat="48.38499" lon="-3.99288">
        <ele>193</ele>
        <time>2017-01-15T00:17:43Z</time>
      </trkpt>
      <trkpt lat="48.38484" lon="-3.99236">
        <ele>196</ele>
        <time>2017-01-15T00:19:43Z</time>
      </trkpt>
      <trkpt lat="48.38486" lon="-3.99225">
        <ele>197</ele>
        <time>2017-01-15T00:21:43Z</time>
      </trkpt>
      <trkpt lat="48.38471" lon="-3.99195">
        <ele>200</ele>
        <time>2017-01-15T00:23:43Z</time>
      </trkpt>
      <trkpt lat="48.38433" lon="-3.9917">
        <ele>200</ele>
        <time>2017-01-15T00:25:43Z</time>
      </trkpt>
      <trkpt lat="48.38408" lon="-3.99142">
        <ele>201</ele>
        <time>2017-01-15T00:27:43Z</time>
      </trkpt>
      <trkpt lat="48.38396" lon="-3.99111">
        <ele>202</ele>
        <time>2017-01-15T00:29:43Z</time>
      </trkpt>
      <trkpt lat="48.3838" lon="-3.99075">
        <ele>203</ele>
        <time>2017-01-15T00:31:43Z</time>
      </trkpt>
      <trkpt lat="48.38369" lon="-3.99028">
        <ele>206</ele>
        <time>2017-01-15T00:33:43Z</time>
      </trkpt>
      <trkpt lat="48.38349" lon="-3.98991">
        <ele>208</ele>
        <time>2017-01-15T00:35:43Z</time>
      </trkpt>
      <trkpt lat="48.38341" lon="-3.9895">
        <ele>211</ele>
        <time>2017-01-15T00:37:43Z</time>
      </trkpt>
      <trkpt lat="48.38326" lon="-3.98931">
        <ele>211</ele>
        <time>2017-01-15T00:39:43Z</time>
      </trkpt>
      <trkpt lat="48.38321" lon="-3.98928">
        <ele>212</ele>
        <time>2017-01-15T00:41:43Z</time>
      </trkpt>
      <trkpt lat="48.38298" lon="-3.98903">
        <ele>213</ele>
        <time>2017-01-15T00:43:43Z</time>
      </trkpt>
      <trkpt lat="48.38279" lon="-3.98874">
        <ele>216</ele>
        <time>2017-01-15T00:45:43Z</time>
      </trkpt>
      <trkpt lat="48.38262" lon="-3.98853">
        <ele>218</ele>
        <time>2017-01-15T00:47:43Z</time>
      </trkpt>
      <trkpt lat="48.38235" lon="-3.9883">
        <ele>221</ele>
        <time>2017-01-15T00:49:43Z</time>
      </trkpt>
      <trkpt lat="48.38216" lon="-3.98816">
        <ele>223</ele>
        <time>2017-01-15T00:51:43Z</time>
      </trkpt>
      <trkpt lat="48.38196" lon="-3.98796">
        <ele>225</ele>
        <time>2017-01-15T00:53:43Z</time>
      </trkpt>
      <trkpt lat="48.38174" lon="-3.98773">
        <ele>228</ele>
        <time>2017-01-15T00:55:43Z</time>
      </trkpt>
      <trkpt lat="48.38168" lon="-3.98728">
        <ele>232</ele>
        <time>2017-01-15T00:57:43Z</time>
      </trkpt>
      <trkpt lat="48.38157" lon="-3.98698">
        <ele>233</ele>
        <time>2017-01-15T00:59:43Z</time>
      </trkpt>
      <trkpt lat="48.38141" lon="-3.98665">
        <ele>234</ele>
        <time>2017-01-15T01:01:43Z</time>
      </trkpt>
      <trkpt lat="48.38141" lon="-3.98664">
        <ele>234</ele>
        <time>2017-01-15T01:03:43Z</time>
      </trkpt>
      <trkpt lat="48.38136" lon="-3.98653">
        <ele>235</ele>
        <time>2017-01-15T01:05:43Z</time>
      </trkpt>
      <trkpt lat="48.38135" lon="-3.9865">
        <ele>235</ele>
        <time>2017-01-15T01:07:43Z</time>
      </trkpt>
      <trkpt lat="48.38122" lon="-3.98611">
        <ele>239</ele>
        <time>2017-01-15T01:09:43Z</time>
      </trkpt>
      <trkpt lat="48.38113" lon="-3.98586">
        <ele>241</ele>
        <time>2017-01-15T01:11:43Z</time>
      </trkpt>
      <trkpt lat="48.38103" lon="-3.98558">
        <ele>243</ele>
        <time>2017-01-15T01:13:43Z</time>
      </trkpt>
      <trkpt lat="48.38087" lon="-3.98529">
        <ele>246</ele>
        <time>2017-01-15T01:15:43Z</time>
      </trkpt>
      <trkpt lat="48.38082" lon="-3.98523">
        <ele>246</ele>
        <time>2017-01-15T01:17:43Z</time>
      </trkpt>
      <trkpt lat="48.38045" lon="-3.98463">
        <ele>250</ele>
        <time>2017-01-15T01:19:43Z</time>
      </trkpt>
      <trkpt lat="48.38031" lon="-3.98443">
        <ele>251</ele>
        <time>2017-01-15T01:21:43Z</time>
      </trkpt>
      <trkpt lat="48.38017" lon="-3.98418">
        <ele>252</ele>
        <time>2017-01-15T01:23:43Z</time>
      </trkpt>
      <trkpt lat="48.38014" lon="-3.98413">
        <ele>252</ele>
        <time>2017-01-15T01:25:43Z</time>
      </trkpt>
      <trkpt lat="48.38013" lon="-3.9841">
        <ele>253</ele>
        <time>2017-01-15T01:27:43Z</time>
      </trkpt>
      <trkpt lat="48.38011" lon="-3.98379">
        <ele>253</ele>
        <time>2017-01-15T01:29:43Z</time>
      </trkpt>
      <trkpt lat="48.38011" lon="-3.98374">
        <ele>253</ele>
        <time>2017-01-15T01:31:43Z</time>
      </trkpt>
      <trkpt lat="48.38015" lon="-3.9837">
        <ele>254</ele>
        <time>2017-01-15T01:33:43Z</time>
      </trkpt>
      <trkpt lat="48.38045" lon="-3.98354">
        <ele>256</ele>
        <time>2017-01-15T01:35:43Z</time>
      </trkpt>
      <trkpt lat="48.38075" lon="-3.98331">
        <ele>259</ele>
        <time>2017-01-15T01:37:43Z</time>
      </trkpt>
      <trkpt lat="48.38095" lon="-3.98313">
        <ele>261</ele>
        <time>2017-01-15T01:39:43Z</time>
      </trkpt>
      <trkpt lat="48.38117" lon="-3.98292">
        <ele>263</ele>
        <time>2017-01-15T01:41:43Z</time>
      </trkpt>
      <trkpt lat="48.38135" lon="-3.98259">
        <ele>265</ele>
        <time>2017-01-15T01:43:43Z</time>
      </trkpt>
      <trkpt lat="48.38158" lon="-3.98221">
        <ele>268</ele>
        <time>2017-01-15T01:45:43Z</time>
      </trkpt>
      <trkpt lat="48.38174" lon="-3.98194">
        <ele>269</ele>
        <time>2017-01-15T01:47:43Z</time>
      </trkpt>
      <trkpt lat="48.382" lon="-3.98203">
        <ele>270</ele>
        <time>2017-01-15T01:49:43Z</time>
      </trkpt>
      <trkpt lat="48.38239" lon="-3.98217">
        <ele>272</ele>
        <time>2017-01-15T01:51:43Z</time>
      </trkpt>
      <trkpt lat="48.38243" lon="-3.98218">
        <ele>272</ele>
        <time>2017-01-15T01:53:43Z</time>
      </trkpt>
      <trkpt lat="48.38247" lon="-3.9822">
        <ele>272</ele>
        <time>2017-01-15T01:55:43Z</time>
      </trkpt>
      <trkpt lat="48.38272" lon="-3.9822">
        <ele>273</ele>
        <time>2017-01-15T01:57:43Z</time>
      </trkpt>
      <trkpt lat="48.38294" lon="-3.98212">
        <ele>274</ele>
        <time>2017-01-15T01:59:43Z</time>
      </trkpt>
      <trkpt lat="48.38299" lon="-3.9821">
        <ele>274</ele>
        <time>2017-01-15T02:01:43Z</time>
      </trkpt>
      <trkpt lat="48.38315" lon="-3.98177">
        <ele>275</ele>
        <time>2017-01-15T02:03:43Z</time>
      </trkpt>
      <trkpt lat="48.38339" lon="-3.98142">
        <ele>276</ele>
        <time>2017-01-15T02:05:43Z</time>
      </trkpt>
      <trkpt lat="48.38346" lon="-3.981">
        <ele>277</ele>
        <time>2017-01-15T02:07:43Z</time>
      </trkpt>
      <trkpt lat="48.38346" lon="-3.98065">
        <ele>278</ele>
        <time>2017-01-15T02:09:43Z</time>
      </trkpt>
      <trkpt lat="48.3835" lon="-3.98013">
        <ele>278</ele>
        <time>2017-01-15T02:11:43Z</time>
      </trkpt>
      <trkpt lat="48.38357" lon="-3.97973">
        <ele>278</ele>
        <time>2017-01-15T02:13:43Z</time>
      </trkpt>
      <trkpt lat="48.38365" lon="-3.97902">
        <ele>279</ele>
        <time>2017-01-15T02:15:43Z</time>
      </trkpt>
      <trkpt lat="48.38366" lon="-3.97845">
        <ele>281</ele>
        <time>2017-01-15T02:17:43Z</time>
      </trkpt>
      <trkpt lat="48.38363" lon="-3.97814">
        <ele>282</ele>
        <time>2017-01-15T02:19:43Z</time>
      </trkpt>
      <trkpt lat="48.38384" lon="-3.97803">
        <ele>283</ele>
        <time>2017-01-15T02:21:43Z</time>
      </trkpt>
      <trkpt lat="48.38388" lon="-3.97798">
        <ele>283</ele>
        <time>2017-01-15T02:23:43Z</time>
      </trkpt>
      <trkpt lat="48.3838" lon="-3.97767">
        <ele>285</ele>
        <time>2017-01-15T02:25:43Z</time>
      </trkpt>
      <trkpt lat="48.38379" lon="-3.97765">
        <ele>285</ele>
        <time>2017-01-15T02:27:43Z</time>
      </trkpt>
      <trkpt lat="48.38398" lon="-3.97809">
        <ele>283</ele>
        <time>2017-01-15T02:29:43Z</time>
      </trkpt>
      <trkpt lat="48.38412" lon="-3.97829">
        <ele>281</ele>
        <time>2017-01-15T02:31:43Z</time>
      </trkpt>
      <trkpt lat="48.38416" lon="-3.97826">
        <ele>282</ele>
        <time>2017-01-15T02:33:43Z</time>
      </trkpt>
      <trkpt lat="48.38419" lon="-3.97805">
        <ele>283</ele>
        <time>2017-01-15T02:35:43Z</time>
      </trkpt>
      <trkpt lat="48.38422" lon="-3.97796">
        <ele>284</ele>
        <time>2017-01-15T02:37:43Z</time>
      </trkpt>
      <trkpt lat="48.38433" lon="-3.97775">
        <ele>284</ele>
        <time>2017-01-15T02:39:43Z</time>
      </trkpt>
      <trkpt lat="48.38441" lon="-3.97762">
        <ele>285</ele>
        <time>2017-01-15T02:41:43Z</time>
      </trkpt>
      <trkpt lat="48.38441" lon="-3.9776">
        <ele>285</ele>
        <time>2017-01-15T02:43:43Z</time>
      </trkpt>
      <trkpt lat="48.38447" lon="-3.97751">
        <ele>285</ele>
        <time>2017-01-15T02:45:43Z</time>
      </trkpt>
      <trkpt lat="48.38458" lon="-3.97735">
        <ele>286</ele>
        <time>2017-01-15T02:47:43Z</time>
      </trkpt>
      <trkpt lat="48.38472" lon="-3.97715">
        <ele>287</ele>
        <time>2017-01-15T02:49:43Z</time>
      </trkpt>
      <trkpt lat="48.38487" lon="-3.9768">
        <ele>291</ele>
        <time>2017-01-15T02:51:43Z</time>
      </trkpt>
      <trkpt lat="48.38501" lon="-3.97634">
        <ele>294</ele>
        <time>2017-01-15T02:53:43Z</time>
      </trkpt>
      <trkpt lat="48.38519" lon="-3.97572">
        <ele>294</ele>
        <time>2017-01-15T02:55:43Z</time>
      </trkpt>
      <trkpt lat="48.38521" lon="-3.97569">
        <ele>294</ele>
        <time>2017-01-15T02:57:43Z</time>
      </trkpt>
      <trkpt lat="48.38537" lon="-3.97516">
        <ele>296</ele>
        <time>2017-01-15T02:59:43Z</time>
      </trkpt>
      <trkpt lat="48.38558" lon="-3.97433">
        <ele>301</ele>
        <time>2017-01-15T03:01:43Z</time>
      </trkpt>
      <trkpt lat="48.38569" lon="-3.97401">
        <ele>302</ele>
        <time>2017-01-15T03:03:43Z</time>
      </trkpt>
      <trkpt lat="48.3857" lon="-3.97396">
        <ele>302</ele>
        <time>2017-01-15T03:05:43Z</time>
      </trkpt>
      <trkpt lat="48.3857" lon="-3.97383">
        <ele>303</ele>
        <time>2017-01-15T03:07:43Z</time>
      </trkpt>
      <trkpt lat="48.38569" lon="-3.97372">
        <ele>303</ele>
        <time>2017-01-15T03:09:43Z</time>
      </trkpt>
      <trkpt lat="48.38565" lon="-3.97351">
        <ele>304</ele>
        <time>2017-01-15T03:11:43Z</time>
      </trkpt>
      <trkpt lat="48.38537" lon="-3.97221">
        <ele>308</ele>
        <time>2017-01-15T03:13:43Z</time>
      </trkpt>
      <trkpt lat="48.38542" lon="-3.97141">
        <ele>311</ele>
        <time>2017-01-15T03:15:43Z</time>
      </trkpt>
      <trkpt lat="48.38546" lon="-3.97094">
        <ele>312</ele>
        <time>2017-01-15T03:17:43Z</time>
      </trkpt>
      <trkpt lat="48.38552" lon="-3.97061">
        <ele>313</ele>
        <time>2017-01-15T03:19:43Z</time>
      </trkpt>
      <trkpt lat="48.38552" lon="-3.97025">
        <ele>314</ele>
        <time>2017-01-15T03:21:43Z</time>
      </trkpt>
      <trkpt lat="48.38548" lon="-3.96985">
        <ele>316</ele>
        <time>2017-01-15T03:23:43Z</time>
      </trkpt>
      <trkpt lat="48.38542" lon="-3.96944">
        <ele>317</ele>
        <time>2017-01-15T03:25:43Z</time>
      </trkpt>
      <trkpt lat="48.38549" lon="-3.96913">
        <ele>319</ele>
        <time>2017-01-15T03:27:43Z</time>
      </trkpt>
      <trkpt lat="48.38565" lon="-3.96887">
        <ele>321</ele>
        <time>2017-01-15T03:29:43Z</time>
      </trkpt>
      <trkpt lat="48.38566" lon="-3.96886">
        <ele>321</ele>
        <time>2017-01-15T03:31:43Z</time>
      </trkpt>
      <trkpt lat="48.38567" lon="-3.96886">
        <ele>321</ele>
        <time>2017-01-15T03:33:43Z</time>
      </trkpt>
      <trkpt lat="48.38566" lon="-3.96885">
        <ele>321</ele>
        <time>2017-01-15T03:35:43Z</time>
      </trkpt>
      <trkpt lat="48.38565" lon="-3.96888">
        <ele>321</ele>
        <time>2017-01-15T03:37:43Z</time>
      </trkpt>
      <trkpt lat="48.38567" lon="-3.96885">
        <ele>321</ele>
        <time>2017-01-15T03:39:43Z</time>
      </trkpt>
      <trkpt lat="48.38572" lon="-3.96871">
        <ele>322</ele>
        <time>2017-01-15T03:41:43Z</time>
      </trkpt>
      <trkpt lat="48.38585" lon="-3.9684">
        <ele>324</ele>
        <time>2017-01-15T03:43:43Z</time>
      </trkpt>
      <trkpt lat="48.38593" lon="-3.96801">
        <ele>324</ele>
        <time>2017-01-15T03:45:43Z</time>
      </trkpt>
      <trkpt lat="48.38594" lon="-3.96778">
        <ele>324</ele>
        <time>2017-01-15T03:47:43Z</time>
      </trkpt>
      <trkpt lat="48.38593" lon="-3.96775">
        <ele>324</ele>
        <time>2017-01-15T03:49:43Z</time>
      </trkpt>
      <trkpt lat="48.38593" lon="-3.96773">
        <ele>323</ele>
        <time>2017-01-15T03:51:43Z</time>
      </trkpt>
      <trkpt lat="48.38585" lon="-3.96739">
        <ele>323</ele>
        <time>2017-01-15T03:53:43Z</time>
      </trkpt>
      <trkpt lat="48.3857" lon="-3.96706">
        <ele>322</ele>
        <time>2017-01-15T03:55:43Z</time>
      </trkpt>
      <trkpt lat="48.38548" lon="-3.96672">
        <ele>320</ele>
        <time>2017-01-15T03:57:43Z</time>
      </trkpt>
      <trkpt lat="48.38536" lon="-3.96621">
        <ele>320</ele>
        <time>2017-01-15T03:59:43Z</time>
      </trkpt>
      <trkpt lat="48.38532" lon="-3.96588">
        <ele>320</ele>
        <time>2017-01-15T04:01:43Z</time>
      </trkpt>
      <trkpt lat="48.38528" lon="-3.96559">
        <ele>320</ele>
        <time>2017-01-15T04:03:43Z</time>
      </trkpt>
      <trkpt lat="48.38528" lon="-3.96556">
        <ele>319</ele>
        <time>2017-01-15T04:05:43Z</time>
      </trkpt>
      <trkpt lat="48.38528" lon="-3.96555">
        <ele>319</ele>
        <time>2017-01-15T04:07:43Z</time>
      </trkpt>
      <trkpt lat="48.38527" lon="-3.96555">
        <ele>319</ele>
        <time>2017-01-15T04:09:43Z</time>
      </trkpt>
      <trkpt lat="48.38528" lon="-3.96555">
        <ele>319</ele>
        <time>2017-01-15T04:11:43Z</time>
      </trkpt>
      <trkpt lat="48.38528" lon="-3.96557">
        <ele>319</ele>
        <time>2017-01-15T04:13:43Z</time>
      </trkpt>
      <trkpt lat="48.38528" lon="-3.96556">
        <ele>319</ele>
        <time>2017-01-15T04:15:43Z</time>
      </trkpt>
      <trkpt lat="48.38529" lon="-3.96554">
        <ele>320</ele>
        <time>2017-01-15T04:17:43Z</time>
      </trkpt>
      <trkpt lat="48.38532" lon="-3.96547">
        <ele>320</ele>
        <time>2017-01-15T04:19:43Z</time>
      </trkpt>
      <trkpt lat="48.38537" lon="-3.96536">
        <ele>321</ele>
        <time>2017-01-15T04:21:43Z</time>
      </trkpt>
      <trkpt lat="48.3854" lon="-3.96528">
        <ele>321</ele>
        <time>2017-01-15T04:23:43Z</time>
      </trkpt>
      <trkpt lat="48.38541" lon="-3.96519">
        <ele>321</ele>
        <time>2017-01-15T04:25:43Z</time>
      </trkpt>
      <trkpt lat="48.38545" lon="-3.96503">
        <ele>321</ele>
        <time>2017-01-15T04:27:43Z</time>
      </trkpt>
      <trkpt lat="48.38546" lon="-3.96501">
        <ele>322</ele>
        <time>2017-01-15T04:29:43Z</time>
      </trkpt>
      <trkpt lat="48.38546" lon="-3.96499">
        <ele>322</ele>
        <time>2017-01-15T04:31:43Z</time>
      </trkpt>
      <trkpt lat="48.38556" lon="-3.96474">
        <ele>323</ele>
        <time>2017-01-15T04:33:43Z</time>
      </trkpt>
      <trkpt lat="48.3856" lon="-3.96471">
        <ele>323</ele>
        <time>2017-01-15T04:35:43Z</time>
      </trkpt>
      <trkpt lat="48.38564" lon="-3.96466">
        <ele>323</ele>
        <time>2017-01-15T04:37:43Z</time>
      </trkpt>
      <trkpt lat="48.38579" lon="-3.96432">
        <ele>324</ele>
        <time>2017-01-15T04:39:43Z</time>
      </trkpt>
      <trkpt lat="48.386" lon="-3.96363">
        <ele>324</ele>
        <time>2017-01-15T04:41:43Z</time>
      </trkpt>
      <trkpt lat="48.38616" lon="-3.96334">
        <ele>324</ele>
        <time>2017-01-15T04:43:43Z</time>
      </trkpt>
      <trkpt lat="48.38632" lon="-3.96295">
        <ele>324</ele>
        <time>2017-01-15T04:45:43Z</time>
      </trkpt>
      <trkpt lat="48.38645" lon="-3.96258">
        <ele>323</ele>
        <time>2017-01-15T04:47:43Z</time>
      </trkpt>
      <trkpt lat="48.3866" lon="-3.96233">
        <ele>323</ele>
        <time>2017-01-15T04:49:43Z</time>
      </trkpt>
      <trkpt lat="48.38687" lon="-3.96223">
        <ele>325</ele>
        <time>2017-01-15T04:51:43Z</time>
      </trkpt>
      <trkpt lat="48.38689" lon="-3.96222">
        <ele>325</ele>
        <time>2017-01-15T04:53:43Z</time>
      </trkpt>
      <trkpt lat="48.38691" lon="-3.96221">
        <ele>325</ele>
        <time>2017-01-15T04:55:43Z</time>
      </trkpt>
      <trkpt lat="48.38697" lon="-3.96212">
        <ele>325</ele>
        <time>2017-01-15T04:57:43Z</time>
      </trkpt>
      <trkpt lat="48.38705" lon="-3.96188">
        <ele>325</ele>
        <time>2017-01-15T04:59:43Z</time>
      </trkpt>
      <trkpt lat="48.38706" lon="-3.96187">
        <ele>325</ele>
        <time>2017-01-15T05:01:43Z</time>
      </trkpt>
      <trkpt lat="48.38726" lon="-3.9616">
        <ele>325</ele>
        <time>2017-01-15T05:03:43Z</time>
      </trkpt>
      <trkpt lat="48.38741" lon="-3.96132">
        <ele>326</ele>
        <time>2017-01-15T05:05:43Z</time>
      </trkpt>
      <trkpt lat="48.38752" lon="-3.96099">
        <ele>326</ele>
        <time>2017-01-15T05:07:43Z</time>
      </trkpt>
      <trkpt lat="48.38758" lon="-3.96057">
        <ele>325</ele>
        <time>2017-01-15T05:09:43Z</time>
      </trkpt>
      <trkpt lat="48.38767" lon="-3.9602">
        <ele>326</ele>
        <time>2017-01-15T05:11:43Z</time>
      </trkpt>
      <trkpt lat="48.38759" lon="-3.9599">
        <ele>325</ele>
        <time>2017-01-15T05:13:43Z</time>
      </trkpt>
      <trkpt lat="48.38764" lon="-3.9596">
        <ele>325</ele>
        <time>2017-01-15T05:15:43Z</time>
      </trkpt>
      <trkpt lat="48.38771" lon="-3.95941">
        <ele>325</ele>
        <time>2017-01-15T05:17:43Z</time>
      </trkpt>
      <trkpt lat="48.38772" lon="-3.95935">
        <ele>325</ele>
        <time>2017-01-15T05:19:43Z</time>
      </trkpt>
      <trkpt lat="48.38772" lon="-3.95933">
        <ele>325</ele>
        <time>2017-01-15T05:21:43Z</time>
      </trkpt>
      <trkpt lat="48.38784" lon="-3.95902">
        <ele>326</ele>
        <time>2017-01-15T05:23:43Z</time>
      </trkpt>
      <trkpt lat="48.38785" lon="-3.95894">
        <ele>326</ele>
        <time>2017-01-15T05:25:43Z</time>
      </trkpt>
      <trkpt lat="48.38786" lon="-3.9589">
        <ele>326</ele>
        <time>2017-01-15T05:27:43Z</time>
      </trkpt>
      <trkpt lat="48.38781" lon="-3.95874">
        <ele>325</ele>
        <time>2017-01-15T05:29:43Z</time>
      </trkpt>
      <trkpt lat="48.38778" lon="-3.95868">
        <ele>324</ele>
        <time>2017-01-15T05:31:43Z</time>
      </trkpt>
      <trkpt lat="48.38768" lon="-3.95833">
        <ele>323</ele>
        <time>2017-01-15T05:33:43Z</time>
      </trkpt>
      <trkpt lat="48.3876" lon="-3.95798">
        <ele>321</ele>
        <time>2017-01-15T05:35:43Z</time>
      </trkpt>
      <trkpt lat="48.38751" lon="-3.95765">
        <ele>320</ele>
        <time>2017-01-15T05:37:43Z</time>
      </trkpt>
      <trkpt lat="48.38742" lon="-3.95722">
        <ele>318</ele>
        <time>2017-01-15T05:39:43Z</time>
      </trkpt>
      <trkpt lat="48.38733" lon="-3.95693">
        <ele>316</ele>
        <time>2017-01-15T05:41:43Z</time>
      </trkpt>
      <trkpt lat="48.38728" lon="-3.95676">
        <ele>314</ele>
        <time>2017-01-15T05:43:43Z</time>
      </trkpt>
      <trkpt lat="48.38725" lon="-3.95648">
        <ele>312</ele>
        <time>2017-01-15T05:45:43Z</time>
      </trkpt>
      <trkpt lat="48.38715" lon="-3.95626">
        <ele>309</ele>
        <time>2017-01-15T05:47:43Z</time>
      </trkpt>
      <trkpt lat="48.38706" lon="-3.95608">
        <ele>307</ele>
        <time>2017-01-15T05:49:43Z</time>
      </trkpt>
      <trkpt lat="48.38679" lon="-3.95577">
        <ele>301</ele>
        <time>2017-01-15T05:51:43Z</time>
      </trkpt>
      <trkpt lat="48.38662" lon="-3.95566">
        <ele>298</ele>
        <time>2017-01-15T05:53:43Z</time>
      </trkpt>
      <trkpt lat="48.38646" lon="-3.95558">
        <ele>295</ele>
        <time>2017-01-15T05:55:43Z</time>
      </trkpt>
      <trkpt lat="48.38623" lon="-3.95536">
        <ele>291</ele>
        <time>2017-01-15T05:57:43Z</time>
      </trkpt>
      <trkpt lat="48.38614" lon="-3.95521">
        <ele>289</ele>
        <time>2017-01-15T05:59:43Z</time>
      </trkpt>
      <trkpt lat="48.38593" lon="-3.95501">
        <ele>285</ele>
        <time>2017-01-15T06:01:43Z</time>
      </trkpt>
      <trkpt lat="48.38571" lon="-3.95479">
        <ele>282</ele>
        <time>2017-01-15T06:03:43Z</time>
      </trkpt>
      <trkpt lat="48.38551" lon="-3.95464">
        <ele>280</ele>
        <time>2017-01-15T06:05:43Z</time>
      </trkpt>
      <trkpt lat="48.38542" lon="-3.95452">
        <ele>279</ele>
        <time>2017-01-15T06:07:43Z</time>
      </trkpt>
      <trkpt lat="48.38542" lon="-3.95453">
        <ele>279</ele>
        <time>2017-01-15T06:09:43Z</time>
      </trkpt>
      <trkpt lat="48.38542" lon="-3.95454">
        <ele>279</ele>
        <time>2017-01-15T06:11:43Z</time>
      </trkpt>
      <trkpt lat="48.38542" lon="-3.95454">
        <ele>279</ele>
        <time>2017-01-15T06:13:43Z</time>
      </trkpt>
      <trkpt lat="48.38523" lon="-3.95434">
        <ele>278</ele>
        <time>2017-01-15T06:15:43Z</time>
      </trkpt>
      <trkpt lat="48.38521" lon="-3.9543">
        <ele>277</ele>
        <time>2017-01-15T06:17:43Z</time>
      </trkpt>
      <trkpt lat="48.38504" lon="-3.95412">
        <ele>276</ele>
        <time>2017-01-15T06:19:43Z</time>
      </trkpt>
      <trkpt lat="48.38483" lon="-3.95397">
        <ele>274</ele>
        <time>2017-01-15T06:21:43Z</time>
      </trkpt>
      <trkpt lat="48.38463" lon="-3.95382">
        <ele>273</ele>
        <time>2017-01-15T06:23:43Z</time>
      </trkpt>
      <trkpt lat="48.3845" lon="-3.95374">
        <ele>272</ele>
        <time>2017-01-15T06:25:43Z</time>
      </trkpt>
      <trkpt lat="48.38439" lon="-3.95374">
        <ele>271</ele>
        <time>2017-01-15T06:27:43Z</time>
      </trkpt>
      <trkpt lat="48.38417" lon="-3.95352">
        <ele>270</ele>
        <time>2017-01-15T06:29:43Z</time>
      </trkpt>
      <trkpt lat="48.38411" lon="-3.95341">
        <ele>270</ele>
        <time>2017-01-15T06:31:43Z</time>
      </trkpt>
      <trkpt lat="48.38384" lon="-3.95336">
        <ele>269</ele>
        <time>2017-01-15T06:33:43Z</time>
      </trkpt>
      <trkpt lat="48.38362" lon="-3.95318">
        <ele>269</ele>
        <time>2017-01-15T06:35:43Z</time>
      </trkpt>
      <trkpt lat="48.38346" lon="-3.95285">
        <ele>271</ele>
        <time>2017-01-15T06:37:43Z</time>
      </trkpt>
      <trkpt lat="48.38336" lon="-3.95254">
        <ele>273</ele>
        <time>2017-01-15T06:39:43Z</time>
      </trkpt>
      <trkpt lat="48.38326" lon="-3.9523">
        <ele>274</ele>
        <time>2017-01-15T06:41:43Z</time>
      </trkpt>
      <trkpt lat="48.38322" lon="-3.95217">
        <ele>275</ele>
        <time>2017-01-15T06:43:43Z</time>
      </trkpt>
      <trkpt lat="48.38308" lon="-3.9519">
        <ele>277</ele>
        <time>2017-01-15T06:45:43Z</time>
      </trkpt>
      <trkpt lat="48.38297" lon="-3.95163">
        <ele>278</ele>
        <time>2017-01-15T06:47:43Z</time>
      </trkpt>
      <trkpt lat="48.38278" lon="-3.95132">
        <ele>280</ele>
        <time>2017-01-15T06:49:43Z</time>
      </trkpt>
      <trkpt lat="48.38277" lon="-3.95131">
        <ele>280</ele>
        <time>2017-01-15T06:51:43Z</time>
      </trkpt>
      <trkpt lat="48.38264" lon="-3.95105">
        <ele>282</ele>
        <time>2017-01-15T06:53:43Z</time>
      </trkpt>
      <trkpt lat="48.3825" lon="-3.95075">
        <ele>283</ele>
        <time>2017-01-15T06:55:43Z</time>
      </trkpt>
      <trkpt lat="48.38234" lon="-3.95045">
        <ele>285</ele>
        <time>2017-01-15T06:57:43Z</time>
      </trkpt>
      <trkpt lat="48.38224" lon="-3.95025">
        <ele>286</ele>
        <time>2017-01-15T06:59:43Z</time>
      </trkpt>
      <trkpt lat="48.38206" lon="-3.94995">
        <ele>288</ele>
        <time>2017-01-15T07:01:43Z</time>
      </trkpt>
      <trkpt lat="48.38186" lon="-3.94964">
        <ele>291</ele>
        <time>2017-01-15T07:03:43Z</time>
      </trkpt>
      <trkpt lat="48.3817" lon="-3.94944">
        <ele>293</ele>
        <time>2017-01-15T07:05:43Z</time>
      </trkpt>
      <trkpt lat="48.38167" lon="-3.94942">
        <ele>293</ele>
        <time>2017-01-15T07:07:43Z</time>
      </trkpt>
      <trkpt lat="48.38166" lon="-3.94938">
        <ele>294</ele>
        <time>2017-01-15T07:09:43Z</time>
      </trkpt>
      <trkpt lat="48.38174" lon="-3.94909">
        <ele>295</ele>
        <time>2017-01-15T07:11:43Z</time>
      </trkpt>
      <trkpt lat="48.38198" lon="-3.94848">
        <ele>297</ele>
        <time>2017-01-15T07:13:43Z</time>
      </trkpt>
      <trkpt lat="48.38199" lon="-3.94846">
        <ele>297</ele>
        <time>2017-01-15T07:15:43Z</time>
      </trkpt>
      <trkpt lat="48.38212" lon="-3.94816">
        <ele>297</ele>
        <time>2017-01-15T07:17:43Z</time>
      </trkpt>
      <trkpt lat="48.38224" lon="-3.94787">
        <ele>297</ele>
        <time>2017-01-15T07:19:43Z</time>
      </trkpt>
      <trkpt lat="48.38229" lon="-3.94776">
        <ele>297</ele>
        <time>2017-01-15T07:21:43Z</time>
      </trkpt>
      <trkpt lat="48.38231" lon="-3.94777">
        <ele>297</ele>
        <time>2017-01-15T07:23:43Z</time>
      </trkpt>
      <trkpt lat="48.3823" lon="-3.94777">
        <ele>297</ele>
        <time>2017-01-15T07:25:43Z</time>
      </trkpt>
      <trkpt lat="48.38233" lon="-3.94769">
        <ele>297</ele>
        <time>2017-01-15T07:27:43Z</time>
      </trkpt>
      <trkpt lat="48.38237" lon="-3.94758">
        <ele>297</ele>
        <time>2017-01-15T07:29:43Z</time>
      </trkpt>
      <trkpt lat="48.3825" lon="-3.94729">
        <ele>297</ele>
        <time>2017-01-15T07:31:43Z</time>
      </trkpt>
      <trkpt lat="48.38259" lon="-3.94692">
        <ele>298</ele>
        <time>2017-01-15T07:33:43Z</time>
      </trkpt>
      <trkpt lat="48.38267" lon="-3.94647">
        <ele>299</ele>
        <time>2017-01-15T07:35:43Z</time>
      </trkpt>
      <trkpt lat="48.38276" lon="-3.94613">
        <ele>298</ele>
        <time>2017-01-15T07:37:43Z</time>
      </trkpt>
      <trkpt lat="48.38277" lon="-3.946">
        <ele>298</ele>
        <time>2017-01-15T07:39:43Z</time>
      </trkpt>
      <trkpt lat="48.38282" lon="-3.94562">
        <ele>298</ele>
        <time>2017-01-15T07:41:43Z</time>
      </trkpt>
      <trkpt lat="48.3829" lon="-3.94518">
        <ele>297</ele>
        <time>2017-01-15T07:43:43Z</time>
      </trkpt>
      <trkpt lat="48.38291" lon="-3.94516">
        <ele>297</ele>
        <time>2017-01-15T07:45:43Z</time>
      </trkpt>
      <trkpt lat="48.38293" lon="-3.94504">
        <ele>297</ele>
        <time>2017-01-15T07:47:43Z</time>
      </trkpt>
      <trkpt lat="48.38302" lon="-3.94468">
        <ele>297</ele>
        <time>2017-01-15T07:49:43Z</time>
      </trkpt>
      <trkpt lat="48.3831" lon="-3.94436">
        <ele>296</ele>
        <time>2017-01-15T07:51:43Z</time>
      </trkpt>
      <trkpt lat="48.38302" lon="-3.94421">
        <ele>296</ele>
        <time>2017-01-15T07:53:43Z</time>
      </trkpt>
      <trkpt lat="48.383" lon="-3.94419">
        <ele>296</ele>
        <time>2017-01-15T07:55:43Z</time>
      </trkpt>
      <trkpt lat="48.38301" lon="-3.94417">
        <ele>296</ele>
        <time>2017-01-15T07:57:43Z</time>
      </trkpt>
      <trkpt lat="48.38304" lon="-3.94412">
        <ele>296</ele>
        <time>2017-01-15T07:59:43Z</time>
      </trkpt>
      <trkpt lat="48.38313" lon="-3.94401">
        <ele>295</ele>
        <time>2017-01-15T08:01:43Z</time>
      </trkpt>
      <trkpt lat="48.38317" lon="-3.94385">
        <ele>295</ele>
        <time>2017-01-15T08:03:43Z</time>
      </trkpt>
      <trkpt lat="48.38316" lon="-3.94397">
        <ele>295</ele>
        <time>2017-01-15T08:05:43Z</time>
      </trkpt>
      <trkpt lat="48.38306" lon="-3.94412">
        <ele>296</ele>
        <time>2017-01-15T08:07:43Z</time>
      </trkpt>
      <trkpt lat="48.38292" lon="-3.94425">
        <ele>296</ele>
        <time>2017-01-15T08:09:43Z</time>
      </trkpt>
      <trkpt lat="48.3829" lon="-3.94428">
        <ele>296</ele>
        <time>2017-01-15T08:11:43Z</time>
      </trkpt>
      <trkpt lat="48.38281" lon="-3.94435">
        <ele>296</ele>
        <time>2017-01-15T08:13:43Z</time>
      </trkpt>
      <trkpt lat="48.38263" lon="-3.94447">
        <ele>297</ele>
        <time>2017-01-15T08:15:43Z</time>
      </trkpt>
      <trkpt lat="48.38244" lon="-3.94471">
        <ele>297</ele>
        <time>2017-01-15T08:17:43Z</time>
      </trkpt>
      <trkpt lat="48.38231" lon="-3.94496">
        <ele>298</ele>
        <time>2017-01-15T08:19:43Z</time>
      </trkpt>
      <trkpt lat="48.38211" lon="-3.94523">
        <ele>299</ele>
        <time>2017-01-15T08:21:43Z</time>
      </trkpt>
      <trkpt lat="48.38182" lon="-3.9455">
        <ele>301</ele>
        <time>2017-01-15T08:23:43Z</time>
      </trkpt>
      <trkpt lat="48.38168" lon="-3.9457">
        <ele>302</ele>
        <time>2017-01-15T08:25:43Z</time>
      </trkpt>
      <trkpt lat="48.38154" lon="-3.94605">
        <ele>304</ele>
        <time>2017-01-15T08:27:43Z</time>
      </trkpt>
      <trkpt lat="48.38134" lon="-3.94633">
        <ele>306</ele>
        <time>2017-01-15T08:29:43Z</time>
      </trkpt>
      <trkpt lat="48.38116" lon="-3.94649">
        <ele>308</ele>
        <time>2017-01-15T08:31:43Z</time>
      </trkpt>
      <trkpt lat="48.38097" lon="-3.94664">
        <ele>310</ele>
        <time>2017-01-15T08:33:43Z</time>
      </trkpt>
      <trkpt lat="48.38076" lon="-3.94683">
        <ele>312</ele>
        <time>2017-01-15T08:35:43Z</time>
      </trkpt>
      <trkpt lat="48.38059" lon="-3.94705">
        <ele>314</ele>
        <time>2017-01-15T08:37:43Z</time>
      </trkpt>
      <trkpt lat="48.38036" lon="-3.94728">
        <ele>316</ele>
        <time>2017-01-15T08:39:43Z</time>
      </trkpt>
      <trkpt lat="48.38018" lon="-3.94755">
        <ele>319</ele>
        <time>2017-01-15T08:41:43Z</time>
      </trkpt>
      <trkpt lat="48.38003" lon="-3.94779">
        <ele>321</ele>
        <time>2017-01-15T08:43:43Z</time>
      </trkpt>
      <trkpt lat="48.37984" lon="-3.94805">
        <ele>322</ele>
        <time>2017-01-15T08:45:43Z</time>
      </trkpt>
      <trkpt lat="48.37963" lon="-3.94839">
        <ele>324</ele>
        <time>2017-01-15T08:47:43Z</time>
      </trkpt>
      <trkpt lat="48.37944" lon="-3.94866">
        <ele>326</ele>
        <time>2017-01-15T08:49:43Z</time>
      </trkpt>
      <trkpt lat="48.37931" lon="-3.949">
        <ele>328</ele>
        <time>2017-01-15T08:51:43Z</time>
      </trkpt>
      <trkpt lat="48.37913" lon="-3.9492">
        <ele>330</ele>
        <time>2017-01-15T08:53:43Z</time>
      </trkpt>
      <trkpt lat="48.37887" lon="-3.9494">
        <ele>331</ele>
        <time>2017-01-15T08:55:43Z</time>
      </trkpt>
      <trkpt lat="48.37865" lon="-3.9496">
        <ele>332</ele>
        <time>2017-01-15T08:57:43Z</time>
      </trkpt>
      <trkpt lat="48.37847" lon="-3.94971">
        <ele>333</ele>
        <time>2017-01-15T08:59:43Z</time>
      </trkpt>
      <trkpt lat="48.37823" lon="-3.94984">
        <ele>335</ele>
        <time>2017-01-15T09:01:43Z</time>
      </trkpt>
      <trkpt lat="48.37801" lon="-3.95006">
        <ele>336</ele>
        <time>2017-01-15T09:03:43Z</time>
      </trkpt>
      <trkpt lat="48.37779" lon="-3.95027">
        <ele>338</ele>
        <time>2017-01-15T09:05:43Z</time>
      </trkpt>
      <trkpt lat="48.37759" lon="-3.95049">
        <ele>340</ele>
        <time>2017-01-15T09:07:43Z</time>
      </trkpt>
      <trkpt lat="48.3774" lon="-3.95069">
        <ele>343</ele>
        <time>2017-01-15T09:09:43Z</time>
      </trkpt>
      <trkpt lat="48.3772" lon="-3.95098">
        <ele>344</ele>
        <time>2017-01-15T09:11:43Z</time>
      </trkpt>
      <trkpt lat="48.37699" lon="-3.95108">
        <ele>345</ele>
        <time>2017-01-15T09:13:43Z</time>
      </trkpt>
      <trkpt lat="48.37662" lon="-3.95102">
        <ele>347</ele>
        <time>2017-01-15T09:15:43Z</time>
      </trkpt>
      <trkpt lat="48.37634" lon="-3.95104">
        <ele>349</ele>
        <time>2017-01-15T09:17:43Z</time>
      </trkpt>
      <trkpt lat="48.37607" lon="-3.95111">
        <ele>351</ele>
        <time>2017-01-15T09:19:43Z</time>
      </trkpt>
      <trkpt lat="48.37589" lon="-3.95121">
        <ele>353</ele>
        <time>2017-01-15T09:21:43Z</time>
      </trkpt>
      <trkpt lat="48.37573" lon="-3.95129">
        <ele>355</ele>
        <time>2017-01-15T09:23:43Z</time>
      </trkpt>
      <trkpt lat="48.37558" lon="-3.95145">
        <ele>357</ele>
        <time>2017-01-15T09:25:43Z</time>
      </trkpt>
      <trkpt lat="48.37543" lon="-3.95171">
        <ele>360</ele>
        <time>2017-01-15T09:27:43Z</time>
      </trkpt>
      <trkpt lat="48.37519" lon="-3.95188">
        <ele>362</ele>
        <time>2017-01-15T09:29:43Z</time>
      </trkpt>
      <trkpt lat="48.37497" lon="-3.95202">
        <ele>364</ele>
        <time>2017-01-15T09:31:43Z</time>
      </trkpt>
      <trkpt lat="48.37471" lon="-3.95215">
        <ele>365</ele>
        <time>2017-01-15T09:33:43Z</time>
      </trkpt>
      <trkpt lat="48.37448" lon="-3.95219">
        <ele>366</ele>
        <time>2017-01-15T09:35:43Z</time>
      </trkpt>
      <trkpt lat="48.37421" lon="-3.95226">
        <ele>369</ele>
        <time>2017-01-15T09:37:43Z</time>
      </trkpt>
      <trkpt lat="48.37395" lon="-3.95241">
        <ele>370</ele>
        <time>2017-01-15T09:39:43Z</time>
      </trkpt>
      <trkpt lat="48.37366" lon="-3.95251">
        <ele>372</ele>
        <time>2017-01-15T09:41:43Z</time>
      </trkpt>
      <trkpt lat="48.37337" lon="-3.95263">
        <ele>373</ele>
        <time>2017-01-15T09:43:43Z</time>
      </trkpt>
      <trkpt lat="48.37331" lon="-3.95264">
        <ele>374</ele>
        <time>2017-01-15T09:45:43Z</time>
      </trkpt>
      <trkpt lat="48.3733" lon="-3.95262">
        <ele>374</ele>
        <time>2017-01-15T09:47:43Z</time>
      </trkpt>
      <trkpt lat="48.37321" lon="-3.95252">
        <ele>375</ele>
        <time>2017-01-15T09:49:43Z</time>
      </trkpt>
      <trkpt lat="48.37314" lon="-3.95248">
        <ele>375</ele>
        <time>2017-01-15T09:51:43Z</time>
      </trkpt>
      <trkpt lat="48.37311" lon="-3.95247">
        <ele>375</ele>
        <time>2017-01-15T09:53:43Z</time>
      </trkpt>
      <trkpt lat="48.373" lon="-3.95246">
        <ele>376</ele>
        <time>2017-01-15T09:55:43Z</time>
      </trkpt>
      <trkpt lat="48.37301" lon="-3.95249">
        <ele>376</ele>
        <time>2017-01-15T09:57:43Z</time>
      </trkpt>
      <trkpt lat="48.37302" lon="-3.95251">
        <ele>376</ele>
        <time>2017-01-15T09:59:43Z</time>
      </trkpt>
      <trkpt lat="48.37304" lon="-3.9525">
        <ele>376</ele>
        <time>2017-01-15T10:01:43Z</time>
      </trkpt>
      <trkpt lat="48.37307" lon="-3.95251">
        <ele>376</ele>
        <time>2017-01-15T10:03:43Z</time>
      </trkpt>
      <trkpt lat="48.37308" lon="-3.95257">
        <ele>375</ele>
        <time>2017-01-15T10:05:43Z</time>
      </trkpt>
      <trkpt lat="48.37309" lon="-3.95259">
        <ele>375</ele>
        <time>2017-01-15T10:07:43Z</time>
      </trkpt>
      <trkpt lat="48.3731" lon="-3.95256">
        <ele>375</ele>
        <time>2017-01-15T10:09:43Z</time>
      </trkpt>
      <trkpt lat="48.37308" lon="-3.95251">
        <ele>376</ele>
        <time>2017-01-15T10:11:43Z</time>
      </trkpt>
      <trkpt lat="48.37307" lon="-3.9525">
        <ele>376</ele>
        <time>2017-01-15T10:13:43Z</time>
      </trkpt>
      <trkpt lat="48.37307" lon="-3.9525">
        <ele>376</ele>
        <time>2017-01-15T10:15:43Z</time>
      </trkpt>
      <trkpt lat="48.37308" lon="-3.9525">
        <ele>376</ele>
        <time>2017-01-15T10:17:43Z</time>
      </trkpt>
      <trkpt lat="48.37311" lon="-3.9525">
        <ele>375</ele>
        <time>2017-01-15T10:19:43Z</time>
      </trkpt>
      <trkpt lat="48.37317" lon="-3.95252">
        <ele>375</ele>
        <time>2017-01-15T10:21:43Z</time>
      </trkpt>
      <trkpt lat="48.37326" lon="-3.95256">
        <ele>374</ele>
        <time>2017-01-15T10:23:43Z</time>
      </trkpt>
      <trkpt lat="48.37328" lon="-3.95265">
        <ele>374</ele>
        <time>2017-01-15T10:25:43Z</time>
      </trkpt>
      <trkpt lat="48.37323" lon="-3.95269">
        <ele>374</ele>
        <time>2017-01-15T10:27:43Z</time>
      </trkpt>
      <trkpt lat="48.37262" lon="-3.95326">
        <ele>378</ele>
        <time>2017-01-15T10:29:43Z</time>
      </trkpt>
      <trkpt lat="48.37242" lon="-3.95339">
        <ele>379</ele>
        <time>2017-01-15T10:31:43Z</time>
      </trkpt>
      <trkpt lat="48.3722" lon="-3.95344">
        <ele>378</ele>
        <time>2017-01-15T10:33:43Z</time>
      </trkpt>
      <trkpt lat="48.37199" lon="-3.9535">
        <ele>378</ele>
        <time>2017-01-15T10:35:43Z</time>
      </trkpt>
      <trkpt lat="48.37178" lon="-3.95363">
        <ele>378</ele>
        <time>2017-01-15T10:37:43Z</time>
      </trkpt>
      <trkpt lat="48.37153" lon="-3.95377">
        <ele>377</ele>
        <time>2017-01-15T10:39:43Z</time>
      </trkpt>
      <trkpt lat="48.3713" lon="-3.95391">
        <ele>375</ele>
        <time>2017-01-15T10:41:43Z</time>
      </trkpt>
      <trkpt lat="48.37094" lon="-3.95419">
        <ele>373</ele>
        <time>2017-01-15T10:43:43Z</time>
      </trkpt>
      <trkpt lat="48.37094" lon="-3.95418">
        <ele>373</ele>
        <time>2017-01-15T10:45:43Z</time>
      </trkpt>
      <trkpt lat="48.37093" lon="-3.95417">
        <ele>373</ele>
        <time>2017-01-15T10:47:43Z</time>
      </trkpt>
      <trkpt lat="48.37093" lon="-3.95418">
        <ele>373</ele>
        <time>2017-01-15T10:49:43Z</time>
      </trkpt>
      <trkpt lat="48.37082" lon="-3.95425">
        <ele>372</ele>
        <time>2017-01-15T10:51:43Z</time>
      </trkpt>
      <trkpt lat="48.37082" lon="-3.95426">
        <ele>372</ele>
        <time>2017-01-15T10:53:43Z</time>
      </trkpt>
      <trkpt lat="48.37075" lon="-3.95428">
        <ele>372</ele>
        <time>2017-01-15T10:55:43Z</time>
      </trkpt>
      <trkpt lat="48.37047" lon="-3.9544">
        <ele>371</ele>
        <time>2017-01-15T10:57:43Z</time>
      </trkpt>
      <trkpt lat="48.37024" lon="-3.95448">
        <ele>370</ele>
        <time>2017-01-15T10:59:43Z</time>
      </trkpt>
      <trkpt lat="48.37002" lon="-3.95461">
        <ele>370</ele>
        <time>2017-01-15T11:01:43Z</time>
      </trkpt>
      <trkpt lat="48.3698" lon="-3.95473">
        <ele>369</ele>
        <time>2017-01-15T11:03:43Z</time>
      </trkpt>
      <trkpt lat="48.36953" lon="-3.95491">
        <ele>369</ele>
        <time>2017-01-15T11:05:43Z</time>
      </trkpt>
      <trkpt lat="48.36927" lon="-3.955">
        <ele>368</ele>
        <time>2017-01-15T11:07:43Z</time>
      </trkpt>
      <trkpt lat="48.36903" lon="-3.95515">
        <ele>367</ele>
        <time>2017-01-15T11:09:43Z</time>
      </trkpt>
      <trkpt lat="48.36881" lon="-3.95525">
        <ele>366</ele>
        <time>2017-01-15T11:11:43Z</time>
      </trkpt>
      <trkpt lat="48.36856" lon="-3.95536">
        <ele>365</ele>
        <time>2017-01-15T11:13:43Z</time>
      </trkpt>
      <trkpt lat="48.36833" lon="-3.95542">
        <ele>364</ele>
        <time>2017-01-15T11:15:43Z</time>
      </trkpt>
      <trkpt lat="48.36811" lon="-3.9554">
        <ele>364</ele>
        <time>2017-01-15T11:17:43Z</time>
      </trkpt>
      <trkpt lat="48.36806" lon="-3.9554">
        <ele>363</ele>
        <time>2017-01-15T11:19:43Z</time>
      </trkpt>
      <trkpt lat="48.36777" lon="-3.95538">
        <ele>363</ele>
        <time>2017-01-15T11:21:43Z</time>
      </trkpt>
      <trkpt lat="48.36756" lon="-3.95544">
        <ele>363</ele>
        <time>2017-01-15T11:23:43Z</time>
      </trkpt>
      <trkpt lat="48.36732" lon="-3.95547">
        <ele>362</ele>
        <time>2017-01-15T11:25:43Z</time>
      </trkpt>
      <trkpt lat="48.36705" lon="-3.95556">
        <ele>361</ele>
        <time>2017-01-15T11:27:43Z</time>
      </trkpt>
      <trkpt lat="48.36684" lon="-3.95566">
        <ele>360</ele>
        <time>2017-01-15T11:29:43Z</time>
      </trkpt>
      <trkpt lat="48.36661" lon="-3.95566">
        <ele>358</ele>
        <time>2017-01-15T11:31:43Z</time>
      </trkpt>
      <trkpt lat="48.36645" lon="-3.95568">
        <ele>356</ele>
        <time>2017-01-15T11:33:43Z</time>
      </trkpt>
      <trkpt lat="48.36643" lon="-3.95569">
        <ele>356</ele>
        <time>2017-01-15T11:35:43Z</time>
      </trkpt>
      <trkpt lat="48.36636" lon="-3.95574">
        <ele>355</ele>
        <time>2017-01-15T11:37:43Z</time>
      </trkpt>
      <trkpt lat="48.36618" lon="-3.95572">
        <ele>353</ele>
        <time>2017-01-15T11:39:43Z</time>
      </trkpt>
      <trkpt lat="48.36611" lon="-3.95573">
        <ele>352</ele>
        <time>2017-01-15T11:41:43Z</time>
      </trkpt>
      <trkpt lat="48.3659" lon="-3.95583">
        <ele>349</ele>
        <time>2017-01-15T11:43:43Z</time>
      </trkpt>
      <trkpt lat="48.36581" lon="-3.95586">
        <ele>348</ele>
        <time>2017-01-15T11:45:43Z</time>
      </trkpt>
      <trkpt lat="48.36576" lon="-3.95584">
        <ele>347</ele>
        <time>2017-01-15T11:47:43Z</time>
      </trkpt>
      <trkpt lat="48.36561" lon="-3.95587">
        <ele>345</ele>
        <time>2017-01-15T11:49:43Z</time>
      </trkpt>
      <trkpt lat="48.3656" lon="-3.95586">
        <ele>345</ele>
        <time>2017-01-15T11:51:43Z</time>
      </trkpt>
      <trkpt lat="48.36544" lon="-3.95601">
        <ele>343</ele>
        <time>2017-01-15T11:53:43Z</time>
      </trkpt>
      <trkpt lat="48.36525" lon="-3.95615">
        <ele>341</ele>
        <time>2017-01-15T11:55:43Z</time>
      </trkpt>
      <trkpt lat="48.36508" lon="-3.9562">
        <ele>339</ele>
        <time>2017-01-15T11:57:43Z</time>
      </trkpt>
      <trkpt lat="48.36499" lon="-3.95649">
        <ele>338</ele>
        <time>2017-01-15T11:59:43Z</time>
      </trkpt>
      <trkpt lat="48.36492" lon="-3.95694">
        <ele>336</ele>
        <time>2017-01-15T12:01:43Z</time>
      </trkpt>
      <trkpt lat="48.36472" lon="-3.95725">
        <ele>333</ele>
        <time>2017-01-15T12:03:43Z</time>
      </trkpt>
      <trkpt lat="48.36447" lon="-3.95746">
        <ele>331</ele>
        <time>2017-01-15T12:05:43Z</time>
      </trkpt>
      <trkpt lat="48.36425" lon="-3.95766">
        <ele>329</ele>
        <time>2017-01-15T12:07:43Z</time>
      </trkpt>
      <trkpt lat="48.36422" lon="-3.9577">
        <ele>329</ele>
        <time>2017-01-15T12:09:43Z</time>
      </trkpt>
      <trkpt lat="48.36411" lon="-3.95791">
        <ele>328</ele>
        <time>2017-01-15T12:11:43Z</time>
      </trkpt>
      <trkpt lat="48.36372" lon="-3.95848">
        <ele>326</ele>
        <time>2017-01-15T12:13:43Z</time>
      </trkpt>
      <trkpt lat="48.36365" lon="-3.95861">
        <ele>325</ele>
        <time>2017-01-15T12:15:43Z</time>
      </trkpt>
      <trkpt lat="48.3636" lon="-3.95868">
        <ele>325</ele>
        <time>2017-01-15T12:17:43Z</time>
      </trkpt>
      <trkpt lat="48.36337" lon="-3.95892">
        <ele>324</ele>
        <time>2017-01-15T12:19:43Z</time>
      </trkpt>
      <trkpt lat="48.36311" lon="-3.95916">
        <ele>323</ele>
        <time>2017-01-15T12:21:43Z</time>
      </trkpt>
      <trkpt lat="48.36284" lon="-3.95936">
        <ele>322</ele>
        <time>2017-01-15T12:23:43Z</time>
      </trkpt>
      <trkpt lat="48.36256" lon="-3.95954">
        <ele>321</ele>
        <time>2017-01-15T12:25:43Z</time>
      </trkpt>
      <trkpt lat="48.36245" lon="-3.95961">
        <ele>320</ele>
        <time>2017-01-15T12:27:43Z</time>
      </trkpt>
      <trkpt lat="48.36216" lon="-3.95981">
        <ele>319</ele>
        <time>2017-01-15T12:29:43Z</time>
      </trkpt>
      <trkpt lat="48.36179" lon="-3.96006">
        <ele>318</ele>
        <time>2017-01-15T12:31:43Z</time>
      </trkpt>
      <trkpt lat="48.36166" lon="-3.96016">
        <ele>317</ele>
        <time>2017-01-15T12:33:43Z</time>
      </trkpt>
      <trkpt lat="48.36133" lon="-3.96043">
        <ele>316</ele>
        <time>2017-01-15T12:35:43Z</time>
      </trkpt>
      <trkpt lat="48.36104" lon="-3.9606">
        <ele>316</ele>
        <time>2017-01-15T12:37:43Z</time>
      </trkpt>
      <trkpt lat="48.3607" lon="-3.96073">
        <ele>315</ele>
        <time>2017-01-15T12:39:43Z</time>
      </trkpt>
      <trkpt lat="48.3604" lon="-3.96077">
        <ele>314</ele>
        <time>2017-01-15T12:41:43Z</time>
      </trkpt>
      <trkpt lat="48.36011" lon="-3.96083">
        <ele>313</ele>
        <time>2017-01-15T12:43:43Z</time>
      </trkpt>
      <trkpt lat="48.35987" lon="-3.96089">
        <ele>312</ele>
        <time>2017-01-15T12:45:43Z</time>
      </trkpt>
      <trkpt lat="48.35964" lon="-3.96099">
        <ele>312</ele>
        <time>2017-01-15T12:47:43Z</time>
      </trkpt>
      <trkpt lat="48.35944" lon="-3.96113">
        <ele>311</ele>
        <time>2017-01-15T12:49:43Z</time>
      </trkpt>
      <trkpt lat="48.35931" lon="-3.9611">
        <ele>310</ele>
        <time>2017-01-15T12:51:43Z</time>
      </trkpt>
      <trkpt lat="48.35897" lon="-3.96099">
        <ele>309</ele>
        <time>2017-01-15T12:53:43Z</time>
      </trkpt>
      <trkpt lat="48.35868" lon="-3.96094">
        <ele>307</ele>
        <time>2017-01-15T12:55:43Z</time>
      </trkpt>
      <trkpt lat="48.35838" lon="-3.96088">
        <ele>305</ele>
        <time>2017-01-15T12:57:43Z</time>
      </trkpt>
      <trkpt lat="48.35812" lon="-3.96094">
        <ele>304</ele>
        <time>2017-01-15T12:59:43Z</time>
      </trkpt>
      <trkpt lat="48.35783" lon="-3.96093">
        <ele>303</ele>
        <time>2017-01-15T13:01:43Z</time>
      </trkpt>
      <trkpt lat="48.35752" lon="-3.96097">
        <ele>301</ele>
        <time>2017-01-15T13:03:43Z</time>
      </trkpt>
      <trkpt lat="48.35727" lon="-3.96095">
        <ele>301</ele>
        <time>2017-01-15T13:05:43Z</time>
      </trkpt>
      <trkpt lat="48.35693" lon="-3.96098">
        <ele>300</ele>
        <time>2017-01-15T13:07:43Z</time>
      </trkpt>
      <trkpt lat="48.35685" lon="-3.96101">
        <ele>300</ele>
        <time>2017-01-15T13:09:43Z</time>
      </trkpt>
      <trkpt lat="48.35673" lon="-3.96101">
        <ele>300</ele>
        <time>2017-01-15T13:11:43Z</time>
      </trkpt>
      <trkpt lat="48.35667" lon="-3.96114">
        <ele>300</ele>
        <time>2017-01-15T13:13:43Z</time>
      </trkpt>
      <trkpt lat="48.35662" lon="-3.96122">
        <ele>300</ele>
        <time>2017-01-15T13:15:43Z</time>
      </trkpt>
      <trkpt lat="48.35659" lon="-3.96128">
        <ele>300</ele>
        <time>2017-01-15T13:17:43Z</time>
      </trkpt>
      <trkpt lat="48.35658" lon="-3.9613">
        <ele>300</ele>
        <time>2017-01-15T13:19:43Z</time>
      </trkpt>
      <trkpt lat="48.35653" lon="-3.96134">
        <ele>300</ele>
        <time>2017-01-15T13:21:43Z</time>
      </trkpt>
      <trkpt lat="48.3565" lon="-3.96134">
        <ele>300</ele>
        <time>2017-01-15T13:23:43Z</time>
      </trkpt>
      <trkpt lat="48.35648" lon="-3.96133">
        <ele>300</ele>
        <time>2017-01-15T13:25:43Z</time>
      </trkpt>
      <trkpt lat="48.35645" lon="-3.96129">
        <ele>300</ele>
        <time>2017-01-15T13:27:43Z</time>
      </trkpt>
      <trkpt lat="48.35632" lon="-3.96107">
        <ele>299</ele>
        <time>2017-01-15T13:29:43Z</time>
      </trkpt>
      <trkpt lat="48.3561" lon="-3.96071">
        <ele>298</ele>
        <time>2017-01-15T13:31:43Z</time>
      </trkpt>
      <trkpt lat="48.3559" lon="-3.96048">
        <ele>298</ele>
        <time>2017-01-15T13:33:43Z</time>
      </trkpt>
      <trkpt lat="48.35573" lon="-3.96028">
        <ele>298</ele>
        <time>2017-01-15T13:35:43Z</time>
      </trkpt>
      <trkpt lat="48.35548" lon="-3.95998">
        <ele>299</ele>
        <time>2017-01-15T13:37:43Z</time>
      </trkpt>
      <trkpt lat="48.35529" lon="-3.95971">
        <ele>300</ele>
        <time>2017-01-15T13:39:43Z</time>
      </trkpt>
      <trkpt lat="48.35513" lon="-3.95948">
        <ele>302</ele>
        <time>2017-01-15T13:41:43Z</time>
      </trkpt>
      <trkpt lat="48.35512" lon="-3.95947">
        <ele>302</ele>
        <time>2017-01-15T13:43:43Z</time>
      </trkpt>
      <trkpt lat="48.35506" lon="-3.95933">
        <ele>303</ele>
        <time>2017-01-15T13:45:43Z</time>
      </trkpt>
      <trkpt lat="48.35494" lon="-3.95913">
        <ele>304</ele>
        <time>2017-01-15T13:47:43Z</time>
      </trkpt>
      <trkpt lat="48.3549" lon="-3.95902">
        <ele>305</ele>
        <time>2017-01-15T13:49:43Z</time>
      </trkpt>
      <trkpt lat="48.35476" lon="-3.95878">
        <ele>307</ele>
        <time>2017-01-15T13:51:43Z</time>
      </trkpt>
      <trkpt lat="48.35464" lon="-3.9585">
        <ele>308</ele>
        <time>2017-01-15T13:53:43Z</time>
      </trkpt>
      <trkpt lat="48.35454" lon="-3.95813">
        <ele>309</ele>
        <time>2017-01-15T13:55:43Z</time>
      </trkpt>
      <trkpt lat="48.35447" lon="-3.95776">
        <ele>311</ele>
        <time>2017-01-15T13:57:43Z</time>
      </trkpt>
      <trkpt lat="48.35437" lon="-3.95739">
        <ele>312</ele>
        <time>2017-01-15T13:59:43Z</time>
      </trkpt>
      <trkpt lat="48.35425" lon="-3.95695">
        <ele>314</ele>
        <time>2017-01-15T14:01:43Z</time>
      </trkpt>
      <trkpt lat="48.35416" lon="-3.95654">
        <ele>316</ele>
        <time>2017-01-15T14:03:43Z</time>
      </trkpt>
      <trkpt lat="48.35405" lon="-3.95626">
        <ele>317</ele>
        <time>2017-01-15T14:05:43Z</time>
      </trkpt>
      <trkpt lat="48.35389" lon="-3.95591">
        <ele>318</ele>
        <time>2017-01-15T14:07:43Z</time>
      </trkpt>
      <trkpt lat="48.35379" lon="-3.95554">
        <ele>319</ele>
        <time>2017-01-15T14:09:43Z</time>
      </trkpt>
      <trkpt lat="48.35367" lon="-3.95513">
        <ele>321</ele>
        <time>2017-01-15T14:11:43Z</time>
      </trkpt>
      <trkpt lat="48.35351" lon="-3.95477">
        <ele>323</ele>
        <time>2017-01-15T14:13:43Z</time>
      </trkpt>
      <trkpt lat="48.35341" lon="-3.95445">
        <ele>324</ele>
        <time>2017-01-15T14:15:43Z</time>
      </trkpt>
      <trkpt lat="48.3533" lon="-3.95404">
        <ele>325</ele>
        <time>2017-01-15T14:17:43Z</time>
      </trkpt>
      <trkpt lat="48.35315" lon="-3.95372">
        <ele>325</ele>
        <time>2017-01-15T14:19:43Z</time>
      </trkpt>
      <trkpt lat="48.35302" lon="-3.95342">
        <ele>325</ele>
        <time>2017-01-15T14:21:43Z</time>
      </trkpt>
      <trkpt lat="48.35297" lon="-3.9532">
        <ele>326</ele>
        <time>2017-01-15T14:23:43Z</time>
      </trkpt>
      <trkpt lat="48.35297" lon="-3.95318">
        <ele>326</ele>
        <time>2017-01-15T14:25:43Z</time>
      </trkpt>
      <trkpt lat="48.35295" lon="-3.9531">
        <ele>326</ele>
        <time>2017-01-15T14:27:43Z</time>
      </trkpt>
      <trkpt lat="48.35284" lon="-3.95278">
        <ele>327</ele>
        <time>2017-01-15T14:29:43Z</time>
      </trkpt>
      <trkpt lat="48.35268" lon="-3.95251">
        <ele>327</ele>
        <time>2017-01-15T14:31:43Z</time>
      </trkpt>
      <trkpt lat="48.35257" lon="-3.95226">
        <ele>328</ele>
        <time>2017-01-15T14:33:43Z</time>
      </trkpt>
      <trkpt lat="48.35252" lon="-3.95216">
        <ele>329</ele>
        <time>2017-01-15T14:35:43Z</time>
      </trkpt>
      <trkpt lat="48.35239" lon="-3.9519">
        <ele>329</ele>
        <time>2017-01-15T14:37:43Z</time>
      </trkpt>
      <trkpt lat="48.3522" lon="-3.95153">
        <ele>330</ele>
        <time>2017-01-15T14:39:43Z</time>
      </trkpt>
      <trkpt lat="48.35211" lon="-3.95132">
        <ele>330</ele>
        <time>2017-01-15T14:41:43Z</time>
      </trkpt>
      <trkpt lat="48.35207" lon="-3.95125">
        <ele>330</ele>
        <time>2017-01-15T14:43:43Z</time>
      </trkpt>
      <trkpt lat="48.35192" lon="-3.95084">
        <ele>330</ele>
        <time>2017-01-15T14:45:43Z</time>
      </trkpt>
      <trkpt lat="48.35179" lon="-3.95055">
        <ele>331</ele>
        <time>2017-01-15T14:47:43Z</time>
      </trkpt>
      <trkpt lat="48.35165" lon="-3.95017">
        <ele>333</ele>
        <time>2017-01-15T14:49:43Z</time>
      </trkpt>
      <trkpt lat="48.35154" lon="-3.94975">
        <ele>334</ele>
        <time>2017-01-15T14:51:43Z</time>
      </trkpt>
      <trkpt lat="48.35153" lon="-3.94971">
        <ele>334</ele>
        <time>2017-01-15T14:53:43Z</time>
      </trkpt>
      <trkpt lat="48.35142" lon="-3.94937">
        <ele>335</ele>
        <time>2017-01-15T14:55:43Z</time>
      </trkpt>
      <trkpt lat="48.35132" lon="-3.94903">
        <ele>336</ele>
        <time>2017-01-15T14:57:43Z</time>
      </trkpt>
      <trkpt lat="48.3513" lon="-3.9489">
        <ele>336</ele>
        <time>2017-01-15T14:59:43Z</time>
      </trkpt>
      <trkpt lat="48.35114" lon="-3.94864">
        <ele>337</ele>
        <time>2017-01-15T15:01:43Z</time>
      </trkpt>
      <trkpt lat="48.351" lon="-3.9484">
        <ele>338</ele>
        <time>2017-01-15T15:03:43Z</time>
      </trkpt>
      <trkpt lat="48.35089" lon="-3.94812">
        <ele>340</ele>
        <time>2017-01-15T15:05:43Z</time>
      </trkpt>
      <trkpt lat="48.35086" lon="-3.94767">
        <ele>344</ele>
        <time>2017-01-15T15:07:43Z</time>
      </trkpt>
      <trkpt lat="48.35082" lon="-3.94751">
        <ele>345</ele>
        <time>2017-01-15T15:09:43Z</time>
      </trkpt>
      <trkpt lat="48.35076" lon="-3.94739">
        <ele>346</ele>
        <time>2017-01-15T15:11:43Z</time>
      </trkpt>
      <trkpt lat="48.35074" lon="-3.94736">
        <ele>347</ele>
        <time>2017-01-15T15:13:43Z</time>
      </trkpt>
      <trkpt lat="48.35068" lon="-3.94723">
        <ele>348</ele>
        <time>2017-01-15T15:15:43Z</time>
      </trkpt>
      <trkpt lat="48.35063" lon="-3.94713">
        <ele>350</ele>
        <time>2017-01-15T15:17:43Z</time>
      </trkpt>
      <trkpt lat="48.35062" lon="-3.94708">
        <ele>350</ele>
        <time>2017-01-15T15:19:43Z</time>
      </trkpt>
      <trkpt lat="48.35061" lon="-3.94707">
        <ele>350</ele>
        <time>2017-01-15T15:21:43Z</time>
      </trkpt>
      <trkpt lat="48.35054" lon="-3.94703">
        <ele>351</ele>
        <time>2017-01-15T15:23:43Z</time>
      </trkpt>
      <trkpt lat="48.35051" lon="-3.94703">
        <ele>351</ele>
        <time>2017-01-15T15:25:43Z</time>
      </trkpt>
      <trkpt lat="48.35032" lon="-3.94698">
        <ele>353</ele>
        <time>2017-01-15T15:27:43Z</time>
      </trkpt>
      <trkpt lat="48.35004" lon="-3.94689">
        <ele>355</ele>
        <time>2017-01-15T15:29:43Z</time>
      </trkpt>
      <trkpt lat="48.34998" lon="-3.94682">
        <ele>356</ele>
        <time>2017-01-15T15:31:43Z</time>
      </trkpt>
      <trkpt lat="48.34997" lon="-3.94681">
        <ele>356</ele>
        <time>2017-01-15T15:33:43Z</time>
      </trkpt>
      <trkpt lat="48.34995" lon="-3.94678">
        <ele>356</ele>
        <time>2017-01-15T15:35:43Z</time>
      </trkpt>
      <trkpt lat="48.34989" lon="-3.94668">
        <ele>357</ele>
        <time>2017-01-15T15:37:43Z</time>
      </trkpt>
      <trkpt lat="48.34971" lon="-3.94638">
        <ele>358</ele>
        <time>2017-01-15T15:39:43Z</time>
      </trkpt>
      <trkpt lat="48.34959" lon="-3.94609">
        <ele>359</ele>
        <time>2017-01-15T15:41:43Z</time>
      </trkpt>
      <trkpt lat="48.34948" lon="-3.94573">
        <ele>360</ele>
        <time>2017-01-15T15:43:43Z</time>
      </trkpt>
      <trkpt lat="48.3495" lon="-3.94532">
        <ele>362</ele>
        <time>2017-01-15T15:45:43Z</time>
      </trkpt>
      <trkpt lat="48.3496" lon="-3.94495">
        <ele>364</ele>
        <time>2017-01-15T15:47:43Z</time>
      </trkpt>
      <trkpt lat="48.34974" lon="-3.94469">
        <ele>365</ele>
        <time>2017-01-15T15:49:43Z</time>
      </trkpt>
      <trkpt lat="48.34996" lon="-3.94445">
        <ele>366</ele>
        <time>2017-01-15T15:51:43Z</time>
      </trkpt>
      <trkpt lat="48.3501" lon="-3.94456">
        <ele>366</ele>
        <time>2017-01-15T15:53:43Z</time>
      </trkpt>
      <trkpt lat="48.35012" lon="-3.94459">
        <ele>365</ele>
        <time>2017-01-15T15:55:43Z</time>
      </trkpt>
      <trkpt lat="48.35014" lon="-3.94474">
        <ele>367</ele>
        <time>2017-01-15T15:57:43Z</time>
      </trkpt>
      <trkpt lat="48.35018" lon="-3.94522">
        <ele>368</ele>
        <time>2017-01-15T15:59:43Z</time>
      </trkpt>
      <trkpt lat="48.35019" lon="-3.94538">
        <ele>368</ele>
        <time>2017-01-15T16:01:43Z</time>
      </trkpt>
      <trkpt lat="48.35021" lon="-3.94554">
        <ele>368</ele>
        <time>2017-01-15T16:03:43Z</time>
      </trkpt>
      <trkpt lat="48.35021" lon="-3.94553">
        <ele>368</ele>
        <time>2017-01-15T16:05:43Z</time>
      </trkpt>
      <trkpt lat="48.35022" lon="-3.94552">
        <ele>368</ele>
        <time>2017-01-15T16:07:43Z</time>
      </trkpt>
      <trkpt lat="48.35023" lon="-3.94554">
        <ele>368</ele>
        <time>2017-01-15T16:09:43Z</time>
      </trkpt>
      <trkpt lat="48.35024" lon="-3.94557">
        <ele>368</ele>
        <time>2017-01-15T16:11:43Z</time>
      </trkpt>
      <trkpt lat="48.35026" lon="-3.94562">
        <ele>367</ele>
        <time>2017-01-15T16:13:43Z</time>
      </trkpt>
      <trkpt lat="48.35027" lon="-3.94569">
        <ele>367</ele>
        <time>2017-01-15T16:15:43Z</time>
      </trkpt>
      <trkpt lat="48.35027" lon="-3.94567">
        <ele>367</ele>
        <time>2017-01-15T16:17:43Z</time>
      </trkpt>
      <trkpt lat="48.35025" lon="-3.94564">
        <ele>367</ele>
        <time>2017-01-15T16:19:43Z</time>
      </trkpt>
      <trkpt lat="48.35024" lon="-3.94563">
        <ele>368</ele>
        <time>2017-01-15T16:21:43Z</time>
      </trkpt>
      <trkpt lat="48.35017" lon="-3.94559">
        <ele>368</ele>
        <time>2017-01-15T16:23:43Z</time>
      </trkpt>
      <trkpt lat="48.35013" lon="-3.94564">
        <ele>369</ele>
        <time>2017-01-15T16:25:43Z</time>
      </trkpt>
      <trkpt lat="48.35013" lon="-3.94569">
        <ele>369</ele>
        <time>2017-01-15T16:27:43Z</time>
      </trkpt>
      <trkpt lat="48.35014" lon="-3.94568">
        <ele>369</ele>
        <time>2017-01-15T16:29:43Z</time>
      </trkpt>
      <trkpt lat="48.35013" lon="-3.94569">
        <ele>369</ele>
        <time>2017-01-15T16:31:43Z</time>
      </trkpt>
      <trkpt lat="48.35014" lon="-3.94569">
        <ele>369</ele>
        <time>2017-01-15T16:33:43Z</time>
      </trkpt>
      <trkpt lat="48.35014" lon="-3.94568">
        <ele>369</ele>
        <time>2017-01-15T16:35:43Z</time>
      </trkpt>
      <trkpt lat="48.35014" lon="-3.94568">
        <ele>369</ele>
        <time>2017-01-15T16:37:43Z</time>
      </trkpt>
      <trkpt lat="48.35015" lon="-3.94561">
        <ele>369</ele>
        <time>2017-01-15T16:39:43Z</time>
      </trkpt>
      <trkpt lat="48.35018" lon="-3.94556">
        <ele>368</ele>
        <time>2017-01-15T16:41:43Z</time>
      </trkpt>
      <trkpt lat="48.35018" lon="-3.94555">
        <ele>368</ele>
        <time>2017-01-15T16:43:43Z</time>
      </trkpt>
      <trkpt lat="48.35018" lon="-3.94556">
        <ele>368</ele>
        <time>2017-01-15T16:45:43Z</time>
      </trkpt>
      <trkpt lat="48.35022" lon="-3.94554">
        <ele>368</ele>
        <time>2017-01-15T16:47:43Z</time>
      </trkpt>
      <trkpt lat="48.35023" lon="-3.94552">
        <ele>368</ele>
        <time>2017-01-15T16:49:43Z</time>
      </trkpt>
      <trkpt lat="48.35028" lon="-3.94542">
        <ele>367</ele>
        <time>2017-01-15T16:51:43Z</time>
      </trkpt>
      <trkpt lat="48.35026" lon="-3.94536">
        <ele>367</ele>
        <time>2017-01-15T16:53:43Z</time>
      </trkpt>
      <trkpt lat="48.35024" lon="-3.94532">
        <ele>368</ele>
        <time>2017-01-15T16:55:43Z</time>
      </trkpt>
      <trkpt lat="48.35019" lon="-3.94514">
        <ele>368</ele>
        <time>2017-01-15T16:57:43Z</time>
      </trkpt>
      <trkpt lat="48.35018" lon="-3.94502">
        <ele>369</ele>
        <time>2017-01-15T16:59:43Z</time>
      </trkpt>
      <trkpt lat="48.35012" lon="-3.94461">
        <ele>366</ele>
        <time>2017-01-15T17:01:43Z</time>
      </trkpt>
      <trkpt lat="48.35011" lon="-3.94457">
        <ele>365</ele>
        <time>2017-01-15T17:03:43Z</time>
      </trkpt>
      <trkpt lat="48.35005" lon="-3.94444">
        <ele>365</ele>
        <time>2017-01-15T17:05:43Z</time>
      </trkpt>
      <trkpt lat="48.34988" lon="-3.94448">
        <ele>365</ele>
        <time>2017-01-15T17:07:43Z</time>
      </trkpt>
      <trkpt lat="48.34985" lon="-3.94453">
        <ele>365</ele>
        <time>2017-01-15T17:09:43Z</time>
      </trkpt>
      <trkpt lat="48.3498" lon="-3.94458">
        <ele>365</ele>
        <time>2017-01-15T17:11:43Z</time>
      </trkpt>
      <trkpt lat="48.34969" lon="-3.94479">
        <ele>365</ele>
        <time>2017-01-15T17:13:43Z</time>
      </trkpt>
      <trkpt lat="48.34959" lon="-3.945">
        <ele>365</ele>
        <time>2017-01-15T17:15:43Z</time>
      </trkpt>
      <trkpt lat="48.34957" lon="-3.94508">
        <ele>364</ele>
        <time>2017-01-15T17:17:43Z</time>
      </trkpt>
      <trkpt lat="48.34955" lon="-3.94515">
        <ele>364</ele>
        <time>2017-01-15T17:19:43Z</time>
      </trkpt>
      <trkpt lat="48.34938" lon="-3.94502">
        <ele>361</ele>
        <time>2017-01-15T17:21:43Z</time>
      </trkpt>
      <trkpt lat="48.34929" lon="-3.94502">
        <ele>360</ele>
        <time>2017-01-15T17:23:43Z</time>
      </trkpt>
      <trkpt lat="48.34922" lon="-3.94501">
        <ele>359</ele>
        <time>2017-01-15T17:25:43Z</time>
      </trkpt>
      <trkpt lat="48.34917" lon="-3.94505">
        <ele>358</ele>
        <time>2017-01-15T17:27:43Z</time>
      </trkpt>
      <trkpt lat="48.34909" lon="-3.94507">
        <ele>356</ele>
        <time>2017-01-15T17:29:43Z</time>
      </trkpt>
      <trkpt lat="48.34897" lon="-3.94499">
        <ele>353</ele>
        <time>2017-01-15T17:31:43Z</time>
      </trkpt>
      <trkpt lat="48.34879" lon="-3.94493">
        <ele>347</ele>
        <time>2017-01-15T17:33:43Z</time>
      </trkpt>
      <trkpt lat="48.34871" lon="-3.94485">
        <ele>345</ele>
        <time>2017-01-15T17:35:43Z</time>
      </trkpt>
      <trkpt lat="48.34864" lon="-3.94484">
        <ele>343</ele>
        <time>2017-01-15T17:37:43Z</time>
      </trkpt>
      <trkpt lat="48.3486" lon="-3.94475">
        <ele>342</ele>
        <time>2017-01-15T17:39:43Z</time>
      </trkpt>
      <trkpt lat="48.34855" lon="-3.94453">
        <ele>341</ele>
        <time>2017-01-15T17:41:43Z</time>
      </trkpt>
      <trkpt lat="48.34856" lon="-3.94432">
        <ele>341</ele>
        <time>2017-01-15T17:43:43Z</time>
      </trkpt>
      <trkpt lat="48.34859" lon="-3.94419">
        <ele>341</ele>
        <time>2017-01-15T17:45:43Z</time>
      </trkpt>
      <trkpt lat="48.34864" lon="-3.9438">
        <ele>340</ele>
        <time>2017-01-15T17:47:43Z</time>
      </trkpt>
      <trkpt lat="48.34866" lon="-3.94353">
        <ele>338</ele>
        <time>2017-01-15T17:49:43Z</time>
      </trkpt>
      <trkpt lat="48.34864" lon="-3.94345">
        <ele>337</ele>
        <time>2017-01-15T17:51:43Z</time>
      </trkpt>
      <trkpt lat="48.3486" lon="-3.94342">
        <ele>337</ele>
        <time>2017-01-15T17:53:43Z</time>
      </trkpt>
      <trkpt lat="48.34857" lon="-3.94342">
        <ele>336</ele>
        <time>2017-01-15T17:55:43Z</time>
      </trkpt>
      <trkpt lat="48.34853" lon="-3.94343">
        <ele>336</ele>
        <time>2017-01-15T17:57:43Z</time>
      </trkpt>
      <trkpt lat="48.34853" lon="-3.94343">
        <ele>336</ele>
        <time>2017-01-15T17:59:43Z</time>
      </trkpt>
      <trkpt lat="48.34852" lon="-3.94344">
        <ele>336</ele>
        <time>2017-01-15T18:01:43Z</time>
      </trkpt>
      <trkpt lat="48.3485" lon="-3.94348">
        <ele>336</ele>
        <time>2017-01-15T18:03:43Z</time>
      </trkpt>
      <trkpt lat="48.34834" lon="-3.94359">
        <ele>334</ele>
        <time>2017-01-15T18:05:43Z</time>
      </trkpt>
      <trkpt lat="48.34816" lon="-3.94369">
        <ele>332</ele>
        <time>2017-01-15T18:07:43Z</time>
      </trkpt>
      <trkpt lat="48.34796" lon="-3.94375">
        <ele>329</ele>
        <time>2017-01-15T18:09:43Z</time>
      </trkpt>
      <trkpt lat="48.34777" lon="-3.94341">
        <ele>326</ele>
        <time>2017-01-15T18:11:43Z</time>
      </trkpt>
      <trkpt lat="48.34777" lon="-3.94301">
        <ele>325</ele>
        <time>2017-01-15T18:13:43Z</time>
      </trkpt>
      <trkpt lat="48.34777" lon="-3.94265">
        <ele>324</ele>
        <time>2017-01-15T18:15:43Z</time>
      </trkpt>
      <trkpt lat="48.34771" lon="-3.94219">
        <ele>322</ele>
        <time>2017-01-15T18:17:43Z</time>
      </trkpt>
      <trkpt lat="48.34755" lon="-3.9419">
        <ele>320</ele>
        <time>2017-01-15T18:19:43Z</time>
      </trkpt>
      <trkpt lat="48.34734" lon="-3.94157">
        <ele>318</ele>
        <time>2017-01-15T18:21:43Z</time>
      </trkpt>
      <trkpt lat="48.34719" lon="-3.94136">
        <ele>316</ele>
        <time>2017-01-15T18:23:43Z</time>
      </trkpt>
      <trkpt lat="48.34693" lon="-3.94121">
        <ele>315</ele>
        <time>2017-01-15T18:25:43Z</time>
      </trkpt>
      <trkpt lat="48.34668" lon="-3.9413">
        <ele>314</ele>
        <time>2017-01-15T18:27:43Z</time>
      </trkpt>
      <trkpt lat="48.34633" lon="-3.94144">
        <ele>312</ele>
        <time>2017-01-15T18:29:43Z</time>
      </trkpt>
      <trkpt lat="48.346" lon="-3.94157">
        <ele>310</ele>
        <time>2017-01-15T18:31:43Z</time>
      </trkpt>
      <trkpt lat="48.34568" lon="-3.94171">
        <ele>308</ele>
        <time>2017-01-15T18:33:43Z</time>
      </trkpt>
      <trkpt lat="48.34542" lon="-3.94182">
        <ele>306</ele>
        <time>2017-01-15T18:35:43Z</time>
      </trkpt>
      <trkpt lat="48.34509" lon="-3.94194">
        <ele>303</ele>
        <time>2017-01-15T18:37:43Z</time>
      </trkpt>
      <trkpt lat="48.34481" lon="-3.94206">
        <ele>301</ele>
        <time>2017-01-15T18:39:43Z</time>
      </trkpt>
      <trkpt lat="48.34459" lon="-3.94221">
        <ele>300</ele>
        <time>2017-01-15T18:41:43Z</time>
      </trkpt>
      <trkpt lat="48.34429" lon="-3.94231">
        <ele>298</ele>
        <time>2017-01-15T18:43:43Z</time>
      </trkpt>
      <trkpt lat="48.34404" lon="-3.94239">
        <ele>297</ele>
        <time>2017-01-15T18:45:43Z</time>
      </trkpt>
      <trkpt lat="48.34347" lon="-3.94252">
        <ele>294</ele>
        <time>2017-01-15T18:47:43Z</time>
      </trkpt>
      <trkpt lat="48.34325" lon="-3.9426">
        <ele>293</ele>
        <time>2017-01-15T18:49:43Z</time>
      </trkpt>
      <trkpt lat="48.343" lon="-3.94263">
        <ele>292</ele>
        <time>2017-01-15T18:51:43Z</time>
      </trkpt>
      <trkpt lat="48.34278" lon="-3.94271">
        <ele>292</ele>
        <time>2017-01-15T18:53:43Z</time>
      </trkpt>
      <trkpt lat="48.34252" lon="-3.94278">
        <ele>291</ele>
        <time>2017-01-15T18:55:43Z</time>
      </trkpt>
      <trkpt lat="48.34253" lon="-3.94285">
        <ele>291</ele>
        <time>2017-01-15T18:57:43Z</time>
      </trkpt>
      <trkpt lat="48.34257" lon="-3.94286">
        <ele>291</ele>
        <time>2017-01-15T18:59:43Z</time>
      </trkpt>
      <trkpt lat="48.34258" lon="-3.94288">
        <ele>291</ele>
        <time>2017-01-15T19:01:43Z</time>
      </trkpt>
      <trkpt lat="48.34255" lon="-3.94282">
        <ele>291</ele>
        <time>2017-01-15T19:03:43Z</time>
      </trkpt>
      <trkpt lat="48.3425" lon="-3.94281">
        <ele>291</ele>
        <time>2017-01-15T19:05:43Z</time>
      </trkpt>
      <trkpt lat="48.34244" lon="-3.94285">
        <ele>291</ele>
        <time>2017-01-15T19:07:43Z</time>
      </trkpt>
      <trkpt lat="48.34242" lon="-3.94297">
        <ele>291</ele>
        <time>2017-01-15T19:09:43Z</time>
      </trkpt>
      <trkpt lat="48.34243" lon="-3.94337">
        <ele>290</ele>
        <time>2017-01-15T19:11:43Z</time>
      </trkpt>
      <trkpt lat="48.34245" lon="-3.94374">
        <ele>289</ele>
        <time>2017-01-15T19:13:43Z</time>
      </trkpt>
      <trkpt lat="48.34252" lon="-3.94405">
        <ele>288</ele>
        <time>2017-01-15T19:15:43Z</time>
      </trkpt>
      <trkpt lat="48.34267" lon="-3.94432">
        <ele>288</ele>
        <time>2017-01-15T19:17:43Z</time>
      </trkpt>
      <trkpt lat="48.34284" lon="-3.94466">
        <ele>287</ele>
        <time>2017-01-15T19:19:43Z</time>
      </trkpt>
      <trkpt lat="48.34292" lon="-3.94478">
        <ele>286</ele>
        <time>2017-01-15T19:21:43Z</time>
      </trkpt>
      <trkpt lat="48.34306" lon="-3.94504">
        <ele>286</ele>
        <time>2017-01-15T19:23:43Z</time>
      </trkpt>
      <trkpt lat="48.34302" lon="-3.94538">
        <ele>284</ele>
        <time>2017-01-15T19:25:43Z</time>
      </trkpt>
      <trkpt lat="48.34302" lon="-3.9456">
        <ele>283</ele>
        <time>2017-01-15T19:27:43Z</time>
      </trkpt>
      <trkpt lat="48.34311" lon="-3.94586">
        <ele>283</ele>
        <time>2017-01-15T19:29:43Z</time>
      </trkpt>
      <trkpt lat="48.34315" lon="-3.94598">
        <ele>282</ele>
        <time>2017-01-15T19:31:43Z</time>
      </trkpt>
      <trkpt lat="48.34322" lon="-3.94609">
        <ele>282</ele>
        <time>2017-01-15T19:33:43Z</time>
      </trkpt>
      <trkpt lat="48.34328" lon="-3.94629">
        <ele>281</ele>
        <time>2017-01-15T19:35:43Z</time>
      </trkpt>
      <trkpt lat="48.34336" lon="-3.94668">
        <ele>280</ele>
        <time>2017-01-15T19:37:43Z</time>
      </trkpt>
      <trkpt lat="48.34346" lon="-3.94692">
        <ele>280</ele>
        <time>2017-01-15T19:39:43Z</time>
      </trkpt>
      <trkpt lat="48.34351" lon="-3.94714">
        <ele>279</ele>
        <time>2017-01-15T19:41:43Z</time>
      </trkpt>
      <trkpt lat="48.34353" lon="-3.94729">
        <ele>278</ele>
        <time>2017-01-15T19:43:43Z</time>
      </trkpt>
      <trkpt lat="48.34359" lon="-3.94763">
        <ele>277</ele>
        <time>2017-01-15T19:45:43Z</time>
      </trkpt>
      <trkpt lat="48.3436" lon="-3.94799">
        <ele>276</ele>
        <time>2017-01-15T19:47:43Z</time>
      </trkpt>
      <trkpt lat="48.34358" lon="-3.94816">
        <ele>275</ele>
        <time>2017-01-15T19:49:43Z</time>
      </trkpt>
      <trkpt lat="48.3436" lon="-3.94846">
        <ele>274</ele>
        <time>2017-01-15T19:51:43Z</time>
      </trkpt>
      <trkpt lat="48.34361" lon="-3.94878">
        <ele>273</ele>
        <time>2017-01-15T19:53:43Z</time>
      </trkpt>
      <trkpt lat="48.3436" lon="-3.94918">
        <ele>271</ele>
        <time>2017-01-15T19:55:43Z</time>
      </trkpt>
      <trkpt lat="48.34359" lon="-3.94954">
        <ele>270</ele>
        <time>2017-01-15T19:57:43Z</time>
      </trkpt>
      <trkpt lat="48.3436" lon="-3.94985">
        <ele>269</ele>
        <time>2017-01-15T19:59:43Z</time>
      </trkpt>
      <trkpt lat="48.34361" lon="-3.94987">
        <ele>268</ele>
        <time>2017-01-15T20:01:43Z</time>
      </trkpt>
      <trkpt lat="48.3436" lon="-3.95">
        <ele>268</ele>
        <time>2017-01-15T20:03:43Z</time>
      </trkpt>
      <trkpt lat="48.34361" lon="-3.95038">
        <ele>267</ele>
        <time>2017-01-15T20:05:43Z</time>
      </trkpt>
      <trkpt lat="48.34362" lon="-3.95065">
        <ele>267</ele>
        <time>2017-01-15T20:07:43Z</time>
      </trkpt>
      <trkpt lat="48.34361" lon="-3.95078">
        <ele>267</ele>
        <time>2017-01-15T20:09:43Z</time>
      </trkpt>
      <trkpt lat="48.34365" lon="-3.95116">
        <ele>265</ele>
        <time>2017-01-15T20:11:43Z</time>
      </trkpt>
      <trkpt lat="48.34365" lon="-3.9514">
        <ele>263</ele>
        <time>2017-01-15T20:13:43Z</time>
      </trkpt>
      <trkpt lat="48.34364" lon="-3.95167">
        <ele>261</ele>
        <time>2017-01-15T20:15:43Z</time>
      </trkpt>
      <trkpt lat="48.3436" lon="-3.95232">
        <ele>259</ele>
        <time>2017-01-15T20:17:43Z</time>
      </trkpt>
      <trkpt lat="48.3436" lon="-3.95265">
        <ele>258</ele>
        <time>2017-01-15T20:19:43Z</time>
      </trkpt>
      <trkpt lat="48.3436" lon="-3.95301">
        <ele>258</ele>
        <time>2017-01-15T20:21:43Z</time>
      </trkpt>
      <trkpt lat="48.34358" lon="-3.95326">
        <ele>258</ele>
        <time>2017-01-15T20:23:43Z</time>
      </trkpt>
      <trkpt lat="48.34359" lon="-3.95367">
        <ele>257</ele>
        <time>2017-01-15T20:25:43Z</time>
      </trkpt>
      <trkpt lat="48.34358" lon="-3.9538">
        <ele>257</ele>
        <time>2017-01-15T20:27:43Z</time>
      </trkpt>
      <trkpt lat="48.3436" lon="-3.95433">
        <ele>257</ele>
        <time>2017-01-15T20:29:43Z</time>
      </trkpt>
      <trkpt lat="48.34356" lon="-3.95454">
        <ele>257</ele>
        <time>2017-01-15T20:31:43Z</time>
      </trkpt>
      <trkpt lat="48.34357" lon="-3.95477">
        <ele>258</ele>
        <time>2017-01-15T20:33:43Z</time>
      </trkpt>
      <trkpt lat="48.34354" lon="-3.95512">
        <ele>258</ele>
        <time>2017-01-15T20:35:43Z</time>
      </trkpt>
      <trkpt lat="48.3435" lon="-3.95542">
        <ele>257</ele>
        <time>2017-01-15T20:37:43Z</time>
      </trkpt>
      <trkpt lat="48.3435" lon="-3.95557">
        <ele>256</ele>
        <time>2017-01-15T20:39:43Z</time>
      </trkpt>
      <trkpt lat="48.34351" lon="-3.95592">
        <ele>254</ele>
        <time>2017-01-15T20:41:43Z</time>
      </trkpt>
      <trkpt lat="48.34349" lon="-3.95621">
        <ele>252</ele>
        <time>2017-01-15T20:43:43Z</time>
      </trkpt>
      <trkpt lat="48.34351" lon="-3.95635">
        <ele>250</ele>
        <time>2017-01-15T20:45:43Z</time>
      </trkpt>
      <trkpt lat="48.34349" lon="-3.95672">
        <ele>247</ele>
        <time>2017-01-15T20:47:43Z</time>
      </trkpt>
      <trkpt lat="48.34352" lon="-3.95704">
        <ele>245</ele>
        <time>2017-01-15T20:49:43Z</time>
      </trkpt>
      <trkpt lat="48.3435" lon="-3.9572">
        <ele>245</ele>
        <time>2017-01-15T20:51:43Z</time>
      </trkpt>
      <trkpt lat="48.34353" lon="-3.95758">
        <ele>243</ele>
        <time>2017-01-15T20:53:43Z</time>
      </trkpt>
      <trkpt lat="48.34353" lon="-3.95776">
        <ele>242</ele>
        <time>2017-01-15T20:55:43Z</time>
      </trkpt>
      <trkpt lat="48.34355" lon="-3.95789">
        <ele>242</ele>
        <time>2017-01-15T20:57:43Z</time>
      </trkpt>
      <trkpt lat="48.34357" lon="-3.95809">
        <ele>242</ele>
        <time>2017-01-15T20:59:43Z</time>
      </trkpt>
      <trkpt lat="48.34353" lon="-3.95837">
        <ele>241</ele>
        <time>2017-01-15T21:01:43Z</time>
      </trkpt>
      <trkpt lat="48.34353" lon="-3.95868">
        <ele>240</ele>
        <time>2017-01-15T21:03:43Z</time>
      </trkpt>
      <trkpt lat="48.34354" lon="-3.95902">
        <ele>239</ele>
        <time>2017-01-15T21:05:43Z</time>
      </trkpt>
      <trkpt lat="48.34356" lon="-3.95916">
        <ele>239</ele>
        <time>2017-01-15T21:07:43Z</time>
      </trkpt>
      <trkpt lat="48.34356" lon="-3.9593">
        <ele>239</ele>
        <time>2017-01-15T21:09:43Z</time>
      </trkpt>
      <trkpt lat="48.34358" lon="-3.95943">
        <ele>239</ele>
        <time>2017-01-15T21:11:43Z</time>
      </trkpt>
      <trkpt lat="48.34357" lon="-3.95991">
        <ele>239</ele>
        <time>2017-01-15T21:13:43Z</time>
      </trkpt>
      <trkpt lat="48.34364" lon="-3.96028">
        <ele>239</ele>
        <time>2017-01-15T21:15:43Z</time>
      </trkpt>
      <trkpt lat="48.34364" lon="-3.96065">
        <ele>238</ele>
        <time>2017-01-15T21:17:43Z</time>
      </trkpt>
      <trkpt lat="48.34363" lon="-3.96067">
        <ele>238</ele>
        <time>2017-01-15T21:19:43Z</time>
      </trkpt>
      <trkpt lat="48.34364" lon="-3.96085">
        <ele>238</ele>
        <time>2017-01-15T21:21:43Z</time>
      </trkpt>
      <trkpt lat="48.34367" lon="-3.96099">
        <ele>238</ele>
        <time>2017-01-15T21:23:43Z</time>
      </trkpt>
      <trkpt lat="48.34367" lon="-3.96114">
        <ele>238</ele>
        <time>2017-01-15T21:25:43Z</time>
      </trkpt>
      <trkpt lat="48.34368" lon="-3.96134">
        <ele>238</ele>
        <time>2017-01-15T21:27:43Z</time>
      </trkpt>
      <trkpt lat="48.34371" lon="-3.96163">
        <ele>237</ele>
        <time>2017-01-15T21:29:43Z</time>
      </trkpt>
      <trkpt lat="48.34372" lon="-3.96181">
        <ele>237</ele>
        <time>2017-01-15T21:31:43Z</time>
      </trkpt>
      <trkpt lat="48.34373" lon="-3.96204">
        <ele>236</ele>
        <time>2017-01-15T21:33:43Z</time>
      </trkpt>
      <trkpt lat="48.34376" lon="-3.96221">
        <ele>236</ele>
        <time>2017-01-15T21:35:43Z</time>
      </trkpt>
      <trkpt lat="48.34379" lon="-3.96257">
        <ele>235</ele>
        <time>2017-01-15T21:37:43Z</time>
      </trkpt>
      <trkpt lat="48.34381" lon="-3.96273">
        <ele>235</ele>
        <time>2017-01-15T21:39:43Z</time>
      </trkpt>
      <trkpt lat="48.3438" lon="-3.96282">
        <ele>235</ele>
        <time>2017-01-15T21:41:43Z</time>
      </trkpt>
      <trkpt lat="48.34382" lon="-3.96287">
        <ele>235</ele>
        <time>2017-01-15T21:43:43Z</time>
      </trkpt>
      <trkpt lat="48.34383" lon="-3.96319">
        <ele>236</ele>
        <time>2017-01-15T21:45:43Z</time>
      </trkpt>
      <trkpt lat="48.34389" lon="-3.96348">
        <ele>236</ele>
        <time>2017-01-15T21:47:43Z</time>
      </trkpt>
      <trkpt lat="48.34397" lon="-3.96385">
        <ele>238</ele>
        <time>2017-01-15T21:49:43Z</time>
      </trkpt>
      <trkpt lat="48.34398" lon="-3.96421">
        <ele>239</ele>
        <time>2017-01-15T21:51:43Z</time>
      </trkpt>
      <trkpt lat="48.34403" lon="-3.96449">
        <ele>238</ele>
        <time>2017-01-15T21:53:43Z</time>
      </trkpt>
      <trkpt lat="48.34403" lon="-3.96468">
        <ele>237</ele>
        <time>2017-01-15T21:55:43Z</time>
      </trkpt>
      <trkpt lat="48.34407" lon="-3.96495">
        <ele>235</ele>
        <time>2017-01-15T21:57:43Z</time>
      </trkpt>
      <trkpt lat="48.34413" lon="-3.96505">
        <ele>235</ele>
        <time>2017-01-15T21:59:43Z</time>
      </trkpt>
      <trkpt lat="48.34414" lon="-3.96517">
        <ele>235</ele>
        <time>2017-01-15T22:01:43Z</time>
      </trkpt>
      <trkpt lat="48.34413" lon="-3.96525">
        <ele>235</ele>
        <time>2017-01-15T22:03:43Z</time>
      </trkpt>
      <trkpt lat="48.34416" lon="-3.96542">
        <ele>234</ele>
        <time>2017-01-15T22:05:43Z</time>
      </trkpt>
      <trkpt lat="48.3442" lon="-3.96554">
        <ele>234</ele>
        <time>2017-01-15T22:07:43Z</time>
      </trkpt>
      <trkpt lat="48.34422" lon="-3.96563">
        <ele>233</ele>
        <time>2017-01-15T22:09:43Z</time>
      </trkpt>
      <trkpt lat="48.34424" lon="-3.96581">
        <ele>233</ele>
        <time>2017-01-15T22:11:43Z</time>
      </trkpt>
      <trkpt lat="48.34435" lon="-3.96639">
        <ele>231</ele>
        <time>2017-01-15T22:13:43Z</time>
      </trkpt>
      <trkpt lat="48.34441" lon="-3.96692">
        <ele>230</ele>
        <time>2017-01-15T22:15:43Z</time>
      </trkpt>
      <trkpt lat="48.34443" lon="-3.96705">
        <ele>230</ele>
        <time>2017-01-15T22:17:43Z</time>
      </trkpt>
      <trkpt lat="48.34445" lon="-3.96717">
        <ele>230</ele>
        <time>2017-01-15T22:19:43Z</time>
      </trkpt>
      <trkpt lat="48.34443" lon="-3.96764">
        <ele>229</ele>
        <time>2017-01-15T22:21:43Z</time>
      </trkpt>
      <trkpt lat="48.34446" lon="-3.96811">
        <ele>229</ele>
        <time>2017-01-15T22:23:43Z</time>
      </trkpt>
      <trkpt lat="48.34446" lon="-3.9682">
        <ele>229</ele>
        <time>2017-01-15T22:25:43Z</time>
      </trkpt>
      <trkpt lat="48.34445" lon="-3.96825">
        <ele>229</ele>
        <time>2017-01-15T22:27:43Z</time>
      </trkpt>
      <trkpt lat="48.34445" lon="-3.96831">
        <ele>229</ele>
        <time>2017-01-15T22:29:43Z</time>
      </trkpt>
      <trkpt lat="48.34446" lon="-3.96835">
        <ele>229</ele>
        <time>2017-01-15T22:31:43Z</time>
      </trkpt>
      <trkpt lat="48.34446" lon="-3.96846">
        <ele>229</ele>
        <time>2017-01-15T22:33:43Z</time>
      </trkpt>
      <trkpt lat="48.3445" lon="-3.96877">
        <ele>229</ele>
        <time>2017-01-15T22:35:43Z</time>
      </trkpt>
      <trkpt lat="48.34448" lon="-3.96889">
        <ele>228</ele>
        <time>2017-01-15T22:37:43Z</time>
      </trkpt>
      <trkpt lat="48.34453" lon="-3.96938">
        <ele>228</ele>
        <time>2017-01-15T22:39:43Z</time>
      </trkpt>
      <trkpt lat="48.34458" lon="-3.96948">
        <ele>228</ele>
        <time>2017-01-15T22:41:43Z</time>
      </trkpt>
      <trkpt lat="48.34458" lon="-3.96952">
        <ele>227</ele>
        <time>2017-01-15T22:43:43Z</time>
      </trkpt>
      <trkpt lat="48.34457" lon="-3.96953">
        <ele>227</ele>
        <time>2017-01-15T22:45:43Z</time>
      </trkpt>
      <trkpt lat="48.34456" lon="-3.96953">
        <ele>227</ele>
        <time>2017-01-15T22:47:43Z</time>
      </trkpt>
      <trkpt lat="48.34442" lon="-3.96951">
        <ele>226</ele>
        <time>2017-01-15T22:49:43Z</time>
      </trkpt>
      <trkpt lat="48.34422" lon="-3.9694">
        <ele>225</ele>
        <time>2017-01-15T22:51:43Z</time>
      </trkpt>
      <trkpt lat="48.34408" lon="-3.96937">
        <ele>224</ele>
        <time>2017-01-15T22:53:43Z</time>
      </trkpt>
      <trkpt lat="48.34403" lon="-3.96936">
        <ele>223</ele>
        <time>2017-01-15T22:55:43Z</time>
      </trkpt>
      <trkpt lat="48.34401" lon="-3.96936">
        <ele>223</ele>
        <time>2017-01-15T22:57:43Z</time>
      </trkpt>
      <trkpt lat="48.34373" lon="-3.9693">
        <ele>221</ele>
        <time>2017-01-15T22:59:43Z</time>
      </trkpt>
      <trkpt lat="48.34346" lon="-3.9693">
        <ele>219</ele>
        <time>2017-01-15T23:01:43Z</time>
      </trkpt>
      <trkpt lat="48.34325" lon="-3.96938">
        <ele>217</ele>
        <time>2017-01-15T23:03:43Z</time>
      </trkpt>
      <trkpt lat="48.3431" lon="-3.96942">
        <ele>217</ele>
        <time>2017-01-15T23:05:43Z</time>
      </trkpt>
      <trkpt lat="48.34301" lon="-3.96941">
        <ele>217</ele>
        <time>2017-01-15T23:07:43Z</time>
      </trkpt>
      <trkpt lat="48.34299" lon="-3.9694">
        <ele>217</ele>
        <time>2017-01-15T23:09:43Z</time>
      </trkpt>
      <trkpt lat="48.34281" lon="-3.96939">
        <ele>217</ele>
        <time>2017-01-15T23:11:43Z</time>
      </trkpt>
      <trkpt lat="48.34278" lon="-3.9694">
        <ele>217</ele>
        <time>2017-01-15T23:13:43Z</time>
      </trkpt>
      <trkpt lat="48.34278" lon="-3.9694">
        <ele>217</ele>
        <time>2017-01-15T23:15:43Z</time>
      </trkpt>
      <trkpt lat="48.34277" lon="-3.96936">
        <ele>217</ele>
        <time>2017-01-15T23:17:43Z</time>
      </trkpt>
      <trkpt lat="48.34278" lon="-3.96935">
        <ele>217</ele>
        <time>2017-01-15T23:19:43Z</time>
      </trkpt>
      <trkpt lat="48.34278" lon="-3.96934">
        <ele>217</ele>
        <time>2017-01-15T23:21:43Z</time>
      </trkpt>
      <trkpt lat="48.34282" lon="-3.96935">
        <ele>217</ele>
        <time>2017-01-15T23:23:43Z</time>
      </trkpt>
      <trkpt lat="48.34288" lon="-3.96938">
        <ele>217</ele>
        <time>2017-01-15T23:25:43Z</time>
      </trkpt>
      <trkpt lat="48.34296" lon="-3.9694">
        <ele>217</ele>
        <time>2017-01-15T23:27:43Z</time>
      </trkpt>
      <trkpt lat="48.34299" lon="-3.96942">
        <ele>217</ele>
        <time>2017-01-15T23:29:43Z</time>
      </trkpt>
      <trkpt lat="48.34325" lon="-3.96941">
        <ele>217</ele>
        <time>2017-01-15T23:31:43Z</time>
      </trkpt>
      <trkpt lat="48.34332" lon="-3.9694">
        <ele>217</ele>
        <time>2017-01-15T23:33:43Z</time>
      </trkpt>
      <trkpt lat="48.34339" lon="-3.96935">
        <ele>218</ele>
        <time>2017-01-15T23:35:43Z</time>
      </trkpt>
      <trkpt lat="48.34351" lon="-3.9693">
        <ele>219</ele>
        <time>2017-01-15T23:37:43Z</time>
      </trkpt>
      <trkpt lat="48.34357" lon="-3.9693">
        <ele>220</ele>
        <time>2017-01-15T23:39:43Z</time>
      </trkpt>
      <trkpt lat="48.34361" lon="-3.96931">
        <ele>220</ele>
        <time>2017-01-15T23:41:43Z</time>
      </trkpt>
      <trkpt lat="48.34378" lon="-3.96933">
        <ele>221</ele>
        <time>2017-01-15T23:43:43Z</time>
      </trkpt>
      <trkpt lat="48.34398" lon="-3.96938">
        <ele>223</ele>
        <time>2017-01-15T23:45:43Z</time>
      </trkpt>
      <trkpt lat="48.34406" lon="-3.96941">
        <ele>223</ele>
        <time>2017-01-15T23:47:43Z</time>
      </trkpt>
      <trkpt lat="48.34446" lon="-3.96955">
        <ele>226</ele>
        <time>2017-01-15T23:49:43Z</time>
      </trkpt>
      <trkpt lat="48.34457" lon="-3.96957">
        <ele>227</ele>
        <time>2017-01-15T23:51:43Z</time>
      </trkpt>
      <trkpt lat="48.34463" lon="-3.9696">
        <ele>228</ele>
        <time>2017-01-15T23:53:43Z</time>
      </trkpt>
      <trkpt lat="48.34481" lon="-3.96975">
        <ele>229</ele>
        <time>2017-01-15T23:55:43Z</time>
      </trkpt>
      <trkpt lat="48.3449" lon="-3.96977">
        <ele>229</ele>
        <time>2017-01-15T23:57:43Z</time>
      </trkpt>
      <trkpt lat="48.34504" lon="-3.96983">
        <ele>230</ele>
        <time>2017-01-15T23:59:43Z</time>
      </trkpt>
      <trkpt lat="48.34509" lon="-3.96998">
        <ele>230</ele>
        <time>2017-01-16T00:01:43Z</time>
      </trkpt>
      <trkpt lat="48.34508" lon="-3.97005">
        <ele>229</ele>
        <time>2017-01-16T00:03:43Z</time>
      </trkpt>
      <trkpt lat="48.34504" lon="-3.97023">
        <ele>229</ele>
        <time>2017-01-16T00:05:43Z</time>
      </trkpt>
      <trkpt lat="48.34495" lon="-3.97037">
        <ele>228</ele>
        <time>2017-01-16T00:07:43Z</time>
      </trkpt>
      <trkpt lat="48.34479" lon="-3.97068">
        <ele>227</ele>
        <time>2017-01-16T00:09:43Z</time>
      </trkpt>
      <trkpt lat="48.34477" lon="-3.97075">
        <ele>227</ele>
        <time>2017-01-16T00:11:43Z</time>
      </trkpt>
      <trkpt lat="48.34471" lon="-3.97115">
        <ele>228</ele>
        <time>2017-01-16T00:13:43Z</time>
      </trkpt>
      <trkpt lat="48.3447" lon="-3.97119">
        <ele>228</ele>
        <time>2017-01-16T00:15:43Z</time>
      </trkpt>
      <trkpt lat="48.34461" lon="-3.97147">
        <ele>228</ele>
        <time>2017-01-16T00:17:43Z</time>
      </trkpt>
      <trkpt lat="48.34454" lon="-3.97157">
        <ele>228</ele>
        <time>2017-01-16T00:19:43Z</time>
      </trkpt>
      <trkpt lat="48.34431" lon="-3.97185">
        <ele>227</ele>
        <time>2017-01-16T00:21:43Z</time>
      </trkpt>
      <trkpt lat="48.34411" lon="-3.97208">
        <ele>226</ele>
        <time>2017-01-16T00:23:43Z</time>
      </trkpt>
      <trkpt lat="48.34405" lon="-3.97263">
        <ele>225</ele>
        <time>2017-01-16T00:25:43Z</time>
      </trkpt>
      <trkpt lat="48.34398" lon="-3.97286">
        <ele>224</ele>
        <time>2017-01-16T00:27:43Z</time>
      </trkpt>
      <trkpt lat="48.34398" lon="-3.97292">
        <ele>224</ele>
        <time>2017-01-16T00:29:43Z</time>
      </trkpt>
      <trkpt lat="48.34378" lon="-3.97377">
        <ele>221</ele>
        <time>2017-01-16T00:31:43Z</time>
      </trkpt>
      <trkpt lat="48.3438" lon="-3.97385">
        <ele>221</ele>
        <time>2017-01-16T00:33:43Z</time>
      </trkpt>
      <trkpt lat="48.34409" lon="-3.97425">
        <ele>220</ele>
        <time>2017-01-16T00:35:43Z</time>
      </trkpt>
      <trkpt lat="48.3441" lon="-3.97426">
        <ele>220</ele>
        <time>2017-01-16T00:37:43Z</time>
      </trkpt>
      <trkpt lat="48.34415" lon="-3.9743">
        <ele>220</ele>
        <time>2017-01-16T00:39:43Z</time>
      </trkpt>
      <trkpt lat="48.34433" lon="-3.97455">
        <ele>219</ele>
        <time>2017-01-16T00:41:43Z</time>
      </trkpt>
      <trkpt lat="48.3444" lon="-3.97467">
        <ele>218</ele>
        <time>2017-01-16T00:43:43Z</time>
      </trkpt>
      <trkpt lat="48.34453" lon="-3.97502">
        <ele>217</ele>
        <time>2017-01-16T00:45:43Z</time>
      </trkpt>
      <trkpt lat="48.34482" lon="-3.9754">
        <ele>218</ele>
        <time>2017-01-16T00:47:43Z</time>
      </trkpt>
      <trkpt lat="48.345" lon="-3.97583">
        <ele>218</ele>
        <time>2017-01-16T00:49:43Z</time>
      </trkpt>
      <trkpt lat="48.34501" lon="-3.97591">
        <ele>218</ele>
        <time>2017-01-16T00:51:43Z</time>
      </trkpt>
      <trkpt lat="48.34505" lon="-3.97639">
        <ele>218</ele>
        <time>2017-01-16T00:53:43Z</time>
      </trkpt>
      <trkpt lat="48.345" lon="-3.97691">
        <ele>219</ele>
        <time>2017-01-16T00:55:43Z</time>
      </trkpt>
      <trkpt lat="48.34495" lon="-3.97767">
        <ele>221</ele>
        <time>2017-01-16T00:57:43Z</time>
      </trkpt>
      <trkpt lat="48.34495" lon="-3.97778">
        <ele>221</ele>
        <time>2017-01-16T00:59:43Z</time>
      </trkpt>
      <trkpt lat="48.34499" lon="-3.97828">
        <ele>224</ele>
        <time>2017-01-16T01:01:43Z</time>
      </trkpt>
      <trkpt lat="48.34503" lon="-3.97855">
        <ele>225</ele>
        <time>2017-01-16T01:03:43Z</time>
      </trkpt>
      <trkpt lat="48.34506" lon="-3.97893">
        <ele>226</ele>
        <time>2017-01-16T01:05:43Z</time>
      </trkpt>
      <trkpt lat="48.3451" lon="-3.97931">
        <ele>227</ele>
        <time>2017-01-16T01:07:43Z</time>
      </trkpt>
      <trkpt lat="48.34515" lon="-3.98003">
        <ele>228</ele>
        <time>2017-01-16T01:09:43Z</time>
      </trkpt>
      <trkpt lat="48.34524" lon="-3.98043">
        <ele>229</ele>
        <time>2017-01-16T01:11:43Z</time>
      </trkpt>
      <trkpt lat="48.34528" lon="-3.98063">
        <ele>230</ele>
        <time>2017-01-16T01:13:43Z</time>
      </trkpt>
      <trkpt lat="48.34532" lon="-3.98069">
        <ele>230</ele>
        <time>2017-01-16T01:15:43Z</time>
      </trkpt>
      <trkpt lat="48.3454" lon="-3.98102">
        <ele>230</ele>
        <time>2017-01-16T01:17:43Z</time>
      </trkpt>
      <trkpt lat="48.34547" lon="-3.9812">
        <ele>230</ele>
        <time>2017-01-16T01:19:43Z</time>
      </trkpt>
      <trkpt lat="48.3456" lon="-3.98144">
        <ele>230</ele>
        <time>2017-01-16T01:21:43Z</time>
      </trkpt>
      <trkpt lat="48.34574" lon="-3.9818">
        <ele>228</ele>
        <time>2017-01-16T01:23:43Z</time>
      </trkpt>
      <trkpt lat="48.34593" lon="-3.98212">
        <ele>227</ele>
        <time>2017-01-16T01:25:43Z</time>
      </trkpt>
      <trkpt lat="48.34608" lon="-3.98241">
        <ele>226</ele>
        <time>2017-01-16T01:27:43Z</time>
      </trkpt>
      <trkpt lat="48.34622" lon="-3.98276">
        <ele>224</ele>
        <time>2017-01-16T01:29:43Z</time>
      </trkpt>
      <trkpt lat="48.34638" lon="-3.98296">
        <ele>224</ele>
        <time>2017-01-16T01:31:43Z</time>
      </trkpt>
      <trkpt lat="48.34652" lon="-3.98323">
        <ele>223</ele>
        <time>2017-01-16T01:33:43Z</time>
      </trkpt>
      <trkpt lat="48.34655" lon="-3.9833">
        <ele>223</ele>
        <time>2017-01-16T01:35:43Z</time>
      </trkpt>
      <trkpt lat="48.34671" lon="-3.98345">
        <ele>222</ele>
        <time>2017-01-16T01:37:43Z</time>
      </trkpt>
      <trkpt lat="48.34676" lon="-3.98359">
        <ele>222</ele>
        <time>2017-01-16T01:39:43Z</time>
      </trkpt>
      <trkpt lat="48.34695" lon="-3.98405">
        <ele>219</ele>
        <time>2017-01-16T01:41:43Z</time>
      </trkpt>
      <trkpt lat="48.34697" lon="-3.98415">
        <ele>218</ele>
        <time>2017-01-16T01:43:43Z</time>
      </trkpt>
      <trkpt lat="48.34708" lon="-3.98435">
        <ele>217</ele>
        <time>2017-01-16T01:45:43Z</time>
      </trkpt>
      <trkpt lat="48.34716" lon="-3.98441">
        <ele>217</ele>
        <time>2017-01-16T01:47:43Z</time>
      </trkpt>
      <trkpt lat="48.34719" lon="-3.98443">
        <ele>217</ele>
        <time>2017-01-16T01:49:43Z</time>
      </trkpt>
      <trkpt lat="48.34742" lon="-3.98472">
        <ele>216</ele>
        <time>2017-01-16T01:51:43Z</time>
      </trkpt>
      <trkpt lat="48.34746" lon="-3.98478">
        <ele>216</ele>
        <time>2017-01-16T01:53:43Z</time>
      </trkpt>
      <trkpt lat="48.34767" lon="-3.98501">
        <ele>216</ele>
        <time>2017-01-16T01:55:43Z</time>
      </trkpt>
      <trkpt lat="48.34791" lon="-3.98546">
        <ele>214</ele>
        <time>2017-01-16T01:57:43Z</time>
      </trkpt>
      <trkpt lat="48.34801" lon="-3.98555">
        <ele>214</ele>
        <time>2017-01-16T01:59:43Z</time>
      </trkpt>
      <trkpt lat="48.34802" lon="-3.98554">
        <ele>215</ele>
        <time>2017-01-16T02:01:43Z</time>
      </trkpt>
      <trkpt lat="48.34798" lon="-3.98561">
        <ele>214</ele>
        <time>2017-01-16T02:03:43Z</time>
      </trkpt>
      <trkpt lat="48.34792" lon="-3.98553">
        <ele>214</ele>
        <time>2017-01-16T02:05:43Z</time>
      </trkpt>
      <trkpt lat="48.34789" lon="-3.98552">
        <ele>214</ele>
        <time>2017-01-16T02:07:43Z</time>
      </trkpt>
      <trkpt lat="48.34782" lon="-3.98552">
        <ele>213</ele>
        <time>2017-01-16T02:09:43Z</time>
      </trkpt>
      <trkpt lat="48.34752" lon="-3.98563">
        <ele>209</ele>
        <time>2017-01-16T02:11:43Z</time>
      </trkpt>
      <trkpt lat="48.34732" lon="-3.98571">
        <ele>207</ele>
        <time>2017-01-16T02:13:43Z</time>
      </trkpt>
      <trkpt lat="48.3473" lon="-3.98571">
        <ele>207</ele>
        <time>2017-01-16T02:15:43Z</time>
      </trkpt>
      <trkpt lat="48.34726" lon="-3.98574">
        <ele>206</ele>
        <time>2017-01-16T02:17:43Z</time>
      </trkpt>
      <trkpt lat="48.34701" lon="-3.98583">
        <ele>204</ele>
        <time>2017-01-16T02:19:43Z</time>
      </trkpt>
      <trkpt lat="48.3469" lon="-3.98595">
        <ele>202</ele>
        <time>2017-01-16T02:21:43Z</time>
      </trkpt>
      <trkpt lat="48.34693" lon="-3.9863">
        <ele>201</ele>
        <time>2017-01-16T02:23:43Z</time>
      </trkpt>
      <trkpt lat="48.34695" lon="-3.98665">
        <ele>200</ele>
        <time>2017-01-16T02:25:43Z</time>
      </trkpt>
      <trkpt lat="48.34699" lon="-3.98713">
        <ele>197</ele>
        <time>2017-01-16T02:27:43Z</time>
      </trkpt>
      <trkpt lat="48.34704" lon="-3.98774">
        <ele>194</ele>
        <time>2017-01-16T02:29:43Z</time>
      </trkpt>
      <trkpt lat="48.34713" lon="-3.98808">
        <ele>194</ele>
        <time>2017-01-16T02:31:43Z</time>
      </trkpt>
      <trkpt lat="48.34711" lon="-3.98834">
        <ele>194</ele>
        <time>2017-01-16T02:33:43Z</time>
      </trkpt>
      <trkpt lat="48.34713" lon="-3.98885">
        <ele>194</ele>
        <time>2017-01-16T02:35:43Z</time>
      </trkpt>
      <trkpt lat="48.34722" lon="-3.98934">
        <ele>194</ele>
        <time>2017-01-16T02:37:43Z</time>
      </trkpt>
      <trkpt lat="48.34725" lon="-3.98979">
        <ele>193</ele>
        <time>2017-01-16T02:39:43Z</time>
      </trkpt>
      <trkpt lat="48.34736" lon="-3.99018">
        <ele>192</ele>
        <time>2017-01-16T02:41:43Z</time>
      </trkpt>
      <trkpt lat="48.34745" lon="-3.99064">
        <ele>191</ele>
        <time>2017-01-16T02:43:43Z</time>
      </trkpt>
      <trkpt lat="48.34753" lon="-3.99116">
        <ele>190</ele>
        <time>2017-01-16T02:45:43Z</time>
      </trkpt>
      <trkpt lat="48.34758" lon="-3.99163">
        <ele>189</ele>
        <time>2017-01-16T02:47:43Z</time>
      </trkpt>
      <trkpt lat="48.34756" lon="-3.99175">
        <ele>189</ele>
        <time>2017-01-16T02:49:43Z</time>
      </trkpt>
      <trkpt lat="48.34735" lon="-3.99196">
        <ele>185</ele>
        <time>2017-01-16T02:51:43Z</time>
      </trkpt>
      <trkpt lat="48.3473" lon="-3.99201">
        <ele>184</ele>
        <time>2017-01-16T02:53:43Z</time>
      </trkpt>
      <trkpt lat="48.34713" lon="-3.99235">
        <ele>180</ele>
        <time>2017-01-16T02:55:43Z</time>
      </trkpt>
      <trkpt lat="48.34705" lon="-3.99264">
        <ele>176</ele>
        <time>2017-01-16T02:57:43Z</time>
      </trkpt>
      <trkpt lat="48.34701" lon="-3.99281">
        <ele>174</ele>
        <time>2017-01-16T02:59:43Z</time>
      </trkpt>
      <trkpt lat="48.34699" lon="-3.99293">
        <ele>173</ele>
        <time>2017-01-16T03:01:43Z</time>
      </trkpt>
      <trkpt lat="48.347" lon="-3.99306">
        <ele>171</ele>
        <time>2017-01-16T03:03:43Z</time>
      </trkpt>
      <trkpt lat="48.34698" lon="-3.99319">
        <ele>170</ele>
        <time>2017-01-16T03:05:43Z</time>
      </trkpt>
      <trkpt lat="48.347" lon="-3.99338">
        <ele>168</ele>
        <time>2017-01-16T03:07:43Z</time>
      </trkpt>
      <trkpt lat="48.34708" lon="-3.99349">
        <ele>168</ele>
        <time>2017-01-16T03:09:43Z</time>
      </trkpt>
      <trkpt lat="48.34714" lon="-3.99373">
        <ele>167</ele>
        <time>2017-01-16T03:11:43Z</time>
      </trkpt>
      <trkpt lat="48.34716" lon="-3.99377">
        <ele>167</ele>
        <time>2017-01-16T03:13:43Z</time>
      </trkpt>
      <trkpt lat="48.34718" lon="-3.99383">
        <ele>167</ele>
        <time>2017-01-16T03:15:43Z</time>
      </trkpt>
      <trkpt lat="48.34725" lon="-3.99396">
        <ele>167</ele>
        <time>2017-01-16T03:17:43Z</time>
      </trkpt>
      <trkpt lat="48.34728" lon="-3.99397">
        <ele>167</ele>
        <time>2017-01-16T03:19:43Z</time>
      </trkpt>
      <trkpt lat="48.34752" lon="-3.99425">
        <ele>168</ele>
        <time>2017-01-16T03:21:43Z</time>
      </trkpt>
      <trkpt lat="48.34766" lon="-3.99456">
        <ele>168</ele>
        <time>2017-01-16T03:23:43Z</time>
      </trkpt>
      <trkpt lat="48.34773" lon="-3.99475">
        <ele>168</ele>
        <time>2017-01-16T03:25:43Z</time>
      </trkpt>
      <trkpt lat="48.34786" lon="-3.99498">
        <ele>168</ele>
        <time>2017-01-16T03:27:43Z</time>
      </trkpt>
      <trkpt lat="48.34808" lon="-3.99528">
        <ele>169</ele>
        <time>2017-01-16T03:29:43Z</time>
      </trkpt>
      <trkpt lat="48.34826" lon="-3.99557">
        <ele>169</ele>
        <time>2017-01-16T03:31:43Z</time>
      </trkpt>
      <trkpt lat="48.34844" lon="-3.99579">
        <ele>169</ele>
        <time>2017-01-16T03:33:43Z</time>
      </trkpt>
      <trkpt lat="48.34865" lon="-3.996">
        <ele>171</ele>
        <time>2017-01-16T03:35:43Z</time>
      </trkpt>
      <trkpt lat="48.34872" lon="-3.99602">
        <ele>172</ele>
        <time>2017-01-16T03:37:43Z</time>
      </trkpt>
      <trkpt lat="48.34883" lon="-3.99613">
        <ele>172</ele>
        <time>2017-01-16T03:39:43Z</time>
      </trkpt>
      <trkpt lat="48.34888" lon="-3.99628">
        <ele>172</ele>
        <time>2017-01-16T03:41:43Z</time>
      </trkpt>
      <trkpt lat="48.34892" lon="-3.99654">
        <ele>172</ele>
        <time>2017-01-16T03:43:43Z</time>
      </trkpt>
      <trkpt lat="48.34896" lon="-3.99682">
        <ele>172</ele>
        <time>2017-01-16T03:45:43Z</time>
      </trkpt>
      <trkpt lat="48.34903" lon="-3.99719">
        <ele>171</ele>
        <time>2017-01-16T03:47:43Z</time>
      </trkpt>
      <trkpt lat="48.34904" lon="-3.9974">
        <ele>171</ele>
        <time>2017-01-16T03:49:43Z</time>
      </trkpt>
      <trkpt lat="48.34907" lon="-3.9975">
        <ele>171</ele>
        <time>2017-01-16T03:51:43Z</time>
      </trkpt>
      <trkpt lat="48.34928" lon="-3.99776">
        <ele>170</ele>
        <time>2017-01-16T03:53:43Z</time>
      </trkpt>
      <trkpt lat="48.34948" lon="-3.99804">
        <ele>169</ele>
        <time>2017-01-16T03:55:43Z</time>
      </trkpt>
      <trkpt lat="48.34959" lon="-3.99835">
        <ele>167</ele>
        <time>2017-01-16T03:57:43Z</time>
      </trkpt>
      <trkpt lat="48.34966" lon="-3.99874">
        <ele>165</ele>
        <time>2017-01-16T03:59:43Z</time>
      </trkpt>
      <trkpt lat="48.34965" lon="-3.99879">
        <ele>165</ele>
        <time>2017-01-16T04:01:43Z</time>
      </trkpt>
      <trkpt lat="48.34962" lon="-3.99884">
        <ele>165</ele>
        <time>2017-01-16T04:03:43Z</time>
      </trkpt>
      <trkpt lat="48.3496" lon="-3.99885">
        <ele>165</ele>
        <time>2017-01-16T04:05:43Z</time>
      </trkpt>
      <trkpt lat="48.34957" lon="-3.99888">
        <ele>165</ele>
        <time>2017-01-16T04:07:43Z</time>
      </trkpt>
      <trkpt lat="48.34954" lon="-3.99897">
        <ele>164</ele>
        <time>2017-01-16T04:09:43Z</time>
      </trkpt>
      <trkpt lat="48.3495" lon="-3.99927">
        <ele>162</ele>
        <time>2017-01-16T04:11:43Z</time>
      </trkpt>
      <trkpt lat="48.3495" lon="-3.99934">
        <ele>162</ele>
        <time>2017-01-16T04:13:43Z</time>
      </trkpt>
      <trkpt lat="48.34954" lon="-3.99938">
        <ele>162</ele>
        <time>2017-01-16T04:15:43Z</time>
      </trkpt>
      <trkpt lat="48.34957" lon="-3.99938">
        <ele>162</ele>
        <time>2017-01-16T04:17:43Z</time>
      </trkpt>
      <trkpt lat="48.34958" lon="-3.99939">
        <ele>162</ele>
        <time>2017-01-16T04:19:43Z</time>
      </trkpt>
      <trkpt lat="48.34958" lon="-3.99938">
        <ele>162</ele>
        <time>2017-01-16T04:21:43Z</time>
      </trkpt>
      <trkpt lat="48.34963" lon="-3.99926">
        <ele>163</ele>
        <time>2017-01-16T04:23:43Z</time>
      </trkpt>
      <trkpt lat="48.34964" lon="-3.99927">
        <ele>163</ele>
        <time>2017-01-16T04:25:43Z</time>
      </trkpt>
      <trkpt lat="48.34967" lon="-3.99926">
        <ele>163</ele>
        <time>2017-01-16T04:27:43Z</time>
      </trkpt>
      <trkpt lat="48.3497" lon="-3.99928">
        <ele>163</ele>
        <time>2017-01-16T04:29:43Z</time>
      </trkpt>
      <trkpt lat="48.34971" lon="-3.99929">
        <ele>163</ele>
        <time>2017-01-16T04:31:43Z</time>
      </trkpt>
    </trkseg>
  </trk>
</gpx>